     2.11           OBSERVATION DATA    G (GPS)             RINEX VERSION / TYPE
teqc 2010Oct21 OPUS Account 20111027 15:16:34UTC            PGM / RUN BY / DATE
E 1524                                                      MARKER NAME
1209                                                        MARKER NUMBER
CSMIDDLETON NGS                                             OBSERVER / AGENCY
4624K01583 TRIMBLE NETR5 4.41                               REC # / TYPE / VERS
60154430 TRM41249.00 NONE                                   ANT # / TYPE
  -755502.5561 -5526094.4507  3083674.0252                  APPROX POSITION XYZ
        2.0000        0.0000        0.0000                  ANTENNA: DELTA H/E/N
     1     1                                                WAVELENGTH FACT L1/2
     5    L1    L2    C1    P1    P2                        # / TYPES OF OBSERV
    15                                                      LEAP SECONDS
  2011     8    15     0     0    0.0000000     GPS         TIME OF FIRST OBS
                                                            END OF HEADER
 11  8 15  0  0  0.0000000  0  9G10G12G28G17G05G27G04G09G02
 111984652.256 8  87260825.18546  21309942.328                    21309950.719
 118575589.133 7  92396625.988 7  22564189.234                    22564197.152
 125219921.199 6  97574035.34243  23828572.508                    23828583.012
 117803608.673 7  91795087.275 7  22417273.891                    22417281.699
 123924639.256 7  96564714.265 6  23582071.148                    23582081.219
 120845755.417 7  94165592.94944  22996185.938                    22996195.648
 108282122.507 8  84375820.56446  20605385.844                    20605394.195
 118852838.444 7  92612667.49845  22616947.602                    22616956.574
 109408792.642 8  85253660.36546  20819777.563                    20819783.266
 11  8 15  0  0 30.0000000  0  9G10G12G28G17G05G27G04G09G02
 111934925.075 8  87222076.76346  21300479.125                    21300487.355
 118489539.189 7  92329574.108 7  22547814.445                    22547822.355
 125316620.712 7  97649385.50043  23846974.195                    23846983.973
 117846273.456 7  91828332.529 7  22425393.031                    22425400.797
 123819456.295 7  96482753.648 6  23562055.563                    23562065.328
 120894892.090 7  94203881.22944  23005536.078                    23005546.070
 108339497.025 8  84420527.96246  20616303.719                    20616311.738
 118907594.564 7  92655334.55144  22627367.109                    22627376.555
 109380742.785 8  85231803.35846  20814439.930                    20814445.738
 11  8 15  0  1  0.0000000  0  9G10G12G28G17G05G27G04G09G02
 111885711.159 8  87183728.27745  21291114.250                    21291122.422
 118403717.487 7  92262700.067 7  22531483.094                    22531491.715
 125413559.149 6  97724921.87143  23865421.625                    23865430.895
 117889047.843 7  91861663.194 7  22433533.086                    22433540.727
 123714331.366 7  96400838.282 6  23542050.422                    23542061.121
 120944314.732 7  94242392.30544  23014941.461                    23014951.230
 108397199.313 8  84465490.76146  20627284.125                    20627292.063
 118962783.176 7  92698338.61244  22637869.211                    22637878.859
 109353053.570 8  85210227.36746  20809170.805                    20809176.414
 11  8 15  0  1 30.0000000  0  9G10G12G28G17G05G27G04G09G02
 111837012.794 8  87145781.52546  21281847.070                    21281855.379
 118318126.801 7  92196006.052 7  22515195.930                    22515203.816
 125510734.830 6  97800643.10343  23883912.438                    23883922.250
 117931932.517 7  91895079.804 7  22441693.305                    22441700.934
 123609267.401 7  96318970.416 6  23522057.391                    23522067.887
 120994020.840 7  94281124.29444  23024400.250                    23024409.805
 108455227.442 8  84510707.46046  20638326.570                    20638335.055
 119018401.378 7  92741677.42844  22648453.469                    22648462.363
 109325724.530 8  85188932.03846  20803970.008                    20803975.898
 11  8 15  0  2  0.0000000  0  9G10G12G28G17G05G27G04G09G02
 111788831.938 8  87108238.02946  21272678.516                    21272686.605
 118232769.357 7  92129493.767 7  22498952.797                    22498960.836
 125608145.700 6  97876547.53542  23902449.438                    23902458.906
 117974927.642 7  91928582.485 7  22449874.766                    22449883.266
 123504266.735 7  96237151.858 6  23502076.453                    23502087.445
 121044007.693 7  94320075.03044  23033912.211                    23033922.055
 108513578.403 8  84556175.71946  20649430.508                    20649438.527
 119074445.832 7  92785348.39944  22659118.117                    22659127.625
 109298754.779 8  85167916.68046  20798837.914                    20798843.898
 11  8 15  0  2 30.0000000  0  9G10G12G28G17G05G27G04G09G02
 111741171.167 8  87071099.78746  21263609.297                    21263617.672
 118147647.949 7  92063165.426 7  22482755.109                    22482763.063
 125705789.690 6  97952633.62642  23921030.828                    23921040.551
 118018033.937 7  91962171.784 7  22458077.641                    22458085.656
 123399332.803 7  96155385.302 7  23482108.039                    23482118.559
 121094272.878 7  94359242.64244  23043476.922                    23043487.586
 108572250.074 8  84601893.88046  20660595.406                    20660603.180
 119130913.851 7  92829349.39644  22669863.352                    22669872.816
 109272144.136 8  85147181.13846  20793773.727                    20793779.875
 11  8 15  0  3  0.0000000  0  9G10G12G28G17G05G27G04G09G02
 111694032.678 8  87034368.52945  21254639.313                    21254647.098
 118062765.081 7  91997022.951 7  22466602.086                    22466610.156
 125803664.869 6  98028899.92442  23939655.703                    23939664.879
 118061251.809 7  91995848.034 7  22466302.125                    22466310.125
 123294468.090 7  96073672.690 6  23462153.211                    23462162.805
 121144813.480 7  94398624.87044  23053095.125                    23053104.961
 108631239.847 8  84647859.91746  20671820.570                    20671828.855
 119187801.560 7  92873677.43544  22680688.969                    22680698.449
 109245891.667 8  85126724.69146  20788778.328                    20788784.203
 11  8 15  0  3 30.0000000  0  9G10G12G28G17G05G27G04G09G02
 111647418.957 8  86998046.17146  21245768.688                    21245776.680
 117978123.205 7  91931068.258 7  22450495.273                    22450502.883
 125901769.269 6  98105344.77243  23958324.664                    23958334.406
 118104581.829 7  92029611.663 7  22474547.531                    22474555.273
 123189675.531 7  95992016.276 6  23442211.914                    23442221.484
 121195627.070 7  94438219.81644  23062764.953                    23062774.988
 108690545.280 8  84694071.92446  20683106.258                    20683113.922
 119245106.186 7  92918330.35744  22691593.852                    22691602.918
 109219996.910 8  85106546.98846  20783850.492                    20783856.309
 11  8 15  0  4  0.0000000  0  9G10G12G28G17G05G27G04G09G02
 111601333.126 8  86962135.16245  21236998.984                    21237006.949
 117893725.362 8  91865303.731 7  22434434.992                    22434442.273
 126000101.573 6  98181967.23143  23977037.430                    23977046.887
 118148025.000 7  92063463.472 7  22482814.531                    22482821.852
 123084958.543 7  95910418.800 6  23422284.297                    23422294.863
 121246711.710 7  94478025.96544  23072485.570                    23072495.887
 108750164.755 8  84740528.63846  20694451.500                    20694459.086
 119302825.523 7  92963306.41344  22702577.320                    22702587.066
 109194460.273 8  85086648.34146  20778991.117                    20778996.699
 11  8 15  0  4 30.0000000  0  9G10G12G28G17G05G27G04G09G02
 111555776.984 8  86926636.89245  21228329.797                    21228338.117
 117809574.035 7  91799731.288 7  22418421.617                    22418429.336
 126098659.718 6  98258765.65343  23995792.109                    23995802.375
 118191581.705 7  92097403.725 7  22491103.016                    22491110.844
 122980320.009 7  95828882.420 6  23402372.273                    23402382.652
 121298064.490 7  94518041.06544  23082258.094                    23082268.594
 108810095.526 8  84787227.91946  20705856.070                    20705864.051
 119360956.054 7  93008602.89944  22713639.141                    22713648.691
 109169280.939 8  85067028.10646  20774199.773                    20774205.402
 11  8 15  0  5  0.0000000  0  9G10G12G28G17G05G27G04G09G02
 111510752.448 8  86891552.86546  21219761.836                    21219769.941
 117725671.584 8  91734352.780 7  22402455.430                    22402462.680
 126197441.692 6  98335738.50143  24014589.969                    24014599.707
 118235252.558 7  92131432.951 7  22499412.992                    22499421.059
 122875762.346 7  95747409.052 6  23382475.711                    23382485.391
 121349682.906 7  94558263.14944  23092080.906                    23092090.434
 108870334.910 8  84834167.68546  20717319.000                    20717326.758
 119419494.313 7  93054217.09344  22724778.781                    22724788.301
 109144457.978 8  85047685.55746  20769476.023                    20769481.789
 11  8 15  0  5 30.0000000  0  9G10G12G28G17G05G27G04G09G02
 111466261.945 8  86856884.95645  21211295.469                    21211303.230
 117642020.696 8  91669170.295 7  22386537.344                    22386544.727
 126296445.270 6  98412884.00943  24033429.422                    24033439.918
 118279037.793 7  92165551.296 7  22507745.328                    22507753.145
 122771288.502 7  95666000.973 6  23362595.102                    23362604.188
 121401564.278 7  94598690.13544  23101953.484                    23101963.457
 108930880.812 8  84881346.28646  20728840.883                    20728848.512
 119478437.226 7  93100146.57844  22735995.648                    22736005.219
 109119990.991 8  85028620.38546  20764820.023                    20764826.105
 11  8 15  0  6  0.0000000  0  9G10G12G28G17G05G27G04G09G02
 111422307.574 8  86822634.81346  21202931.367                    21202939.578
 117558623.569 7  91604185.551 7  22370667.156                    22370674.945
 126395668.918 6  98490201.03543  24052311.469                    24052321.699
 118322937.983 7  92199759.207 7  22516099.391                    22516107.117
 122666901.846 7  95584660.837 6  23342730.438                    23342740.578
 121453706.087 7  94639320.05844  23111875.992                    23111885.879
 108991730.811 8  84928761.85546  20740420.023                    20740428.332
 119537781.751 7  93146389.03544  22747288.672                    22747297.617
 109095879.162 8  85009831.96846  20760231.844                    20760237.637
 11  8 15  0  6 30.0000000  0  9G10G12G28G17G05G27G04G09G02
 111378891.687 8  86788804.28746  21194669.430                    21194677.805
 117475483.114 8  91539400.825 7  22354845.758                    22354853.563
 126495110.799 6  98567688.12043  24071234.070                    24071244.480
 118366954.248 7  92234057.570 7  22524475.109                    22524483.449
 122562604.524 7  95503390.335 6  23322883.344                    23322893.082
 121506106.014 7  94680151.09044  23121846.875                    23121857.309
 109052882.509 8  84976412.51546  20752056.633                    20752064.863
 119597524.824 7  93192942.03444  22758657.641                    22758666.324
 109072122.527 8  84991320.32046  20755711.227                    20755716.746
 11  8 15  0  7  0.0000000  0  9G10G12G28G17G05G27G04G09G02
 111336016.444 8  86755395.02546  21186510.680                    21186518.816
 117392601.696 8  91474817.949 7  22339073.945                    22339081.969
 126594768.420 6  98645343.27743  24090198.891                    24090209.477
 118411086.492 7  92268446.296 7  22532873.398                    22532881.457
 122458400.095 7  95422192.175 6  23303053.617                    23303063.516
 121558761.216 7  94721181.05144  23131867.484                    23131877.164
 109114333.286 8  85024296.21146  20763750.461                    20763758.445
 119657663.395 7  93239803.20944  22770101.484                    22770110.895
 109048719.844 8  84973084.47646  20751257.820                    20751263.539
 11  8 15  0  7 30.0000000  0  9G10G12G28G17G05G27G04G09G02
 111293684.514 8  86722409.12546  21178454.977                    21178463.109
 117309982.481 8  91410439.376 7  22323352.727                    22323359.719
 126694640.292 6  98723165.40243  24109204.180                    24109214.273
 118455335.767 7  92302926.226 7  22541293.852                    22541301.797
 122354292.078 7  95341069.145 6  23283242.313                    23283252.473
 121611669.616 7  94762408.31344  23141935.805                    23141945.613
 109176081.461 8  85072411.66346  20775500.914                    20775508.906
 119718194.467 7  93286970.24244  22781620.266                    22781629.391
 109025671.261 8  84955124.56346  20746871.484                    20746877.715
 11  8 15  0  8  0.0000000  0  9G10G12G28G17G05G27G04G09G02
 111251897.736 8  86689848.02245  21170503.422                    21170511.238
 117227627.537 7  91346266.737 7  22307680.797                    22307688.113
 126794724.460 6  98801152.94743  24128249.586                    24128259.840
 118499702.595 7  92337497.736 7  22549736.984                    22549745.047
 122250282.254 7  95260022.651 6  23263450.328                    23263460.070
 121664828.037 7  94803830.38044  23152051.141                    23152061.441
 109238124.239 8  85120756.65546  20787307.227                    20787315.086
 119779114.686 7  93334440.50044  22793212.445                    22793222.559
 109002975.723 8  84937439.74346  20742552.859                    20742558.527
 11  8 15  0  8 30.0000000  0  9G10G12G28G17G05G27G04G09G02
 111210658.414 8  86657713.50446  21162655.563                    21162664.098
 117145539.837 7  91282302.339 7  22292059.953                    22292067.371
 126895018.821 6  98879304.29143  24147334.508                    24147345.379
 118544187.270 7  92372161.086 7  22558201.789                    22558209.324
 122146374.143 7  95179055.382 6  23243676.523                    23243686.930
 121718234.007 7  94845445.34544  23162213.984                    23162224.418
 109300459.306 8  85169329.42046  20799168.922                    20799176.922
 119840421.060 7  93382211.64944  22804878.984                    22804888.680
 108980632.748 8  84920029.65046  20738301.023                    20738306.816
 11  8 15  0  9  0.0000000  0  9G10G12G28G17G05G27G04G09G02
 111169967.766 8  86626006.51746  21154912.461                    21154920.863
 117063721.184 8  91218547.587 7  22276490.188                    22276497.465
 126995520.775 6  98957617.36543  24166459.609                    24166469.969
 118588790.362 8  92406916.703 7  22566689.836                    22566697.141
 122042570.443 7  95098169.488 6  23223923.930                    23223933.461
 121771884.374 7  94887250.74444  23172423.453                    23172433.453
 109363083.667 8  85218127.61646  20811086.000                    20811094.270
 119902110.007 7  93430280.91144  22816617.563                    22816627.441
 108958641.341 8  84902893.49946  20734116.242                    20734121.566
 11  8 15  0  9 30.0000000  0  9G10G12G28G17G05G27G04G09G02
 111129828.619 8  86594729.27846  21147274.430                    21147282.367
 116982174.604 8  91155004.836 7  22260972.320                    22260979.660
 127096229.125 6  99036091.30543  24185623.469                    24185634.836
 118633512.639 7  92441765.179 7  22575200.234                    22575207.711
 121938874.051 7  95017367.246 6  23204190.891                    23204200.684
 121825777.121 7  94929245.03444  23182678.984                    23182689.211
 109425995.712 8  85267149.96146  20823058.055                    20823066.332
 119964178.548 7  93478645.95744  22828428.992                    22828438.648
 108937001.223 8  84886031.07446  20729998.180                    20730003.898
 11  8 15  0 10  0.0000000  0  9G10G12G28G17G05G27G04G09G02
 111090242.853 8  86563883.25546  21139741.164                    21139749.535
 116900902.901 8  91091676.266 7  22245506.961                    22245514.633
 127197141.864 6  99114724.46443  24204827.102                    24204838.293
 118678354.823 7  92476707.095 7  22583732.844                    22583741.129
 121835288.260 7  94936651.135 7  23184479.313                    23184489.172
 121879909.881 7  94971426.31544  23192980.086                    23192990.309
 109489192.968 8  85316394.56446  20835084.172                    20835092.109
 120026623.503 7  93527304.29744  22840312.352                    22840321.777
 108915711.883 8  84869441.98846  20725947.063                    20725952.895
 11  8 15  0 10 30.0000000  0  9G10G12G28G17G05G27G04G09G02
 111051212.661 8  86533470.14246  21132314.047                    21132322.246
 116819908.331 8  91028563.662 7  22230094.258                    22230101.699
 127298256.887 6  99193515.29443  24224068.453                    24224078.938
 118723317.289 7  92511742.742 7  22592288.914                    22592297.109
 121731815.785 7  94856023.344 6  23164788.984                    23164798.977
 121934279.719 7  95013792.35244  23203325.945                    23203336.512
 109552673.015 8  85365859.51746  20847164.078                    20847171.719
 120089441.924 7  93576253.68345  22852266.313                    22852275.367
 108894772.487 8  84853125.58646  20721962.133                    20721968.109
 11  8 15  0 11  0.0000000  0  9G10G12G28G17G05G27G04G09G02
 111012740.216 8  86503491.62646  21124992.828                    21125001.074
 116739193.580 8  90965669.076 7  22214734.641                    22214742.055
 127399572.137 6  99272462.10343  24243348.484                    24243358.953
 118768401.048 7  92546872.897 7  22600868.250                    22600876.734
 121628459.661 7  94775486.196 7  23145120.984                    23145130.453
 121988883.997 7  95056341.06844  23213717.250                    23213727.613
 109616433.447 8  85415542.94846  20859296.836                    20859305.027
 120152630.331 7  93625491.34445  22864290.516                    22864299.945
 108874182.438 8  84837081.40346  20718044.563                    20718049.758
 11  8 15  0 11 30.0000000  0  9G10G12G28G17G05G27G04G09G02
 110974827.120 8  86473948.97146  21117778.578                    21117786.449
 116658761.304 7  90902994.601 7  22199428.797                    22199436.484
 127501085.679 6  99351563.52442  24262665.047                    24262676.816
 118813606.145 7  92582097.596 7  22609470.797                    22609478.973
 121525222.713 7  94695041.941 7  23125475.328                    23125485.219
 122043719.906 6  95099070.28044  23224151.938                    23224162.406
 109680471.855 8  85465442.99146  20871483.375                    20871490.848
 120216185.366 7  93675014.68044  22876384.680                    22876394.348
 108853940.961 8  84821308.84046  20714192.391                    20714197.629
 11  8 15  0 12  0.0000000  0  9G10G12G28G17G05G27G04G09G02
 110937476.038 8  86444844.25146  21110670.711                    21110678.605
 116578614.284 8  90840542.397 7  22184177.477                    22184185.203
 127602795.834 6  99430818.08542  24282020.609                    24282031.293
 118858933.415 7  92617417.508 7  22618096.141                    22618103.980
 121422108.359 7  94614693.199 7  23105853.203                    23105862.734
 122098785.612 7  95141978.55244  23234630.953                    23234640.371
 109744786.519 8  85515558.29446  20883721.727                    20883729.813
 120280104.306 7  93724821.58645  22888548.195                    22888557.785
 108834047.934 8  84805807.78146  20710406.656                    20710412.250
 11  8 15  0 12 30.0000000  0  9G10G12G28G17G05G27G04G09G02
 110900687.856 8  86416178.16246  21103670.008                    21103678.023
 116498754.984 8  90778314.398 7  22168980.445                    22168988.203
 127704700.354 6  99510224.09842  24301412.375                    24301422.680
 118904383.354 7  92652832.976 7  22626744.523                    22626753.168
 121319118.993 7  94534441.847 7  23086254.977                    23086264.898
 122154077.610 6  95185063.15944  23245152.852                    23245162.547
 109809374.549 8  85565886.60846  20896012.711                    20896020.836
 120344383.220 7  93774908.98444  22900780.070                    22900790.094
 108814502.165 8  84790577.32846  20706687.250                    20706692.668
 11  8 15  0 13  0.0000000  0  9G10G12G28G17G05G27G04G09G02
 110864465.020 8  86387952.59246  21096776.828                    21096785.426
 116419186.189 8  90716312.748 7  22153839.328                    22153846.563
 127806796.987 6  99589779.84142  24320840.445                    24320851.738
 118949956.825 7  92688344.714 7  22635417.055                    22635425.559
 121216258.338 7  94454290.807 7  23066681.117                    23066690.504
 122209593.944 7  95228322.58744  23255717.453                    23255727.234
 109874233.652 8  85616426.15046  20908354.969                    20908362.672
 120409019.503 7  93825274.85245  22913080.359                    22913089.543
 108795303.269 8  84775617.17046  20703033.813                    20703039.605
 11  8 15  0 13 30.0000000  0  9G10G12G30G17G05G27G04G09G02
 110828809.836 8  86360169.34546  21089992.148                    21090000.063
 116339910.236 8  90654539.294 7  22138753.477                    22138761.160
 127979009.45916  99723964.64053  24353602.742                    24353611.980
 118995654.530 7  92723953.264 7  22644113.227                    22644121.211
 121113529.116 7  94374242.156 7  23047132.258                    23047141.840
 122265331.713 7  95271754.53644  23266323.773                    23266333.750
 109939361.675 8  85667175.23546  20920748.102                    20920756.484
 120474009.789 7  93875916.56845  22925447.641                    22925456.762
 108776450.407 8  84760926.63846  20699446.320                    20699451.918
 11  8 15  0 14  0.0000000  0  9G10G12G30G17G05G27G04G09G02
 110793723.810 8  86332829.59846  21083315.383                    21083323.590
 116260929.714 8  90592996.047 7  22123723.703                    22123731.586
 127872716.451 5  99641138.96943  24333375.555                    24333385.156
 119041476.710 7  92759658.803 7  22652833.500                    22652840.934
 121010933.736 7  94294297.818 7  23027608.766                    23027618.852
 122321288.051 7  95315356.79144  23276972.305                    23276982.246
 110004756.003 8  85718131.82346  20933192.195                    20933200.582
 120539350.586 7  93926831.42144  22937881.289                    22937890.566
 108757942.788 8  84746505.13046  20695924.398                    20695930.348
 11  8 15  0 14 30.0000000  0  9G10G12G30G17G05G27G04G09G02
 110759208.952 8  86305934.91846  21076747.742                    21076755.832
 116182247.512 8  90531685.246 7  22108751.336                    22108758.859
 127766575.663 6  99558431.91143  24313177.703                    24313187.121
 119087424.029 7  92795461.855 7  22661577.242                    22661584.785
 120908475.569 7  94214460.384 6  23008111.813                    23008120.930
 122377460.599 7  95359127.54444  23287661.234                    23287671.609
 110070414.564 8  85769294.32046  20945686.813                    20945694.922
 120605038.853 7  93978017.00744  22950381.070                    22950391.008
 108739779.975 8  84732352.30746  20692467.859                    20692473.883
 11  8 15  0 15  0.0000000  0  9G10G12G30G17G05G27G04G09G02
 110725266.599 8  86279486.34446  21070288.742                    21070296.559
 116103865.591 8  90470608.435 7  22093835.195                    22093843.359
 127660589.380 6  99475845.26743  24293009.484                    24293018.637
 119133497.089 7  92831362.905 7  22670343.797                    22670352.406
 120806157.290 7  94134731.951 7  22988641.156                    22988650.754
 122433846.273 7  95403064.37144  23298391.422                    23298401.375
 110136334.469 8  85820660.45846  20958231.125                    20958239.070
 120671070.744 7  94029470.35844  22962946.273                    22962956.813
 108721960.651 8  84718467.12946  20689077.375                    20689082.563
 11  8 15  0 15 30.0000000  0  9G10G12G30G17G05G27G04G09G02
 110691899.211 8  86253485.79646  21063939.141                    21063947.023
 116025787.272 7  90409768.208 7  22078977.602                    22078985.418
 127554760.845 5  99393381.52243  24272870.648                    24272880.723
 119179696.437 7  92867362.362 7  22679135.633                    22679144.125
 120703982.234 7  94055115.113 6  22969197.938                    22969207.160
 122490442.733 7  95447165.44644  23309161.695                    23309171.824
 110202513.928 8  85872228.85046  20970824.320                    20970832.949
 120737443.450 7  94081189.27944  22975577.164                    22975587.090
 108704484.830 8  84704849.63346  20685751.672                    20685757.508
 11  8 15  0 16  0.0000000  0  9G10G12G30G17G05G27G04G09G02
 110659107.811 8  86227934.07246  21057699.164                    21057707.176
 115948014.202 8  90349165.807 7  22064177.844                    22064185.535
 127449092.259 6  99311042.44643  24252762.078                    24252771.902
 119226022.624 7  92903460.647 7  22687951.352                    22687959.711
 120601952.969 7  93975611.859 7  22949782.188                    22949791.441
 122547246.763 7  95491428.24644  23319970.836                    23319981.039
 110268950.243 8  85923997.38746  20983467.117                    20983475.328
 120804153.372 7  94133170.97144  22988271.578                    22988281.395
 108687350.953 8  84691498.57946  20682490.898                    20682496.813
 11  8 15  0 16 30.0000000  0  9G10G12G30G17G05G27G04G09G02
 110626895.062 8  86202833.24246  21051568.930                    21051576.777
 115870549.842 8  90288803.978 7  22049436.836                    22049444.574
 127343586.924 6  99228830.58343  24232686.094                    24232695.195
 119272476.465 7  92939658.410 7  22696791.063                    22696799.340
 120500073.094 7  93896225.046 7  22930395.273                    22930404.617
 122604256.287 7  95535851.17544  23330819.734                    23330830.270
 110335641.510 8  85975964.58546  20996157.750                    20996166.051
 120871197.591 7  94185413.13844  23001029.672                    23001039.766
 108670558.939 8  84678413.90546  20679295.750                    20679301.555
 11  8 15  0 17  0.0000000  0  9G10G12G30G17G05G27G04G09G02
 110595262.132 8  86178184.21846  21045549.703                    21045557.688
 115793396.374 8  90228684.402 7  22034755.328                    22034762.715
 127238247.168 6  99146747.70043  24212640.250                    24212649.582
 119319058.329 7  92975955.927 7  22705655.438                    22705663.359
 120398345.141 7  93816956.614 6  22911037.000                    22911046.070
 122661468.239 7  95580431.83044  23341706.570                    23341717.480
 110402585.157 8  86028128.44546  21008897.156                    21008905.184
 120938572.633 7  94237913.10244  23013851.023                    23013860.613
 108654107.685 8  84665594.76646  20676165.086                    20676170.773
 11  8 15  0 17 30.0000000  0  9G10G12G30G17G05G27G04G09G02
 110564210.472 8  86153988.13346  21039640.578                    21039648.520
 115716556.361 8  90168809.071 7  22020133.102                    22020140.344
 127133075.417 6  99064795.73643  24192626.633                    24192636.121
 119365768.547 7  93012353.462 7  22714544.117                    22714552.301
 120296771.792 7  93737808.632 7  22891707.992                    22891717.051
 122718879.781 7  95625167.99444  23352631.500                    23352642.230
 110469778.560 8  86080486.93046  21021683.266                    21021691.656
 121006274.916 7  94290668.06344  23026734.148                    23026743.801
 108637996.094 8  84653040.28846  20673099.219                    20673104.992
 11  8 15  0 18  0.0000000  0  9G10G12G30G17G05G27G04G09G02
 110533742.376 8  86130246.78246  21033842.648                    21033850.301
 115640032.411 7  90109180.026 7  22005570.961                    22005579.109
 127028074.966 6  98982977.30843  24172645.445                    24172655.285
 119412608.315 7  93048851.966 7  22723457.438                    22723465.539
 120195356.532 7  93658783.843 7  22872409.141                    22872418.648
 122776488.640 6  95670057.92744  23363594.422                    23363605.012
 110537219.936 8  86133038.64046  21034516.820                    21034525.324
 121074301.686 7  94343675.86444  23039679.367                    23039689.012
 108622224.068 8  84640750.41346  20670098.039                    20670103.133
 11  8 15  0 18 30.0000000  0  9G10G12G30G17G05G27G04G09G02
 110503858.961 8  86106961.01946  21028155.594                    21028163.824
 115563827.081 8  90049799.269 7  21991069.578                    21991077.074
 126923248.189 6  98901294.16643  24152698.039                    24152706.848
 119459577.834 7  93085451.560 7  22732395.102                    22732403.027
 120094102.243 7  93579884.472 6  22853141.188                    22853150.320
 122834291.755 7  95715099.22844  23374594.266                    23374604.320
 110604906.605 8  86185781.47346  21047397.352                    21047405.750
 121142648.841 7  94396933.33244  23052685.672                    23052695.172
 108606790.123 8  84628723.97546  20667161.227                    20667166.559
 11  8 15  0 19  0.0000000  0  9G10G12G30G17G05G27G04G09G02
 110474562.208 8  86084132.39546  21022580.969                    21022588.953
 115487943.048 8  89990668.859 7  21976629.570                    21976637.152
 126818598.252 6  98819748.83743  24132782.789                    24132792.832
 119506678.009 7  93122152.981 7  22741358.359                    22741366.715
 119993011.791 7  93501112.779 7  22833904.023                    22833913.914
 122892286.792 7  95760290.07644  23385630.008                    23385641.113
 110672836.791 8  86238714.07546  21060324.055                    21060332.301
 121211313.602 7  94450438.27244  23065752.117                    23065761.973
 108591694.138 8  84616960.88946  20664288.430                    20664294.105
 11  8 15  0 19 30.0000000  0  9G10G12G30G17G05G27G04G09G02
 110445853.594 8  86061762.06546  21017118.078                    21017125.902
 115412383.067 8  89931790.968 7  21962250.828                    21962258.391
 126714127.618 6  98738343.18143  24112902.922                    24112912.598
 119553909.311 7  93158956.568 7  22750346.172                    22750354.309
 119892088.383 7  93422471.243 7  22814698.813                    22814708.410
 122950470.957 6  95805628.27944  23396702.820                    23396712.676
 110741007.619 8  86291834.18346  21073296.781                    21073305.273
 121280292.470 7  94504187.98444  23078878.234                    23078887.434
 108576935.215 8  84605460.44246  20661479.898                    20661485.559
 11  8 15  0 20  0.0000000  0  9G10G12G30G17G05G27G04G09G02
 110417733.780 8  86039850.54046  21011767.023                    21011774.738
 115337148.719 8  89873166.824 7  21947934.039                    21947942.156
 126609838.125 6  98657078.72443  24093057.539                    24093066.742
 119601271.600 7  93195862.233 7  22759358.844                    22759367.078
 119791334.236 7  93343961.608 7  22795526.703                    22795535.484
 123008840.564 7  95851110.98544  23407809.344                    23407819.961
 110809416.319 8  86345139.65346  21086314.391                    21086322.613
 121349581.291 7  94558179.21644  23092063.969                    23092073.652
 108562510.864 8  84594220.68846  20658734.898                    20658740.395
 11  8 15  0 20 30.0000000  0  9G10G12G30G17G05G27G04G09G02
 110390205.526 8  86018399.97246  21006528.953                    21006536.703
 115262243.643 8  89814799.238 7  21933680.188                    21933687.453
 126505733.985 6  98575958.60943  24073247.656                    24073256.074
 119648766.561 7  93232871.259 6  22768397.125                    22768405.164
 119690753.330 7  93265586.971 7  22776385.688                    22776395.602
 123067394.093 6  95896737.02244  23418951.938                    23418962.836
 110878061.624 8  86398629.49246  21099377.234                    21099385.520
 121419177.911 7  94612410.28544  23105308.102                    23105317.680
 108548422.435 8  84583242.70046  20656053.766                    20656059.578
 11  8 15  0 21  0.0000000  0  9G10G12G30G17G05G27G04G09G02
 110363270.262 8  85997411.48446  21001402.695                    21001410.527
 115187670.402 7  89756690.231 7  21919489.336                    21919497.008
 126401817.687 6  98494984.89442  24053472.211                    24053480.551
 119696394.624 7  93269983.990 7  22777460.148                    22777468.441
 119590348.648 7  93187349.624 7  22757279.773                    22757288.969
 123126128.658 6  95942504.11844  23430128.930                    23430139.711
 110946941.284 8  86452301.95346  21112484.578                    21112492.414
 121489078.970 7  94666878.57644  23118609.359                    23118618.863
 108534668.901 8  84572525.67146  20653436.781                    20653442.082
 11  8 15  0 21 30.0000000  0  9G10G12G30G17G05G27G04G09G02
 110336929.646 8  85976886.35346  20996390.258                    20996398.527
 115113431.761 7  89698841.955 7  21905362.117                    21905369.789
 126298091.793 6  98414159.51842  24033733.461                    24033742.375
 119744156.240 7  93307200.792 7  22786549.555                    22786557.340
 119490122.803 7  93109251.656 7  22738207.180                    22738216.574
 123185041.682 7  95988410.27243  23441339.188                    23441350.184
 111016052.845 8  86506155.10446  21125635.969                    21125644.102
 121559280.986 7  94721581.40844  23131968.289                    23131978.375
 108521249.369 8  84562068.89646  20650883.008                    20650888.590
 11  8 15  0 22  0.0000000  0  9G10G12G30G17G05G27G04G09G02
 110311183.797 8  85956824.67146  20991490.977                    20991499.020
 115039528.936 8  89641255.360 7  21891298.602                    21891306.516
 126194558.437 6  98333484.24342  24014033.648                    24014040.797
 119792051.380 7  93344521.662 7  22795662.773                    22795671.824
 119390078.079 7  93031294.807 7  22719169.625                    22719178.551
 123244129.415 7  96034452.57343  23452583.898                    23452594.328
 111085393.120 8  86560186.48846  21138831.148                    21138839.141
 121629780.030 7  94776515.66244  23145383.938                    23145393.539
 108508161.578 8  84551870.61246  20648392.719                    20648397.570
 11  8 15  0 22 30.0000000  0  9G10G12G30G17G05G27G04G09G02
 110286035.580 8  85937228.67246  20986705.406                    20986713.605
 114965965.510 7  89583933.228 7  21877300.422                    21877307.785
 126091221.391 6  98252961.87843  23994368.078                    23994376.398
 119840081.606 7  93381947.778 7  22804803.039                    22804811.527
 119290218.499 7  92953482.224 7  22700166.797                    22700175.441
 123303390.199 7  96080629.73144  23463861.172                    23463871.602
 111154960.774 8  86614395.03746  21152069.711                    21152077.461
 121700573.362 7  94831679.22844  23158855.617                    23158865.375
 108495406.012 8  84541931.21346  20645965.297                    20645970.406
 11  8 15  0 23  0.0000000  0  9G10G12G30G17G05G27G04G09G02
 110261486.028 8  85918099.16746  20982033.672                    20982041.836
 114892744.041 8  89526877.559 7  21863366.430                    21863373.992
 125988082.906 6  98172594.28343  23974740.852                    23974750.465
 119888246.823 7  93419479.056 7  22813968.180                    22813976.965
 119190546.811 7  92875816.037 7  22681199.875                    22681208.730
 123362820.774 7  96126939.18644  23475170.625                    23475180.727
 111224753.142 8  86668778.69746  21165350.313                    21165358.559
 121771657.229 7  94887069.20244  23172382.484                    23172392.152
 108482981.286 8  84532249.60946  20643601.211                    20643606.625
 11  8 15  0 23 30.0000000  0  9G10G12G30G17G05G27G04G09G02
 110237536.079 8  85899436.88546  20977476.359                    20977484.480
 114819866.835 8  89470090.142 7  21849498.664                    21849506.242
 125885145.781 6  98092383.57843  23955153.242                    23955161.980
 119936547.947 7  93457116.252 7  22823160.000                    22823168.773
 119091065.539 7  92798298.243 7  22662269.188                    22662278.070
 123422418.456 7  96173378.87643  23486511.695                    23486521.383
 111294768.007 8  86723335.73346  21178674.008                    21178681.773
 121843027.935 7  94942682.68444  23185964.039                    23185973.945
 108470886.333 8  84522824.97346  20641299.461                    20641304.805
 11  8 15  0 24  0.0000000  0  9G10G12G30G17G05G27G04G09G02
 110214187.765 8  85881243.41246  20973033.094                    20973040.910
 114747336.669 8  89413573.146 7  21835696.430                    21835703.875
 125782413.303 6  98012332.35343  23935603.297                    23935612.488
 119984985.723 7  93494859.928 7  22832377.898                    22832385.805
 118991778.712 7  92720931.955 7  22643375.570                    22643384.227
 123482181.020 7  96219947.02144  23497884.773                    23497894.109
 111365003.523 8  86778064.69546  21192039.281                    21192047.938
 121914682.883 7  94998517.63544  23199599.414                    23199609.441
 108459121.105 8  84513657.26546  20639060.414                    20639065.887
 11  8 15  0 24 30.0000000  0  9G10G12G30G17G05G27G04G09G02
 110191441.652 8  85863519.17746  20968704.953                    20968712.785
 114675155.802 8  89357328.345 7  21821960.906                    21821968.680
 125679887.536 6  97932442.21043  23916093.609                    23916102.598
 120033560.246 7  93532710.154 7  22841621.016                    22841629.328
 118892688.281 7  92643718.699 7  22624518.953                    22624528.152
 123542104.892 7  96266640.86744  23509287.422                    23509297.781
 111435456.819 8  86832963.36046  21205446.055                    21205454.270
 121986618.099 7  95054570.99144  23213288.125                    23213298.090
 108447683.838 8  84504745.10646  20636883.828                    20636889.594
 11  8 15  0 25  0.0000000  0  9G10G12G30G17G05G27G04G09G02
 110169299.899 8  85846265.88146  20964491.539                    20964499.402
 114603326.791 8  89301357.699 7  21808292.328                    21808299.832
 125577571.848 7  97852715.73344  23896623.469                    23896632.648
 120082272.614 7  93570667.788 7  22850890.570                    22850899.164
 118793797.519 7  92566661.032 7  22605700.664                    22605709.590
 123602188.049 7  96313458.85944  23520721.250                    23520730.785
 111506126.194 8  86888030.39446  21218893.969                    21218902.336
 122058830.626 7  95110840.42244  23227029.820                    23227040.141
 108436574.207 8  84496088.25646  20634769.836                    20634775.172
 11  8 15  0 25 30.0000000  0  9G10G12G30G17G05G27G04G09G02
 110147763.131 8  85829483.98946  20960392.906                    20960401.125
 114531852.280 8  89245663.289 7  21794691.367                    21794699.035
 125475468.714 6  97773154.90644  23877193.984                    23877202.695
 120131123.144 7  93608733.097 7  22860187.117                    22860195.051
 118695109.309 7  92489761.189 7  22586921.055                    22586929.988
 123662427.256 7  96360398.41444  23532184.016                    23532194.906
 111577009.019 8  86943263.74846  21232382.578                    21232390.879
 122131316.557 7  95167322.90244  23240823.344                    23240833.770
 108425790.842 8  84487685.63546  20632717.750                    20632723.090
 11  8 15  0 26  0.0000000  0  9G10G12G30G17G05G27G04G09G02
 110126832.970 8  85813174.78146  20956409.914                    20956417.902
 114460734.969 8  89190247.222 7  21781157.820                    21781165.402
 125373581.096 7  97693762.03244  23857805.406                    23857814.383
 120180112.601 7  93646906.655 7  22869509.625                    22869517.227
 118596627.126 7  92413021.900 7  22568180.469                    22568189.336
 123722819.894 7  96407457.55844  23543676.242                    23543686.469
 111648103.174 8  86998661.77746  21245911.266                    21245919.473
 122204072.704 7  95224015.92444  23254668.094                    23254678.777
 108415333.078 8  84479536.72646  20630727.992                    20630733.512
 11  8 15  0 26 30.0000000  0 10G10G12G30G17G05G27G04G09G02G25
 110106510.549 8  85797339.14246  20952542.984                    20952550.633
 114389977.443 8  89135111.506 7  21767693.203                    21767700.543
 125271912.011 7  97614539.40544  23838458.188                    23838467.359
 120229241.662 7  93685188.991 7  22878857.773                    22878866.598
 118498353.619 7  92336445.200 7  22549479.188                    22549488.727
 123783363.383 7  96454634.20944  23555197.797                    23555208.324
 111719406.657 8  87054222.91546  21259480.000                    21259488.082
 122277095.930 7  95280917.06544  23268564.383                    23268574.695
 108405200.334 8  84471641.09146  20628799.781                    20628805.211
 129603973.57416 100989953.21816  24662772.836                    24662783.336
 11  8 15  0 27  0.0000000  0 10G10G12G30G17G05G27G04G09G02G25
 110086795.788 8  85781976.99646  20948791.375                    20948799.574
 114319581.135 8  89080257.253 7  21754297.539                    21754304.738
 125170463.032 7  97535488.30744  23819153.125                    23819162.578
 120278509.828 7  93723579.740 7  22888233.211                    22888242.031
 118400290.899 7  92260032.763 7  22530818.945                    22530827.875
 123844053.868 7  96501925.42344  23566745.961                    23566757.277
 111790916.182 8  87109944.60146  21273087.820                    21273096.164
 122350381.666 7  95338022.76944  23282510.219                    23282520.742
 108395390.541 8  84463997.09546  20626932.930                    20626938.152
 129500652.048 6 100909442.998 6  24643110.766                    24643122.176
 11  8 15  0 27 30.0000000  0 10G10G12G30G17G05G27G04G09G02G25
 110067690.788 8  85767090.00046  20945155.500                    20945163.691
 114249549.143 8  89025686.888 7  21740971.180                    21740978.035
 125069237.782 6  97456611.54143  23799890.742                    23799899.660
 120327918.381 7  93762079.872 7  22897636.281                    22897643.906
 118302442.630 7  92183787.419 7  22512198.906                    22512207.406
 123904889.522 7  96549329.75244  23578323.398                    23578333.766
 111862630.217 8  87165825.64246  21286734.578                    21286743.102
 122423927.586 7  95395331.20544  23296505.664                    23296515.520
 108385903.392 8  84456604.51546  20625127.461                    20625133.043
 129397435.026 6 100829014.231 6  24623469.109                    24623481.113
 11  8 15  0 28  0.0000000  0 10G10G12G30G17G05G27G04G09G02G25
 110049197.407 8  85752679.57246  20941636.320                    20941644.422
 114179884.472 8  88971402.742 7  21727714.063                    21727721.699
 124968239.558 6  97377911.68743  23780671.016                    23780680.168
 120377468.434 7  93800690.265 6  22907064.859                    22907073.086
 118204812.362 7  92107711.961 7  22493620.008                    22493629.289
 123965868.068 7  96596845.44344  23589926.719                    23589937.750
 111934547.050 8  87221864.70946  21300419.992                    21300428.004
 122497730.436 7  95452839.84144  23310549.469                    23310560.227
 108376738.527 8  84449463.06446  20623383.625                    20623389.090
 129294325.295 6 100748669.065 6  24603847.977                    24603859.613
 11  8 15  0 28 30.0000000  0 10G10G12G30G17G05G27G04G09G02G25
 110031316.469 8  85738746.38346  20938233.992                    20938241.484
 114110589.496 8  88917406.665 7  21714527.617                    21714535.102
 124867470.997 6  97299390.74543  23761495.477                    23761504.227
 120427160.390 7  93839411.242 6  22916520.711                    22916529.215
 118107402.832 7  92031808.486 7  22475083.461                    22475092.957
 124026986.379 6  96644470.00844  23601557.203                    23601568.414
 112006664.098 8  87278059.79246  21314143.469                    21314151.559
 122571786.725 7  95510545.97744  23324642.328                    23324652.719
 108367894.623 8  84442571.72046  20621700.914                    20621706.391
 129191325.370 6 100668409.434 6  24584246.828                    24584259.273
 11  8 15  0 29  0.0000000  0 10G10G12G30G17G05G27G04G09G02G25
 110014048.922 8  85725291.16546  20934947.914                    20934955.965
 114041666.908 8  88863700.758 7  21701412.125                    21701419.227
 124766934.808 6  97221050.89543  23742364.016                    23742373.359
 120476994.926 7  93878243.317 7  22926004.023                    22926012.418
 118010216.958 7  91956079.307 7  22456589.961                    22456598.715
 124088241.565 6  96692201.22944  23613213.609                    23613224.805
 112078979.383 8  87334409.33945  21327904.570                    21327912.906
 122646092.834 7  95568446.75844  23338782.281                    23338792.902
 108359370.728 8  84435929.72646  20620078.453                    20620083.996
 129088437.475 6 100588237.153 6  24564668.961                    24564680.727
 11  8 15  0 29 30.0000000  0 10G10G12G30G17G05G27G04G09G02G25
 109997395.751 8  85712314.67146  20931779.148                    20931786.961
 113973118.936 8  88810286.753 7  21688367.742                    21688375.082
 124666633.832 6  97142894.33543  23723277.609                    23723286.121
 120526972.647 7  93917186.942 7  22935514.367                    22935523.027
 117913257.762 7  91880526.748 7  22438139.063                    22438147.941
 124149630.944 6  96740037.01644  23624895.852                    23624907.211
 112151490.582 8  87390911.54445  21341702.883                    21341710.652
 122720645.357 7  95626539.58244  23352969.242                    23352979.680
 108351165.980 8  84429536.42746  20618517.109                    20618522.844
 128985664.181 6 100508154.121 6  24545111.711                    24545123.816
 11  8 15  0 30  0.0000000  0 10G10G12G30G17G05G27G04G09G02G25
 109981357.956 8  85699817.70246  20928727.039                    20928735.148
 113904948.221 8  88757166.722 7  21675395.492                    21675402.363
 124566570.987 6  97064923.29343  23704236.445                    23704245.137
 120577093.782 7  93956242.335 6  22945052.500                    22945060.508
 117816528.112 7  91805153.043 7  22419731.672                    22419740.605
 124211151.887 6  96787975.30944  23636603.031                    23636614.289
 112224195.655 8  87447564.82846  21355538.125                    21355546.230
 122795441.010 7  95684821.85844  23367202.156                    23367212.227
 108343279.292 8  84423390.96146  20617016.414                    20617021.609
 128883007.981 6 100428162.338 6  24525577.352                    24525588.512
 11  8 15  0 30 30.0000000  0 10G10G12G30G17G05G27G04G09G02G25
 109965936.784 8  85687801.20146  20925792.641                    20925800.574
 113837157.115 8  88704342.499 7  21662494.992                    21662502.438
 124466748.919 6  96987139.90343  23685240.563                    23685248.859
 120627359.080 7  93995410.061 6  22954617.555                    22954626.078
 117720030.925 7  91729960.480 7  22401369.148                    22401378.223
 124272801.404 6  96836013.80344  23648334.742                    23648345.879
 112297092.182 8  87504367.28345  21369410.023                    21369418.332
 122870476.391 7  95743290.91144  23381481.859                    23381491.215
 108335709.608 8  84417492.51446  20615575.828                    20615581.656
 128780471.348 6 100348263.719 6  24506064.641                    24506076.113
 11  8 15  0 31  0.0000000  0 10G10G12G30G17G05G27G04G09G02G25
 109951133.091 8  85676265.87146  20922975.703                    20922983.633
 113769748.298 8  88651816.146 7  21649667.375                    21649674.613
 124367170.767 6  96909546.55043  23666290.984                    23666299.531
 120677769.152 7  94034690.599 6  22964209.859                    22964218.461
 117623769.379 7  91654951.535 7  22383051.164                    22383059.910
 124334576.943 6  96884150.50544  23660090.547                    23660101.609
 112370178.130 8  87561317.34746  21383318.023                    21383325.805
 122945747.924 6  95801943.99844  23395804.875                    23395815.961
 108328456.259 8  84411840.56746  20614195.516                    20614201.352
 128678056.833 7 100268460.254 6  24486576.211                    24486587.348
 11  8 15  0 31 30.0000000  0 10G10G12G30G17G05G27G04G09G02G25
 109936947.781 8  85665212.39346  20920276.031                    20920283.945
 113702724.312 8  88599589.674 7  21636913.258                    21636920.879
 124267839.441 6  96832145.53043  23647389.313                    23647398.094
 120728324.789 7  94074084.561 6  22973830.773                    22973838.816
 117527746.628 7  91580128.668 7  22364778.898                    22364787.289
 124396475.775 6  96932383.26643  23671869.445                    23671880.438
 112443451.730 8  87618413.62745  21397260.789                    21397269.762
 123021252.360 7  95860778.56844  23410173.391                    23410183.555
 108321518.619 8  84406434.62346  20612875.320                    20612881.289
 128575767.077 7 100188753.991 6  24467111.000                    24467122.508
 11  8 15  0 32  0.0000000  0 10G10G12G30G17G05G27G04G09G02G25
 109923381.765 8  85654641.47746  20917694.469                    20917702.410
 113636087.525 8  88547664.915 7  21624232.664                    21624239.957
 124168757.517 6  96754938.85544  23628534.719                    23628543.316
 120779026.477 7  94113592.328 6  22983479.070                    22983487.324
 117431965.425 7  91505494.012 7  22346551.984                    22346560.551
 124458495.000 6  96980709.85743  23683671.086                    23683682.730
 112516910.319 8  87675654.05145  21411240.367                    21411248.359
 123096986.224 7  95919791.91044  23424585.406                    23424595.430
 108314895.226 8  84401273.54746  20611615.273                    20611621.063
 128473604.406 7 100109146.754 6  24447669.961                    24447681.383
 11  8 15  0 32 30.0000000  0 10G10G12G30G17G05G27G04G09G02G25
 109910435.816 8  85644553.73646  20915230.953                    20915239.176
 113569840.351 8  88496043.749 7  21611626.063                    21611633.480
 124069927.885 6  96677928.75644  23609728.258                    23609736.832
 120829874.584 7  94153214.179 6  22993154.805                    22993163.250
 117336428.542 7  91431049.753 7  22328371.563                    22328380.762
 124520632.066 7  97029128.25344  23695495.898                    23695506.566
 112590551.835 8  87733037.01545  21425253.625                    21425261.727
 123172946.330 7  95978981.55244  23439039.867                    23439049.918
 108308585.105 8  84396356.57746  20610414.141                    20610419.949
 128371571.315 7 100029640.495 6  24428253.797                    24428265.129
 11  8 15  0 33  0.0000000  0 10G10G12G30G17G05G27G04G09G02G25
 109898110.488 8  85634949.59146  20912885.391                    20912893.176
 113503984.767 8  88444727.722 7  21599094.586                    21599101.797
 123971353.179 6  96601117.32844  23590970.109                    23590978.293
 120880869.761 7  94192950.632 6  23002859.391                    23002867.633
 117241138.815 7  91356798.064 7  22310238.461                    22310247.801
 124582883.811 6  97077636.04243  23707341.977                    23707352.641
 112664373.895 8  87790560.66846  21439301.555                    21439309.992
 123249128.922 7  96038344.56144  23453537.055                    23453547.055
 108302586.817 8  84391682.59546  20609272.977                    20609279.039
 128269670.089 7  99950237.006 6  24408862.578                    24408874.004
 11  8 15  0 33 30.0000000  0 10G10G12G30G17G05G27G04G09G02G25
 109886406.607 8  85625829.69446  20910658.102                    20910666.617
 113438523.350 8  88393718.828 7  21586637.648                    21586644.602
 123873035.936 6  96524506.52544  23572260.406                    23572269.352
 120932012.369 7  94232801.964 6  23012591.430                    23012599.855
 117146099.139 7  91282741.231 7  22292153.578                    22292161.848
 124645247.392 6  97126230.96344  23719209.398                    23719220.332
 112738374.435 8  87848223.38645  21453383.227                    21453391.262
 123325530.486 7  96097878.19144  23468075.758                    23468086.277
 108296899.106 8  84387250.61346  20608190.492                    20608196.000
 128167903.096 7  99870938.081 6  24389497.031                    24389507.785
 11  8 15  0 34  0.0000000  0 10G10G12G30G17G05G27G04G09G02G25
 109875325.678 8  85617195.21346  20908549.773                    20908557.797
 113373459.566 8  88343019.779 7  21574256.125                    21574263.574
 123774979.749 6  96448099.14044  23553601.227                    23553610.309
 120983303.406 7  94272768.950 6  23022351.531                    23022360.473
 117051313.156 7  91208882.083 7  22274116.172                    22274125.047
 124707720.581 7  97174911.30143  23731097.945                    23731108.355
 112812551.742 8  87906023.85145  21467498.844                    21467506.988
 123402147.819 7  96157579.94944  23482655.273                    23482665.863
 108291522.125 8  84383060.76146  20607167.328                    20607172.898
 128066273.604 7  99791746.266 6  24370157.156                    24370168.582
 11  8 15  0 34 30.0000000  0 10G10G12G30G17G05G27G04G09G02G25
 109864868.400 8  85609046.69546  20906559.695                    20906567.555
 113308795.238 8  88292631.999 7  21561951.336                    21561958.453
 123677187.360 6  96371897.33144  23534991.953                    23535001.051
 121034743.219 7  94312851.868 6  23032140.375                    23032148.516
 116956783.412 7  91135222.605 7  22256127.508                    22256136.438
 124770300.561 7  97223674.84043  23743006.242                    23743017.121
 112886903.473 8  87963960.22945  21481647.578                    21481655.641
 123478977.666 7  96217447.31044  23497275.703                    23497286.141
 108286454.453 8  84379111.92846  20606202.953                    20606208.742
 127964783.834 6  99712663.353 6  24350844.195                    24350855.492
 11  8 15  0 35  0.0000000  0 10G10G12G30G17G05G27G04G09G02G25
 109855035.004 8  85601384.31846  20904688.367                    20904696.727
 113244532.145 8  88242556.881 7  21549721.969                    21549729.586
 123579661.304 6  96295903.06044  23516433.289                    23516442.387
 121086332.307 7  94353051.107 7  23041958.055                    23041966.188
 116862512.843 8  91061765.072 7  22238188.258                    22238197.305
 124832984.251 7  97272519.20643  23754934.500                    23754945.238
 112961427.277 8  88022030.68645  21495829.008                    21495837.242
 123556016.313 6  96277477.36744  23511935.430                    23511946.145
 108281694.797 8  84375403.11346  20605297.258                    20605302.469
 127863436.183 6  99633691.168 6  24331558.234                    24331569.219
 11  8 15  0 35 30.0000000  0 10G10G12G30G17G05G27G04G09G02G25
 109845826.494 8  85594208.87246  20902936.258                    20902944.277
 113180673.388 8  88192796.823 7  21537570.484                    21537577.656
 123482404.582 6  96220118.65044  23497925.547                    23497934.930
 121138071.542 7  94393367.344 6  23051803.359                    23051812.020
 116768504.431 7  90988511.829 7  22220299.063                    22220308.012
 124895769.083 7  97321442.37843  23766882.656                    23766893.137
 113036121.516 8  88080233.94645  21510042.586                    21510051.184
 123633260.482 7  96337667.55844  23526635.227                    23526644.668
 108277242.481 8  84371933.78046  20604450.094                    20604455.629
 127762233.393 6  99554831.888 6  24312299.055                    24312311.191
 11  8 15  0 36  0.0000000  0 10G10G12G30G17G05G27G04G09G02G25
 109837243.518 8  85587520.84146  20901302.648                    20901310.938
 113117221.177 8  88143353.550 7  21525495.602                    21525503.445
 123385419.967 6  96144546.29543  23479470.234                    23479479.203
 121189961.193 7  94433800.791 6  23061677.383                    23061686.449
 116674761.083 7  90915465.121 7  22202460.508                    22202468.875
 124958652.029 7  97370442.00543  23778848.344                    23778859.414
 113110983.706 8  88138568.08245  21524288.813                    21524297.070
 123710706.590 6  96398015.11644  23541372.383                    23541383.086
 108273095.928 8  84368702.69246  20603660.898                    20603666.578
 127661177.848 6  99476087.366 6  24293070.258                    24293081.063
 11  8 15  0 36 30.0000000  0 10G10G12G30G17G05G27G04G09G02G25
 109829286.500 8  85581320.58146  20899788.781                    20899797.113
 113054177.940 8  88094228.968 7  21513499.055                    21513506.148
 123288710.231 6  96069188.11944  23461067.297                    23461075.922
 121242001.904 7  94474351.932 6  23071580.734                    23071589.508
 116581285.815 7  90842627.301 7  22184672.969                    22184681.566
 125021630.415 6  97419516.00843  23790833.523                    23790843.770
 113186011.629 8  88197031.35345  21538565.992                    21538574.621
 123788351.394 6  96458517.50544  23556147.461                    23556158.527
 108269254.377 8  84365709.28146  20602929.797                    20602935.219
 127560272.153 6  99397459.574 6  24273868.094                    24273879.609
 11  8 15  0 37  0.0000000  0 10G10G12G30G17G05G27G04G09G02G25
 109821956.118 8  85575608.60246  20898393.703                    20898401.918
 112991546.109 8  88045424.957 7  21501580.453                    21501587.629
 123192278.292 6  95994046.41443  23442715.875                    23442725.039
 121294194.060 7  94515021.102 6  23081512.078                    23081521.156
 116488081.208 7  90770000.400 7  22166936.359                    22166945.227
 125084701.569 6  97468662.25443  23802834.836                    23802845.742
 113261203.673 8  88255622.50845  21552874.422                    21552883.129
 123866191.415 7  96519171.98944  23570960.180                    23570970.648
 108265716.837 8  84362952.76146  20602256.742                    20602262.410
 127459518.886 6  99318950.558 6  24254695.297                    24254706.781
 11  8 15  0 37 30.0000000  0 10G10G12G30G17G05G27G04G09G02G25
 109815253.150 8  85570385.52346  20897118.578                    20897126.551
 112929328.229 8  87996943.510 7  21489740.977                    21489747.766
 123096127.260 6  95919123.58643  23424419.406                    23424428.438
 121346538.628 7  94555809.014 6  23091473.805                    23091482.277
 116395150.778 7  90697587.132 7  22149252.281                    22149260.711
 125147862.975 6  97517878.86143  23814854.172                    23814865.055
 113336557.587 8  88314339.80845  21567213.641                    21567222.277
 123944223.183 7  96579975.90644  23585808.953                    23585819.762
 108262482.453 8  84360432.46346  20601641.250                    20601646.676
 127358920.814 7  99240562.461 6  24235551.828                    24235563.270
 11  8 15  0 38  0.0000000  0 10G10G12G30G17G05G27G04G09G02G25
 109809177.789 8  85565651.48046  20895962.273                    20895970.234
 112867526.245 8  87948786.136 7  21477980.375                    21477987.793
 123000259.464 6  95844421.46643  23406176.609                    23406185.270
 121399035.825 7  94596715.858 6  23101463.195                    23101471.758
 116302496.828 7  90625389.303 7  22131620.742                    22131629.344
 125211111.356 6  97567163.25043  23826890.156                    23826900.859
 113412070.988 8  88373181.37045  21581584.109                    21581592.477
 124022443.251 7  96640926.53144  23600693.805                    23600704.664
 108259549.550 8  84358147.08246  20601083.602                    20601088.895
 127258480.089 7  99162296.988 6  24216439.273                    24216450.461
 11  8 15  0 38 30.0000000  0 10G10G12G30G17G05G27G04G09G02G25
 109803730.915 7  85561407.17546  20894925.531                    20894933.477
 112806142.641 7  87900954.777 7  21466299.367                    21466306.629
 122904677.958 7  95769942.39244  23387988.086                    23387996.711
 121451686.097 7  94637741.992 6  23111482.156                    23111490.547
 116210122.529 7  90553409.384 7  22114042.555                    22114051.168
 125274444.152 6  97616513.39743  23838942.125                    23838953.168
 113487742.097 8  88432145.82845  21595983.313                    21595991.969
 124100848.394 6  96702021.36844  23615613.977                    23615624.805
 108256917.443 8  84356096.08746  20600582.313                    20600588.047
 127158199.479 7  99084156.272 6  24197356.422                    24197367.605
 11  8 15  0 39  0.0000000  0 10G10G12G30G17G05G27G04G09G02G25
 109798912.938 8  85557652.91446  20894008.563                    20894016.875
 112745179.798 8  87853451.289 7  21454698.336                    21454705.934
 122809385.594 6  95695688.64544  23369854.078                    23369863.430
 121504490.314 7  94678888.082 6  23121530.742                    23121539.375
 116118030.774 7  90481649.626 7  22096517.945                    22096526.801
 125337858.546 6  97665927.12843  23851009.719                    23851020.402
 113563568.817 8  88491231.54645  21610413.398                    21610421.660
 124179435.007 7  96763257.59544  23630568.539                    23630579.270
 108254585.079 8  84354278.65646  20600138.617                    20600144.051
 127058081.514 7  99006142.290 7  24178304.797                    24178316.008
 11  8 15  0 39 30.0000000  0 10G10G12G30G17G05G27G04G09G02G25
 109794724.097 7  85554388.89246  20893211.328                    20893219.711
 112684640.362 7  87806277.721 7  21443178.133                    21443185.270
 122714385.329 6  95621662.50244  23351776.305                    23351785.270
 121557448.949 7  94720154.493 6  23131608.547                    23131617.176
 116026224.705 7  90410112.488 7  22079047.703                    22079056.617
 125401351.945 6  97715402.41543  23863091.711                    23863102.781
 113639549.089 8  88550436.90345  21624871.922                    21624880.242
 124258199.717 7  96824632.60744  23645556.953                    23645567.688
 108252551.487 8  84352694.03946  20599751.461                    20599757.078
 126958128.990 7  98928257.235 6  24159284.234                    24159295.781
 11  8 15  0 40  0.0000000  0 10G10G12G30G17G05G27G04G09G02G25
 109791164.965 8  85551615.55546  20892534.352                    20892542.500
 112624526.376 8  87759435.678 7  21431738.945                    21431746.184
 122619679.750 6  95547865.97844  23333754.117                    23333763.383
 121610562.307 7  94761541.487 7  23141715.430                    23141724.617
 115934707.034 7  90338800.074 7  22061632.195                    22061641.074
 125464921.489 6  97764937.06843  23875188.570                    23875200.379
 113715680.719 8  88609760.22345  21639359.195                    21639367.273
 124337138.915 6  96886143.58744  23660579.195                    23660589.434
 108250815.142 8  84351341.04246  20599420.961                    20599426.637
 126858344.217 7  98850502.913 6  24140295.383                    24140307.082
 11  8 15  0 40 30.0000000  0 10G10G12G30G17G05G27G04G09G02G25
 109788235.906 7  85549333.16946  20891977.328                    20891985.027
 112564840.553 8  87712927.261 7  21420380.641                    21420387.750
 122525271.983 6  95474301.52644  23315789.641                    23315797.926
 121663831.221 7  94803049.673 6  23151852.391                    23151860.816
 115843480.614 7  90267714.608 7  22044272.219                    22044281.426
 125528564.724 6  97814529.11443  23887299.992                    23887311.145
 113791961.920 8  88669200.08745  21653874.852                    21653883.266
 124416249.506 7  96947788.11944  23675633.273                    23675643.531
 108249375.442 8  84350219.20346  20599146.930                    20599152.324
 126758730.090 7  98772881.575 6  24121340.219                    24121351.141
 11  8 15  0 41  0.0000000  0 10G10G12G30G17G05G27G04G09G02G25
 109785937.451 8  85547542.17446  20891539.359                    20891547.602
 112505584.432 7  87666753.683 7  21409104.555                    21409112.004
 122431164.638 7  95400971.18244  23297880.891                    23297890.066
 121717256.089 7  94844679.387 6  23162018.992                    23162028.180
 115752548.277 7  90196858.300 7  22026968.914                    22026977.102
 125592278.512 6  97864176.13943  23899424.336                    23899435.965
 113868390.504 8  88728754.78345  21668418.750                    21668427.266
 124495527.831 7  97009563.35344  23690719.469                    23690729.898
 108248230.997 8  84349327.41846  20598929.266                    20598935.047
 126659289.015 7  98695395.077 6  24102416.742                    24102427.809
 11  8 15  0 41 30.0000000  0 10G10G12G30G17G05G27G04G09G02G25
 109784269.851 8  85546242.74246  20891221.961                    20891230.371
 112446761.133 7  87620917.363 7  21397911.250                    21397918.277
 122337360.797 6  95327877.30544  23280030.320                    23280039.848
 121770837.446 7  94886431.061 7  23172214.953                    23172223.203
 115661913.247 7  90126233.641 7  22009721.180                    22009730.047
 125656060.132 6  97913875.99844  23911562.023                    23911573.418
 113944964.467 8  88788422.78245  21682990.266                    21682998.996
 124574970.776 7  97071466.86344  23705836.953                    23705847.594
 108247380.875 8  84348664.99346  20598767.695                    20598773.074
 126560023.685 7  98618045.508 6  24083527.227                    24083538.273
 11  8 15  0 42  0.0000000  0 10G10G12G30G17G05G27G04G09G02G25
 109783233.230 8  85545434.99346  20891025.203                    20891033.258
 112388372.410 7  87575419.672 7  21386800.141                    21386807.574
 122243863.008 6  95255021.93644  23262237.555                    23262247.688
 121824575.676 7  94928304.952 6  23182441.656                    23182449.914
 115571577.931 7  90055842.538 7  21992531.297                    21992539.496
 125719906.730 6  97963626.51144  23923710.867                    23923722.168
 114021681.927 8  88848202.58345  21697589.383                    21697597.629
 124654574.809 7  97133495.91043  23720985.133                    23720995.563
 108246823.963 8  84348231.03146  20598661.367                    20598667.254
 126460936.619 7  98540834.866 6  24064671.656                    24064682.875
 11  8 15  0 42 30.0000000  0 10G10G12G30G17G05G27G04G09G02G25
 109782828.186 8  85545119.37346  20890948.031                    20890955.707
 112330420.840 8  87530262.623 7  21375772.281                    21375779.559
 122150674.429 6  95182407.50744  23244505.602                    23244514.723
 121878471.430 7  94970301.585 6  23192697.063                    23192705.914
 115481545.652 7  89985687.567 7  21975398.445                    21975407.320
 125783815.672 6  98013425.59043  23935872.648                    23935883.875
 114098540.946 8  88908092.69745  21712214.930                    21712223.305
 124734336.735 7  97195647.98644  23736163.719                    23736174.008
 108246559.327 8  84348024.82146  20598611.125                    20598616.785
 126362030.537 7  98463765.248 6  24045849.570                    24045861.000
 11  8 15  0 43  0.0000000  0 10G10G12G30G17G05G27G04G09G02G25
 109783055.004 8  85545296.11446  20890990.727                    20890998.852
 112272908.603 7  87485447.906 7  21364828.266                    21364835.820
 122057797.662 6  95110036.04344  23226831.234                    23226840.191
 121932525.802 7  95012421.842 6  23202983.602                    23202991.898
 115391818.945 7  89915770.692 7  21958324.281                    21958332.941
 125847784.173 6  98063271.09143  23948045.789                    23948056.969
 114175539.284 8  88968091.37345  21726867.328                    21726875.336
 124814252.830 7  97257920.19244  23751371.156                    23751381.883
 108246585.735 8  84348045.39746  20598616.469                    20598621.746
 126263307.922 7  98386838.588 6  24027063.633                    24027074.777
 11  8 15  0 43 30.0000000  0 10G10G12G30G17G05G27G04G09G02G25
 109783913.701 8  85545965.23346  20891154.719                    20891162.746
 112215837.864 8  87440977.212 7  21353967.992                    21353975.484
 121965235.581 6  95037909.79144  23209217.398                    23209226.355
 121986738.421 7  95054665.398 6  23213299.805                    23213308.840
 115302400.672 7  89846094.170 7  21941308.281                    21941317.359
 125911809.430 6  98113160.82443  23960228.930                    23960240.508
 114252675.161 8  89028197.21645  21741545.813                    21741554.063
 124894319.730 7  97320309.90444  23766607.422                    23766617.871
 108246901.741 8  84348291.64246  20598676.563                    20598681.805
 126164771.444 7  98310056.963 6  24008312.539                    24008323.980
 11  8 15  0 44  0.0000000  0 10G10G12G30G17G05G27G04G09G02G25
 109785404.785 8  85547127.12046  20891438.383                    20891446.082
 112159211.172 8  87396852.528 7  21343192.469                    21343199.223
 121872991.165 7  94966031.06544  23191664.125                    23191673.137
 122041110.116 7  95097032.906 6  23223646.414                    23223655.004
 115213294.083 7  89776660.505 7  21924351.477                    21924360.230
 125975889.064 6  98163092.87443  23972423.016                    23972434.332
 114329946.514 8  89088408.63445  21756249.898                    21756258.371
 124974534.491 7  97382814.82644  23781871.539                    23781882.801
 108247506.684 8  84348763.02246  20598791.672                    20598796.875
 126066423.828 7  98233422.514 6  23989598.148                    23989609.063
 11  8 15  0 44 30.0000000  0 10G10G12G30G17G05G27G04G09G02G25
 109787528.126 8  85548781.66946  20891842.203                    20891850.094
 112103030.514 7  87353075.396 7  21332501.492                    21332508.844
 121781066.951 7  94894401.84544  23174171.414                    23174179.977
 122095641.484 7  95139524.845 6  23234023.516                    23234032.238
 115124501.673 7  89707471.665 7  21907455.500                    21907464.063
 126040019.995 6  98213064.93943  23984626.781                    23984638.023
 114407351.197 8  89148723.94845  21770979.945                    21770987.809
 125054893.086 7  97445431.84143  23797163.859                    23797174.566
 108248399.199 8  84349458.48746  20598961.281                    20598966.922
 125968267.545 7  98156937.123 6  23970919.609                    23970930.266
 11  8 15  0 45  0.0000000  0 10G10G12G30G17G05G27G04G09G02G25
 109790283.728 7  85550928.89146  20892366.563                    20892374.785
 112047298.517 8  87309647.868 7  21321895.859                    21321902.910
 121689466.174 7  94823024.65844  23156740.688                    23156748.668
 122150332.978 7  95182141.574 6  23244430.953                    23244440.020
 115036026.640 7  89638530.127 7  21890619.188                    21890627.719
 126104199.711 6  98263075.00243  23996839.977                    23996851.980
 114484887.811 8  89209142.06245  21785734.273                    21785742.719
 125135392.396 6  97508158.50543  23812481.766                    23812492.723
 108249578.290 8  84350377.26246  20599185.992                    20599191.277
 125870305.425 7  98080603.035 6  23952277.742                    23952288.914
 11  8 15  0 45 30.0000000  0 10G10G12G30G17G05G27G04G09G02G25
 109793672.070 7  85553569.16346  20893011.266                    20893019.344
 111992017.102 7  87266571.443 7  21311376.016                    21311383.477
 121598191.561 7  94751901.60344  23139371.703                    23139379.668
 122205185.290 7  95224883.590 6  23254869.500                    23254877.289
 114947871.915 7  89569838.180 7  21873843.672                    21873852.355
 126168425.403 6  98313120.89643  24009061.398                    24009073.367
 114562554.145 8  89269661.25445  21800514.125                    21800522.734
 125216029.113 7  97570992.24243  23827826.875                    23827837.668
 108251043.243 8  84351518.78046  20599464.703                    20599470.039
 125772540.142 7  98004422.347 6  23933673.906                    23933684.945
 11  8 15  0 46  0.0000000  0 10G10G12G30G17G05G27G04G09G02G25
 109797692.653 8  85556702.08846  20893776.523                    20893784.535
 111937188.155 8  87223847.584 7  21300942.563                    21300949.738
 121507245.633 7  94681034.67044  23122065.039                    23122073.703
 122260198.740 7  95267751.173 6  23265337.578                    23265346.746
 114860039.514 7  89501397.402 7  21857129.648                    21857137.922
 126232694.079 6  98363200.27543  24021292.188                    24021303.039
 114640347.849 8  89330279.69345  21815317.508                    21815326.008
 125296799.724 7  97633930.31944  23843196.719                    23843207.867
 108252792.057 8  84352881.49846  20599797.203                    20599802.867
 125674973.931 7  97928396.758 6  23915107.727                    23915118.684
 11  8 15  0 46 30.0000000  0 10G10G12G30G17G05G27G04G09G02G25
 109802345.811 7  85560327.92846  20894662.109                    20894670.145
 111882814.360 8  87181478.381 7  21290595.414                    21290603.137
 121416631.339 7  94610426.14244  23104821.445                    23104830.352
 122315374.016 7  95310744.849 6  23275837.109                    23275846.125
 114772532.879 7  89433210.455 7  21840477.656                    21840485.785
 126297003.100 6  98413311.09943  24033529.688                    24033540.508
 114718267.293 8  89390996.11045  21830145.031                    21830153.516
 125377700.817 6  97696970.03143  23858592.289                    23858602.961
 108254823.968 8  84354464.80346  20600183.875                    20600189.824
 125577609.703 7  97852528.574 6  23896579.836                    23896590.879
 11  8 15  0 47  0.0000000  0 10G10G12G30G17G05G27G04G09G02G25
 109807631.753 8  85564446.83946  20895667.992                    20895676.168
 111828898.134 8  87139465.732 7  21280335.758                    21280343.113
 121326351.617 7  94540078.34644  23087641.664                    23087650.613
 122370711.353 7  95353864.814 6  23286367.734                    23286376.156
 114685354.631 7  89365279.409 7  21823888.297                    21823896.652
 126361349.935 6  98463451.41043  24045774.797                    24045786.129
 114796310.667 8  89451809.10745  21844996.500                    21845004.676
 125458729.069 7  97760108.86143  23874011.180                    23874021.922
 108257137.829 8  84356267.81146  20600624.180                    20600629.605
 125480450.074 7  97776819.806 6  23878090.656                    23878101.918
 11  8 15  0 47 30.0000000  0 10G10G12G30G17G05G27G04G09G02G25
 109813550.375 7  85569058.75846  20896794.000                    20896802.191
 111775440.948 8  87097810.768 7  21270162.961                    21270170.742
 121236409.089 7  94469993.27344  23070526.344                    23070534.902
 122426211.485 7  95397111.643 6  23296929.188                    23296937.770
 114598507.671 7  89297606.504 7  21807361.375                    21807370.215
 126425731.664 6  98513618.84543  24058026.039                    24058037.715
 114874475.891 8  89512717.04545  21859870.727                    21859879.469
 125539881.137 7  97823344.17643  23889454.188                    23889465.121
 108259732.636 8  84358289.73446  20601117.969                    20601123.551
 125383497.657 7  97701272.506 6  23859640.734                    23859652.566
 11  8 15  0 48  0.0000000  0 10G10G12G30G17G05G27G04G09G02G25
 109820101.731 8  85574163.71546  20898040.930                    20898048.605
 111722445.056 8  87056515.259 7  21260078.563                    21260085.520
 121146806.799 7  94400173.30544  23053475.555                    23053483.848
 122481874.665 7  95440485.496 6  23307521.688                    23307530.133
 114511994.915 7  89230194.009 7  21790898.766                    21790906.820
 126490145.755 6  98563811.53743  24070283.555                    24070295.316
 114952761.195 8  89573718.55245  21874768.086                    21874776.766
 125621153.730 7  97886673.40843  23904919.688                    23904930.539
 108262607.288 8  84360529.72446  20601664.898                    20601670.609
 125286755.231 7  97625888.857 6  23841231.625                    23841242.941
 11  8 15  0 48 30.0000000  0 10G10G12G30G17G05G27G04G09G02G25
 109827285.822 8  85579761.70346  20899407.898                    20899416.098
 111669913.136 8  87015581.285 7  21250082.195                    21250089.344
 121057547.506 7  94330620.63344  23036490.172                    23036498.914
 122537701.505 7  95483986.871 6  23318144.727                    23318153.777
 114425818.986 7  89163043.986 7  21774499.922                    21774508.520
 126554589.539 6  98614027.32843  24082547.508                    24082558.289
 115031164.887 8  89634812.30945  21889687.672                    21889696.355
 125702543.553 6  97950093.98443  23920407.859                    23920418.926
 108265760.662 8  84362986.89647  20602265.125                    20602271.094
 125190225.478 7  97550670.922 6  23822862.922                    23822873.414
 11  8 15  0 49  0.0000000  0 10G10G12G30G17G05G27G04G09G02G25
 109835102.217 8  85585852.40546  20900895.383                    20900903.418
 111617847.136 8  86975010.357 7  21240174.148                    21240181.516
 120968633.952 6  94261337.35444  23019570.195                    23019579.109
 122593692.412 7  95527616.099 6  23328799.930                    23328808.820
 114339982.928 8  89096158.800 7  21758166.039                    21758174.371
 126619060.014 6  98664263.96543  24094815.938                    24094827.305
 115109684.736 8  89695996.57545  21904629.930                    21904637.891
 125784047.152 6  98013603.22143  23935917.766                    23935928.293
 108269191.594 8  84365660.35646  20602918.039                    20602923.434
 125093910.964 7  97475620.694 6  23804534.328                    23804545.801
 11  8 15  0 49 30.0000000  0 10G10G12G30G17G05G27G04G09G02G25
 109843550.815 8  85592435.72846  20902502.898                    20902511.070
 111566248.884 8  86934803.917 7  21230355.609                    21230362.547
 120880068.756 6  94192325.54644  23002716.547                    23002725.277
 122649848.272 7  95571373.867 6  23339485.539                    23339494.367
 114254488.897 8  89029540.121 7  21741897.086                    21741905.008
 126683554.531 6  98714519.31043  24107088.352                    24107100.188
 115188318.854 8  89757269.88145  21919593.109                    21919601.406
 125865660.769 6  98077198.16644  23951447.969                    23951459.156
 108272898.762 8  84368549.06046  20603623.578                    20603628.844
 124997814.103 7  97400740.076 6  23786247.977                    23786259.109
 11  8 15  0 50  0.0000000  0 10G10G12G30G17G05G27G04G09G02G25
 109852631.617 8  85599511.67246  20904231.188                    20904238.809
 111515120.902 8  86894963.934 7  21220626.164                    21220633.590
 120791855.023 6  94123587.57644  22985930.156                    22985939.164
 122706169.025 7  95615260.119 6  23350203.883                    23350211.805
 114169340.541 8  88963190.805 7  21725693.664                    21725701.883
 126748070.622 6  98764791.45143  24119365.297                    24119377.785
 115267065.652 8  89818630.99245  21934578.070                    21934586.680
 125947381.752 7  98140876.81143  23966999.164                    23967009.789
 108276881.170 8  84371652.23246  20604381.164                    20604386.574
 124901937.932 7  97326031.443 6  23768003.172                    23768014.336
 11  8 15  0 50 30.0000000  0 10G10G12G30G17G05G27G04G09G02G25
 109862344.263 8  85607079.96846  20906079.508                    20906087.582
 111464465.013 8  86855491.800 7  21210986.711                    21210993.785
 120703995.453 7  94055125.58544  22969211.266                    22969219.898
 122762655.100 7  95659275.181 6  23360951.961                    23360960.910
 114084540.478 8  88897112.873 7  21709556.516                    21709564.984
 126812605.344 6  98815078.14543  24131646.008                    24131657.977
 115345923.217 8  89880078.40945  21949584.539                    21949592.777
 126029206.531 7  98204636.31244  23982569.766                    23982580.602
 108281137.682 8  84374968.99346  20605191.242                    20605196.797
 124806285.009 7  97251496.744 6  23749801.063                    23749811.977
 11  8 15  0 51  0.0000000  0 10G10G12G30G17G05G27G04G09G02G25
 109872688.473 8  85615140.38546  20908047.445                    20908055.840
 111414283.343 8  86816389.199 7  21201437.008                    21201444.332
 120616492.767 7  93986941.69244  22952560.281                    22952568.996
 122819307.233 7  95703419.635 6  23371733.523                    23371741.387
 114000090.865 7  88831308.027 7  21693486.422                    21693494.891
 126877155.984 6  98865377.20943  24143929.758                    24143941.891
 115424889.420 8  89941610.49445  21964611.328                    21964619.820
 126111131.575 7  98268473.94744  23998159.898                    23998171.000
 108285666.840 8  84378498.20246  20606053.078                    20606058.461
 124710857.859 7  97177137.962 6  23731642.273                    23731652.801
 11  8 15  0 51 30.0000000  0 10G10G12G30G17G05G27G04G09G02G25
 109883664.674 8  85623693.26946  20910136.406                    20910144.480
 111364578.114 8  86777657.856 7  21191978.891                    21191986.219
 120529349.887 7  93919038.16444  22935977.563                    22935985.805
 122876126.188 7  95747694.110 6  23382545.422                    23382553.953
 113915994.810 8  88765778.676 7  21677483.398                    21677491.867
 126941720.049 6  98915686.80343  24156216.781                    24156228.211
 115503962.779 8  90003226.06445  21979658.297                    21979666.691
 126193153.734 7  98332387.24944  24013768.430                    24013779.258
 108290468.001 8  84382239.36446  20606967.086                    20606972.355
 124615659.325 7  97102957.309 6  23713526.188                    23713536.891
 11  8 15  0 52  0.0000000  0 10G10G12G30G17G05G27G04G09G02G25
 109895271.958 8  85632737.89446  20912345.023                    20912353.320
 111315351.259 8  86739299.267 7  21182611.172                    21182618.500
 120442569.322 7  93851416.94744  22919463.242                    22919472.207
 122933111.972 7  95792098.546 6  23393389.281                    23393397.766
 113832254.949 8  88700526.884 7  21661548.477                    21661556.785
 127006294.416 6  98966004.35243  24168504.195                    24168516.113
 115583141.121 8  90064923.43645  21994725.313                    21994734.266
 126275269.493 7  98396373.48444  24029394.383                    24029405.219
 108295539.538 8  84386191.20846  20607931.688                    20607937.480
 124520691.840 7  97028956.716 6  23695454.469                    23695465.551
 11  8 15  0 52 30.0000000  0 10G10G12G30G17G05G27G04G09G02G25
 109907510.332 8  85642274.28846  20914674.383                    20914682.125
 111266604.817 8  86701315.035 7  21173335.031                    21173342.172
 120356154.152 7  93784080.46344  22903019.297                    22903027.871
 122990264.965 7  95836633.286 6  23404265.391                    23404273.734
 113748874.188 8  88635554.908 7  21645681.500                    21645690.051
 127070876.766 6  99016328.16343  24180793.984                    24180805.570
 115662423.030 8  90126701.50845  22009812.008                    22009820.922
 126357475.893 7  98460430.35144  24045038.117                    24045048.941
 108300880.552 8  84390353.04246  20608948.008                    20608953.453
 124425958.324 7  96955138.408 6  23677426.930                    23677437.789
 11  8 15  0 53  0.0000000  0 10G10G12G30G17G05G27G04G09G02G25
 109920379.379 8  85652302.11946  20917123.023                    20917131.016
 111218340.943 8  86663706.829 7  21164150.797                    21164158.070
 120270107.002 7  93717030.74844  22886645.109                    22886654.008
 123047585.974 7  95881298.961 6  23415173.234                    23415182.047
 113665854.909 8  88570864.611 7  21629883.625                    21629891.680
 127135464.457 6  99066656.09843  24193084.484                    24193096.402
 115741806.529 8  90188558.76345  22024918.398                    22024927.137
 126439769.238 6  98524554.95644  24060697.281                    24060708.781
 108306489.717 8  84394723.81546  20610015.516                    20610021.309
 124331461.341 7  96881504.401 6  23659444.961                    23659455.742
 11  8 15  0 53 30.0000000  0 10G10G12G30G17G05G27G04G09G02G25
 109933878.531 8  85662820.93046  20919691.930                    20919699.621
 111170561.384 8  86626476.004 7  21155058.430                    21155065.910
 120184430.542 7  93650269.88244  22870341.445                    22870349.703
 123105075.151 7  95926095.673 6  23426112.969                    23426122.422
 113583200.133 8  88506458.333 7  21614154.438                    21614162.910
 127200054.673 6  99116986.02643  24205376.258                    24205388.090
 115821289.708 8  90250493.65945  22040043.586                    22040052.086
 126522146.079 7  98588744.64144  24076374.070                    24076384.504
 108312365.718 8  84399302.52146  20611133.883                    20611139.148
 124237203.476 7  96808056.727 6  23641508.000                    23641519.594
 11  8 15  0 54  0.0000000  0 10G10G12G30G17G05G27G04G09G02G25
 109948007.449 8  85673830.48046  20922380.445                    20922388.336
 111123268.286 8  86589624.252 7  21146058.836                    21146066.457
 120099127.704 7  93583800.15844  22854108.672                    22854117.094
 123162733.077 7  95971023.872 6  23437084.813                    23437094.656
 113500912.572 8  88442338.203 7  21598495.523                    21598504.125
 127264644.720 6  99167315.82143  24217666.891                    24217679.105
 115900870.897 8  90312504.94745  22055187.484                    22055195.953
 126604603.368 7  98652996.98643  24092064.867                    24092075.664
 108318507.681 8  84404088.46446  20612302.477                    20612308.051
 124143187.548 7  96734797.591 6  23623617.828                    23623628.879
 11  8 15  0 54 30.0000000  0 10G10G12G30G17G05G27G04G09G02G25
 109962765.673 8  85685330.39646  20925189.188                    20925196.922
 111076463.575 8  86553153.058 7  21137152.289                    21137159.434
 120014201.133 7  93517623.61744  22837948.273                    22837956.449
 123220560.370 7  96016084.048 6  23448089.234                    23448098.680
 113418994.693 8  88378506.131 7  21582907.109                    21582915.344
 127329231.863 6  99217643.33843  24229958.102                    24229969.469
 115980548.153 8  90374591.08845  22070349.836                    22070358.156
 126687137.538 7  98717309.25343  24107770.234                    24107781.316
 108324914.341 8  84409080.66746  20613521.680                    20613527.594
 124049416.089 7  96661728.940 6  23605773.359                    23605784.629
 11  8 15  0 55  0.0000000  0 10G10G12G30G17G05G27G04G09G02G25
 109978152.994 8  85697320.51146  20928117.250                    20928125.086
 111030149.290 8  86517064.015 7  21128338.836                    21128346.461
 119929653.432 7  93451742.32644  22821858.953                    22821867.066
 123278557.292 7  96061276.408 6  23459125.359                    23459134.578
 113337449.357 8  88314964.353 7  21567389.750                    21567397.988
 127393813.445 6  99267966.53443  24242247.141                    24242259.367
 116060319.815 7  90436750.79145  22085529.805                    22085538.008
 126769745.813 7  98781679.24543  24123490.469                    24123501.074
 108331584.668 8  84414278.32246  20614791.297                    20614796.813
 123955891.811 7  96588852.877 7  23587976.273                    23587987.406
 11  8 15  0 55 30.0000000  0 10G10G12G30G17G05G27G04G09G02G25
 109994168.917 8  85709800.45246  20931164.648                    20931172.801
 110984327.352 8  86481358.612 7  21119619.188                    21119626.855
 119845487.569 7  93386158.55844  22805842.594                    22805850.625
 123336724.078 6  96106601.123 6  23470194.422                    23470203.508
 113256279.172 8  88251714.901 7  21551943.336                    21551951.816
 127458387.012 6  99318283.48643  24254534.711                    24254547.316
 116140184.346 7  90498982.87045  22100727.531                    22100736.277
 126852424.718 7  98846104.29043  24139223.516                    24139234.453
 108338517.291 8  84419680.35746  20616110.227                    20616115.719
 123862617.475 7  96516171.605 6  23570227.203                    23570237.711
 11  8 15  0 56  0.0000000  0 10G10G12G30G17G05G27G04G09G02G25
 110010812.962 8  85722769.84146  20934332.148                    20934340.422
 110939000.222 8  86446038.775 7  21110993.781                    21111001.391
 119761706.489 7  93320874.62244  22789899.664                    22789907.949
 123395061.367 7  96152058.723 6  23481295.414                    23481304.746
 113175487.275 8  88188760.220 7  21536569.156                    21536577.715
 127522949.961 6  99368592.16043  24266821.031                    24266833.277
 116220139.826 7  90561285.81145  22115942.516                    22115951.051
 126935170.909 7  98910581.76743  24154970.102                    24154980.199
 108345711.436 8  84425286.18646  20617479.180                    20617485.098
 123769596.023 7  96443687.391 6  23552525.328                    23552536.691
 11  8 15  0 56 30.0000000  0 10G10G12G30G17G05G27G04G09G02G25
 110028084.369 8  85736228.08646  20937618.641                    20937626.813
 110894168.857 8  86411105.252 7  21102462.703                    21102469.926
 119678312.412 7  93255892.24244  22774029.953                    22774038.793
 123453569.634 6  96197649.542 6  23492429.094                    23492438.328
 113095075.800 8  88126101.973 7  21521267.383                    21521275.871
 127587499.262 6  99418890.23543  24279104.242                    24279116.887
 116300184.529 7  90623658.28245  22131174.336                    22131183.785
 127017981.015 6  98975109.03743  24170728.164                    24170738.512
 108353165.385 8  84431094.46246  20618897.430                    20618903.121
 123676829.604 7  96371401.893 6  23534872.461                    23534883.852
 11  8 15  0 57  0.0000000  0 10G10G12G30G17G05G27G04G09G02G25
 110045982.518 7  85750174.70046  20941024.742                    20941032.504
 110849835.472 8  86376559.753 7  21094026.406                    21094033.559
 119595308.207 7  93191213.67444  22758234.563                    22758243.875
 123512249.205 6  96243373.823 6  23503595.594                    23503605.203
 113015047.141 8  88063742.021 7  21506038.586                    21506046.641
 127652032.161 6  99469175.45942  24291386.328                    24291396.492
 116380316.521 7  90686098.75245  22146423.047                    22146431.984
 127100851.613 6  99039683.41843  24186497.797                    24186508.711
 108360878.120 8  84437104.37946  20620365.258                    20620370.934
 123584321.112 7  96299317.368 6  23517268.898                    23517279.980
 11  8 15  0 57 30.0000000  0 10G10G12G30G17G05G27G04G09G02G25
 110064506.987 8  85764609.35246  20944549.844                    20944557.262
 110806002.092 8  86342403.872 7  21085685.070                    21085692.188
 119512696.799 7  93126841.17744  22742514.586                    22742523.164
 123571100.378 6  96289231.849 6  23514794.266                    23514803.879
 112935404.449 8  88001682.822 7  21490882.680                    21490891.371
 127716546.314 6  99519446.07243  24303661.953                    24303673.719
 116460534.190 7  90748606.01145  22161687.766                    22161696.660
 127183779.799 6  99104302.70043  24202279.273                    24202289.555
 108368848.649 8  84443315.17446  20621882.133                    20621887.750
 123492073.286 7  96227435.970 7  23499714.664                    23499725.879
 11  8 15  0 58  0.0000000  0 10G10G12G30G17G05G27G04G09G02G25
 110083656.885 7  85779531.34946  20948193.750                    20948201.391
 110762670.698 8  86308639.147 7  21077439.500                    21077446.848
 119430480.801 7  93062776.79244  22726869.531                    22726877.879
 123630123.810 7  96335224.090 6  23526026.695                    23526035.426
 112856150.190 8  87939926.307 7  21475801.242                    21475809.613
 127781038.905 6  99569700.02242  24315934.586                    24315946.121
 116540835.762 7  90811178.61345  22176968.664                    22176977.723
 127266762.136 6  99168964.17843  24218069.688                    24218081.238
 108377075.801 8  84449725.93646  20623447.703                    20623453.410
 123400088.825 7  96155759.788 7  23482210.211                    23482221.785
 11  8 15  0 58 30.0000000  0 10G10G12G30G17G05G27G04G09G02G25
 110103431.561 8  85794940.18746  20951956.500                    20951964.461
 110719843.229 8  86275267.089 7  21069289.914                    21069296.832
 119348662.814 7  92999022.53544  22711299.742                    22711308.473
 123689319.705 6  96381350.732 6  23537291.086                    23537300.070
 112777286.880 8  87878474.413 7  21460794.141                    21460802.313
 127845507.479 6  99619935.15442  24328202.672                    24328213.910
 116621219.713 7  90873815.43745  22192265.813                    22192274.250
 127349795.349 6  99233665.28443  24233870.594                    24233881.578
 108385558.214 8  84456335.59846  20625061.664                    20625067.453
 123308370.341 7  96084290.860 6  23464757.430                    23464768.422
 11  8 15  0 59  0.0000000  0 10G10G12G30G17G05G27G04G09G02G25
 110123830.624 8  85810835.55846  20955838.852                    20955846.332
 110677521.646 8  86242289.224 7  21061236.078                    21061243.168
 119267245.639 7  92935580.60844  22695806.898                    22695815.391
 123748688.419 6  96427612.023 6  23548588.070                    23548597.508
 112698816.843 7  87817328.974 7  21445861.891                    21445869.758
 127909949.530 6  99670149.66843  24340464.594                    24340477.441
 116701684.429 7  90936515.16845  22207577.297                    22207586.102
 127432876.312 6  99298403.60843  24249680.391                    24249691.605
 108394294.847 8  84463143.35946  20626724.539                    20626729.992
 123216920.590 7  96013031.330 6  23447354.914                    23447365.805
 11  8 15  0 59 30.0000000  0 10G10G12G30G17G05G27G04G09G02G25
 110144853.212 8  85827216.80746  20959839.164                    20959846.695
 110635707.015 8  86209706.383 7  21053279.508                    21053286.434
 119186231.696 7  92872452.88345  22680390.367                    22680398.988
 123808230.208 7  96474008.169 6  23559919.883                    23559928.258
 112620743.101 8  87756492.327 7  21431004.836                    21431012.715
 127974361.980 6  99720341.09743  24352723.148                    24352734.512
 116782227.821 7  90999276.21545  22222904.422                    22222913.250
 127516001.617 6  99363176.44443  24265498.984                    24265509.977
 108403284.069 8  84470147.93746  20628434.922                    20628440.586
 123125741.971 7  95941983.072 6  23430003.961                    23430014.992
 11  8 15  1  0  0.0000000  0 10G10G12G30G17G05G27G04G09G02G25
 110166498.920 8  85844083.58346  20963958.414                    20963966.070
 110594401.981 8  86177520.632 7  21045418.859                    21045426.109
 119105623.972 7  92809641.68145  22665051.047                    22665059.895
 123867945.827 7  96520539.769 6  23571283.164                    23571291.629
 112543068.500 7  87695966.714 7  21416223.570                    21416231.875
 128038742.437 6  99770507.56643  24364974.016                    24364986.047
 116862848.633 7  91062097.58845  22238246.086                    22238254.703
 127599168.055 6  99427981.33843  24281324.734                    24281335.977
 108412525.134 8  84477348.75946  20630193.664                    20630199.184
 123034837.501 7  95871148.443 6  23412705.672                    23412716.605
 11  8 15  1  0 30.0000000  0 10G10G12G30G17G05G27G04G09G02G25
 110188766.409 8  85861434.85846  20968195.484                    20968203.055
 110553607.372 8  86145732.612 7  21037655.977                    21037663.559
 119025424.806 7  92747148.85145  22649789.969                    22649798.520
 123927835.472 7  96567206.999 6  23582679.680                    23582688.434
 112465794.959 8  87635753.600 7  21401518.820                    21401527.180
 128103088.024 6  99820646.85543  24377219.289                    24377230.453
 116943544.953 7  91124977.80545  22253601.773                    22253610.535
 127682372.214 6  99492815.62543  24297158.078                    24297169.367
 108422016.479 8  84484744.59746  20631999.742                    20632005.238
 122944209.469 7  95800529.233 6  23395459.453                    23395470.512
 11  8 15  1  1  0.0000000  0 10G10G12G30G17G05G27G04G09G02G25
 110211655.402 8  85879270.44846  20972551.078                    20972558.848
 110513325.744 8  86114344.319 7  21029990.586                    21029997.953
 118945637.259 7  92684976.75545  22634606.398                    22634615.148
 123987899.475 7  96614010.072 6  23594109.250                    23594117.906
 112388925.269 8  87575855.177 7  21386890.867                    21386899.359
 128167396.596 6  99870757.35443  24389456.344                    24389468.199
 117024315.260 7  91187915.66645  22268972.234                    22268980.898
 127765611.209 6  99557677.06443  24312998.281                    24313009.254
 108431757.502 8  84492335.00146  20633853.375                    20633858.898
 122853860.998 7  95730127.839 6  23378266.664                    23378277.191
 11  8 15  1  1 30.0000000  0 10G10G12G30G17G05G27G04G09G02G25
 110235164.673 8  85897589.35546  20977025.070                    20977032.770
 110473558.736 8  86083357.029 7  21022423.367                    21022430.727
 118866263.793 7  92623127.33344  22619502.398                    22619510.883
 124048138.310 7  96660949.383 6  23605572.453                    23605581.629
 112312462.687 8  87516273.991 7  21372340.820                    21372348.875
 128231665.348 6  99920836.78343  24401686.242                    24401698.023
 117105157.955 7  91250909.94445  22284355.820                    22284364.664
 127848881.707 6  99622563.06643  24328844.711                    24328855.578
 108441746.710 8  84500118.78446  20635754.063                    20635759.945
 122763794.605 7  95659946.257 6  23361127.633                    23361138.102
 11  8 15  1  2  0.0000000  0 10G10G12G30G17G05G27G04G09G02G25
 110259293.383 8  85916390.94346  20981616.266                    20981624.359
 110434307.798 8  86052771.874 7  21014954.102                    21014961.543
 118787306.959 7  92561602.54244  22604476.953                    22604485.898
 124108552.181 7  96708025.093 6  23617069.367                    23617077.641
 112236408.360 8  87457010.921 7  21357867.977                    21357876.363
 128295891.534 6  99970883.07243  24413908.766                    24413920.441
 117186071.298 7  91313959.24745  22299753.938                    22299762.336
 127932180.471 6  99687471.10144  24344695.984                    24344706.961
 108451982.912 8  84508095.03446  20637701.867                    20637707.695
 122674012.795 7  95589986.429 6  23344042.852                    23344053.594
 11  8 15  1  2 30.0000000  0 10G10G12G30G17G05G27G04G09G02G25
 110284040.748 8  85935674.58746  20986325.680                    20986333.797
 110395574.883 8  86022590.372 7  21007583.398                    21007590.977
 118708769.383 7  92500404.44844  22589531.992                    22589540.406
 124169141.448 7  96755237.470 6  23628598.250                    23628607.875
 112160765.338 8  87398068.340 7  21343473.320                    21343481.441
 128360072.502 6 100020894.12343  24426121.211                    24426133.188
 117267053.607 7  91377062.32345  22315163.578                    22315172.262
 128015504.214 6  99752398.59044  24360551.305                    24360562.508
 108462464.808 8  84516262.73746  20639696.727                    20639702.520
 122584518.304 7  95520250.495 6  23327012.172                    23327023.148
 11  8 15  1  3  0.0000000  0 10G10G12G30G17G05G27G04G09G02G25
 110309405.750 8  85955439.52246  20991152.391                    20991160.336
 110357361.591 8  85992813.773 7  21000311.828                    21000318.883
 118630653.688 7  92439535.09344  22574666.672                    22574675.324
 124229906.570 7  96802586.895 6  23640161.914                    23640170.945
 112085536.427 8  87339448.451 7  21329158.047                    21329165.879
 128424205.637 6 100070867.89243  24438325.672                    24438337.945
 117348103.206 7  91440217.81245  22330586.906                    22330595.617
 128098849.665 6  99817342.99644  24376411.719                    24376423.340
 108473191.184 8  84524620.93546  20641737.844                    20641743.547
 122495313.790 7  95450740.524 6  23310037.359                    23310048.328
 11  8 15  1  3 30.0000000  0 10G10G12G30G17G05G27G04G09G02G25
 110335387.594 8  85975685.10646  20996096.375                    20996104.414
 110319669.753 8  85963443.494 7  20993139.234                    20993146.453
 118552962.589 7  92378996.59044  22559883.000                    22559891.254
 124290847.642 7  96850073.405 6  23651758.344                    23651767.395
 112010723.998 8  87281153.092 7  21314921.563                    21314930.000
 128488288.687 6 100120802.65043  24450520.875                    24450532.527
 117429218.801 7  91503424.73945  22346022.930                    22346031.570
 128182214.112 6  99882302.20944  24392275.258                    24392286.891
 108484161.070 8  84533168.88046  20643825.672                    20643831.398
 122406402.061 7  95381458.680 6  23293117.781                    23293128.965
 11  8 15  1  4  0.0000000  0 10G10G12G30G17G05G27G04G09G02G25
 110361985.595 8  85996410.81746  21001158.016                    21001165.859
 110282500.963 8  85934480.795 7  20986066.297                    20986073.422
 118475698.778 7  92318791.04444  22545180.133                    22545188.590
 124351965.443 7  96897697.637 6  23663388.875                    23663398.094
 111936330.516 8  87223184.183 7  21300764.727                    21300773.281
 128552319.068 6 100170696.35643  24462704.773                    24462717.566
 117510398.712 7  91566681.77845  22361471.023                    22361479.906
 128265593.988 6  99947273.43743  24408142.227                    24408153.941
 108495373.295 8  84541905.66446  20645959.359                    20645964.617
 122317785.795 7  95312407.078 7  23276254.875                    23276266.102
 11  8 15  1  4 30.0000000  0 10G10G12G30G17G05G27G04G09G02G25
 110389198.518 8  86017615.68146  21006336.539                    21006344.555
 110245856.839 8  85905926.927 7  20979093.195                    20979100.398
 118398864.645 7  92258920.32144  22530559.273                    22530567.609
 124413260.144 7  96945459.726 6  23675053.109                    23675061.871
 111862358.414 8  87165543.616 7  21286688.641                    21286696.523
 128616293.900 6 100220546.74743  24474879.227                    24474891.125
 117591641.217 7  91629987.59645  22376931.359                    22376939.625
 128348986.303 6 100012254.39943  24424011.203                    24424022.828
 108506826.499 8  84550830.22046  20648138.609                    20648144.391
 122229467.503 7  95243587.663 7  23259449.000                    23259459.605
 11  8 15  1  5  0.0000000  0 10G10G12G30G17G05G27G04G09G02G25
 110417025.385 8  86039298.94846  21011631.773                    21011639.582
 110209739.040 8  85877783.176 7  20972220.242                    20972227.578
 118322463.038 7  92199386.62044  22516020.344                    22516028.703
 124474731.602 7  96993359.531 6  23686750.031                    23686759.484
 111788810.222 8  87108233.378 7  21272692.469                    21272700.820
 128680210.671 6 100270351.94743  24487041.883                    24487054.449
 117672944.878 7  91693341.07345  22392402.914                    22392411.320
 128432387.903 6 100077242.54943  24439882.266                    24439893.469
 108518519.641 8  84559941.74646  20650363.719                    20650369.355
 122141450.047 7  95175002.661 7  23242699.164                    23242710.328
 11  8 15  1  5 30.0000000  0  9G10G12G30G17G05G04G09G02G25
 110445465.241 8  86061459.86146  21017043.898                    21017051.586
 110174149.086 8  85850050.739 7  20965447.563                    20965454.805
 118246496.417 7  92140191.86545  22501563.906                    22501572.746
 124536380.914 7  97041397.936 6  23698481.797                    23698491.098
 111715688.450 8  87051255.403 7  21258778.344                    21258786.305
 117754308.208 7  91756741.03645  22407885.211                    22407894.090
 128515795.415 6 100142235.36543  24455754.641                    24455765.813
 108530451.626 8  84569239.38046  20652634.258                    20652639.906
 122053736.025 7  95106654.085 7  23226008.039                    23226019.020
 11  8 15  1  6  0.0000000  0  9G10G12G30G17G05G04G09G02G25
 110474516.639 8  86084097.31646  21022572.063                    21022579.949
 110139088.591 8  85822730.867 7  20958775.859                    20958782.848
 118170967.238 7  92081337.97545  22487191.633                    22487200.242
 124598207.927 6  97089574.860 6  23710247.422                    23710256.086
 111642995.412 8  86994611.509 7  21244945.305                    21244953.246
 117835729.367 7  91820186.05445  22423379.852                    22423387.977
 128599205.915 6 100207230.45843  24471626.445                    24471637.820
 108542621.091 8  84578722.07246  20654949.914                    20654955.688
 121966328.041 7  95038543.980 7  23209375.125                    23209385.633
 11  8 15  1  6 30.0000000  0  9G10G12G30G17G05G04G09G02G25
 110504178.588 8  86107210.51046  21028216.148                    21028224.172
 110104559.680 8  85795825.221 7  20952205.148                    20952212.793
 118095878.112 7  92022826.97945  22472903.117                    22472911.414
 124660213.097 6  97137890.537 6  23722046.367                    23722055.426
 111570733.450 8  86938303.527 7  21231194.172                    21231202.188
 117917206.975 7  91883675.05944  22438884.266                    22438892.602
 128682615.988 6 100272225.24143  24487498.398                    24487510.313
 108555026.863 8  84588388.89446  20657310.867                    20657316.703
 121879228.691 7  94970674.359 6  23192800.102                    23192811.168
 11  8 15  1  7  0.0000000  0  9G10G12G30G17G05G04G09G02G25
 110534450.048 8  86130798.65146  21033977.039                    21033984.773
 110070562.913 8  85769334.234 7  20945735.820                    20945743.000
 118021231.466 7  91964660.77845  22458698.094                    22458706.516
 124722396.627 7  97186345.268 6  23733880.320                    23733888.242
 111498905.247 8  86882333.540 7  21217525.547                    21217533.750
 117998739.613 7  91947206.95545  22454399.063                    22454408.082
 128766022.510 6 100337217.24743  24503370.531                    24503382.012
 108567667.501 8  84598238.72946  20659716.609                    20659722.383
 121792440.703 7  94903047.370 7  23176285.398                    23176295.891
 11  8 15  1  7 30.0000000  0  9G10G12G30G17G05G04G09G02G25
 110565329.944 8  86154860.90446  21039853.281                    21039861.406
 110037100.026 8  85743259.260 7  20939368.000                    20939375.344
 117947030.003 7  91906841.48545  22444577.742                    22444586.285
 124784758.935 7  97234939.260 6  23745746.742                    23745755.750
 111427512.906 8  86826703.182 7  21203940.000                    21203948.000
 118080325.510 7  92010780.33845  22469924.883                    22469933.746
 128849422.494 6 100402204.14343  24519241.844                    24519253.020
 108580542.133 8  84608270.90446  20662166.484                    20662172.082
 121705966.746 7  94835665.079 6  23159829.102                    23159840.203
 11  8 15  1  8  0.0000000  0  9G10G12G30G17G05G04G09G02G25
 110596817.041 8  86179396.29346  21045844.914                    21045853.102
 110004172.857 8  85717601.714 7  20933102.125                    20933109.078
 117873276.159 7  91849370.97145  22430542.961                    22430551.406
 124847299.972 6  97283672.554 6  23757648.039                    23757656.586
 111356558.434 8  86771414.016 7  21190437.945                    21190446.145
 118161963.342 7  92074394.20644  22485459.836                    22485468.770
 128932812.848 6 100467183.56642  24535109.688                    24535121.180
 108593649.488 8  84618484.41946  20664660.477                    20664666.043
 121619809.447 7  94768529.528 6  23143434.672                    23143444.977
 11  8 15  1  8 30.0000000  0  9G10G12G30G17G05G04G09G02G25
 110628910.142 8  86204403.89546  21051952.031                    21051960.148
 109971783.091 8  85692362.938 7  20926938.625                    20926945.934
 117799972.505 7  91792251.26945  22416593.414                    22416601.918
 124910020.579 6  97332545.734 6  23769583.781                    23769592.285
 111286044.789 8  86716468.356 7  21177019.531                    21177027.922
 118243651.715 7  92138047.44245  22501004.367                    22501013.137
 129016190.408 6 100532152.99442  24550976.523                    24550988.234
 108606988.624 8  84628878.54846  20667198.953                    20667204.504
 121533971.484 7  94701642.812 6  23127099.758                    23127110.734
 11  8 15  1  9  0.0000000  0  9G10G12G30G17G05G04G09G02G25
 110661608.235 8  86229882.91546  21058174.188                    21058182.328
 109939932.265 8  85667544.112 7  20920877.523                    20920884.891
 117727121.720 7  91735484.43745  22402730.805                    22402738.996
 124972920.718 7  97381558.840 6  23781553.195                    23781561.719
 111215974.578 8  86661868.229 7  21163685.672                    21163693.805
 118325389.260 7  92201739.00645  22516558.938                    22516567.758
 129099552.239 6 100597110.14442  24566839.688                    24566850.797
 108620558.270 8  84639452.29146  20669781.055                    20669786.875
 121448455.704 7  94635007.165 6  23110826.266                    23110837.652
 11  8 15  1  9 30.0000000  0  9G10G12G30G17G05G04G09G02G25
 110694909.794 8  86255832.17146  21064511.594                    21064520.031
 109908621.445 8  85643146.073 7  20914919.547                    20914926.867
 117654726.016 7  91679072.22645  22388953.570                    22388962.574
 125036000.673 6  97430712.042 6  23793556.508                    23793565.746
 111146349.392 8  86607614.875 7  21150436.156                    21150444.563
 118407174.212 7  92265467.50844  22532122.188                    22532130.781
 129182895.028 6 100662052.50342  24582698.703                    24582710.973
 108634357.214 8  84650204.71646  20672406.906                    20672413.219
 121363264.530 7  94568624.450 6  23094614.938                    23094625.926
 11  8 15  1 10  0.0000000  0  9G10G12G30G17G05G04G09G02G25
 110728813.542 8  86282250.66546  21070963.164                    21070971.113
 109877852.284 8  85619170.104 7  20909064.156                    20909071.582
 117582788.006 7  91623016.65145  22375264.453                    22375273.457
 125099260.703 6  97480005.577 6  23805594.383                    23805603.738
 111077171.696 8  86553710.212 7  21137272.336                    21137280.199
 118489005.254 7  92329231.93045  22547693.789                    22547702.660
 129266215.641 6 100726977.54642  24598554.125                    24598565.566
 108648384.215 8  84661134.84546  20675076.039                    20675081.777
 121278400.616 7  94502496.744 6  23078466.297                    23078476.977
 11  8 15  1 10 30.0000000  0  9G10G12G30G17G05G04G09G02G25
 110763318.408 8  86309137.56246  21077529.211                    21077537.398
 109847626.015 8  85595617.171 7  20903312.391                    20903319.363
 117511310.071 7  91567319.57045  22361662.672                    22361671.438
 125162701.113 6  97529439.649 6  23817667.453                    23817676.480
 111008444.156 8  86500156.320 7  21124193.820                    21124201.824
 118570880.862 7  92393031.08444  22563274.586                    22563282.770
 129349511.104 6 100791883.00243  24614405.414                    24614416.598
 108662638.107 8  84672241.77646  20677788.617                    20677794.418
 121193866.683 7  94436626.170 6  23062379.750                    23062390.496
 11  8 15  1 11  0.0000000  0  9G10G12G30G17G05G04G09G02G25
 110798422.801 8  86336491.63146  21084209.664                    21084217.477
 109817943.597 8  85572488.018 7  20897664.023                    20897671.137
 117440294.420 7  91511982.71345  22348148.570                    22348157.859
 125226322.299 6  97579014.572 6  23829773.914                    23829782.586
 110940168.497 8  86446954.535 7  21111201.305                    21111209.578
 118652799.260 7  92456863.56244  22578862.719                    22578871.914
 129432778.128 6 100856766.29343  24630250.648                    24630262.004
 108677117.374 8  84683524.32246  20680544.117                    20680549.559
 121109665.023 7  94371014.510 7  23046356.945                    23046367.660
 11  8 15  1 11 30.0000000  0  9G10G12G30G17G05G04G09G02G25
 110834125.746 8  86364312.10046  21091003.453                    21091011.488
 109788807.219 8  85549784.355 7  20892119.398                    20892126.840
 117369744.025 7  91457008.39745  22334723.719                    22334732.590
 125290124.289 6  97628730.425 6  23841914.305                    23841923.543
 110872347.780 8  86394107.259 7  21098295.531                    21098303.711
 118734759.626 7  92520728.77044  22594459.852                    22594468.398
 129516014.125 6 100921625.42643  24646090.102                    24646101.234
 108691821.508 8  84694982.09446  20683341.938                    20683347.742
 121025798.769 7  94305664.212 7  23030397.805                    23030408.211
 11  8 15  1 12  0.0000000  0  9G10G12G30G17G05G04G09G02G25
 110870425.449 8  86392597.57046  21097911.117                    21097919.082
 109760217.815 8  85527506.913 7  20886678.867                    20886686.473
 117299660.981 7  91402398.23045  22321387.273                    22321396.195
 125354107.329 6  97678587.281 6  23854089.969                    23854100.016
 110804983.796 8  86341615.883 7  21085476.344                    21085484.426
 118816760.085 7  92584625.21544  22610063.891                    22610072.305
 129599215.739 7 100986457.77843  24661922.914                    24661933.988
 108706748.888 8  84706613.83146  20686182.930                    20686188.379
 120942270.258 7  94240577.071 7  23014502.578                    23014513.027
 11  8 15  1 12 30.0000000  0  9G10G12G30G17G05G04G09G02G25
 110907320.669 8  86421347.08746  21104931.961                    21104940.457
 109732176.611 8  85505656.632 7  20881343.203                    20881350.555
 117230047.570 7  91348154.02045  22308140.133                    22308149.012
 125418271.709 6  97728585.468 6  23866300.766                    23866309.543
 110738078.397 8  86289481.843 7  21072744.602                    21072752.844
 118898799.283 7  92648551.85244  22625674.828                    22625684.055
 129682379.872 7 101051260.89943  24677748.836                    24677761.055
 108721898.214 8  84718418.50846  20689065.313                    20689071.004
 120859081.993 7  94175755.080 7  22998672.633                    22998683.328
 11  8 15  1 13  0.0000000  0  9G10G12G30G17G05G04G09G02G25
 110944809.832 8  86450559.40946  21112066.070                    21112073.789
 109704684.997 8  85484234.606 7  20876111.539                    20876118.688
 117160906.222 7  91294277.63145  22294983.203                    22294991.770
 125482617.424 6  97778724.954 6  23878545.281                    23878554.422
 110671633.985 8  86237707.007 7  21060100.633                    21060108.801
 118980875.900 7  92712507.65044  22641293.594                    22641302.508
 129765503.565 7 101116032.50243  24693567.508                    24693578.270
 108737268.379 8  84730395.25846  20691990.000                    20691995.762
 120776236.567 7  94111200.225 7  22982907.609                    22982918.652
 11  8 15  1 13 30.0000000  0  9G10G12G30G17G05G04G09G02G25
 110982891.556 8  86480233.47146  21119312.664                    21119320.879
 109677744.251 8  85463241.830 7  20870984.984                    20870992.344
 117092239.532 7  91240771.11145  22281916.414                    22281924.926
 125547144.907 6  97829006.097 6  23890824.352                    23890833.758
 110605653.128 8  86186293.394 7  21047545.156                    21047553.094
 119062988.399 7  92776491.38544  22656919.859                    22656927.883
 129848583.914 7 101180770.33243  24709376.453                    24709388.578
 108752858.391 8  84742543.31846  20694956.789                    20694962.410
 120693736.866 7  94046914.765 7  22967208.836                    22967218.906
 11  8 15  1 14  0.0000000  0  9G10G12G30G17G05G04G09G02G25
 111021564.401 8  86510368.14746  21126671.773                    21126680.203
 109651355.629 8  85442679.276 7  20865963.125                    20865970.434
 117024049.700 7  91187636.17645  22268939.930                    22268948.691
 125611854.450 6  97879429.084 6  23903137.938                    23903147.555
 110540137.657 8  86135242.416 7  21035078.109                    21035085.508
 119145135.657 7  92840502.22444  22672551.031                    22672560.250
 129931617.747 6 101245471.92043  24725178.047                    24725189.617
 108768667.195 8  84754861.87546  20697965.477                    20697970.844
 120611585.264 7  93982900.546 7  22951575.523                    22951586.313
 11  8 15  1 14 30.0000000  0  9G10G12G30G17G05G04G09G02G25
 111060826.755 8  86540962.17846  21134143.398                    21134151.461
 109625520.435 8  85422547.969 7  20861047.000                    20861054.133
 116956339.142 8  91134874.69545  22256055.031                    22256063.547
 125676745.837 6  97929993.756 6  23915486.391                    23915495.836
 110475089.723 8  86084555.746 7  21022699.672                    21022707.438
 119227316.040 7  92904538.85744  22688189.813                    22688198.344
 130014602.040 6 101310134.91843  24740969.078                    24740980.691
 108784693.062 8  84767349.57946  20701014.836                    20701020.652
 120529784.423 7  93919159.657 7  22936009.297                    22936020.176
 11  8 15  1 15  0.0000000  0  9G10G12G30G17G05G04G09G02G25
 111100677.250 8  86572014.49746  21141726.523                    21141734.543
 109600240.085 8  85402849.005 7  20856236.227                    20856243.789
 116889110.382 7  91082488.64345  22243262.281                    22243271.031
 125741819.847 7  97980700.762 6  23927869.203                    23927879.137
 110410511.853 8  86034235.371 7  21010410.578                    21010418.543
 119309528.404 7  92968600.41844  22703834.406                    22703843.082
 130097533.918 6 101374757.08443  24756750.250                    24756762.629
 108800935.464 8  84780005.99646  20704105.828                    20704111.461
 120448337.101 7  93855694.214 7  22920510.523                    22920521.121
 11  8 15  1 15 30.0000000  0  9G10G12G30G17G05G04G09G02G25
 111141114.579 8  86603524.09646  21149421.570                    21149429.508
 109575516.137 8  85383583.601 7  20851531.453                    20851538.699
 116822365.781 7  91030479.87245  22230561.352                    22230569.586
 125807076.634 7  98031550.199 6  23940288.391                    23940296.234
 110346406.267 8  85984282.998 7  20998212.086                    20998219.563
 119391771.439 7  93032685.88044  22719485.219                    22719493.969
 130180410.391 6 101439336.06643  24772520.867                    24772533.281
 108817393.351 8  84792830.32946  20707237.602                    20707243.184
 120367245.948 7  93792506.324 7  22905079.359                    22905090.160
 11  8 15  1 16  0.0000000  0  9G10G12G30G17G05G04G09G02G25
 111182136.838 8  86635489.47546  21157227.906                    21157235.824
 109551348.856 8  85364751.967 7  20846932.523                    20846939.719
 116756107.469 7  90978850.00945  22217952.578                    22217960.906
 125872516.126 7  98082541.980 6  23952740.391                    23952750.039
 110282774.663 8  85934699.964 7  20986103.242                    20986111.254
 119474043.690 7  93096794.09944  22735140.813                    22735149.699
 130263228.403 6 101503869.50743  24788281.258                    24788293.168
 108834065.097 8  84805821.30046  20710410.055                    20710415.523
 120286513.368 7  93729597.837 7  22889716.320                    22889726.988
 11  8 15  1 16 30.0000000  0  9G10G12G30G17G05G04G09G02G25
 111223742.511 8  86667909.47445  21165145.078                    21165152.965
 109527739.472 8  85346355.046 7  20842439.781                    20842446.719
 116690337.606 7  90927600.76645  22205437.023                    22205445.738
 125938138.339 6  98133676.158 6  23965227.883                    23965237.176
 110219619.000 8  85885487.791 7  20974085.133                    20974092.918
 119556343.813 7  93160924.05944  22750802.156                    22750810.844
 130345984.873 6 101568354.96443  24804028.789                    24804041.121
 108850949.331 8  84818977.85346  20713622.758                    20713628.789
 120206141.746 7  93666970.607 6  22874421.773                    22874432.734
 11  8 15  1 17  0.0000000  0  9G10G12G30G17G05G04G09G02G25
 111265929.847 8  86700782.71346  21173173.203                    21173181.215
 109504689.311 8  85328393.879 7  20838053.836                    20838060.980
 116625058.484 7  90876733.93445  22193014.906                    22193023.148
 126003943.706 7  98184953.062 6  23977750.500                    23977759.324
 110156941.572 8  85836648.273 7  20962157.836                    20962165.785
 119638670.457 7  93225074.66344  22766467.711                    22766477.098
 130428676.765 6 101632790.12743  24819764.750                    24819776.539
 108868045.246 8  84832299.35246  20716876.484                    20716881.891
 120126133.809 7  93604626.766 6  22859196.984                    22859207.191
 11  8 15  1 17 30.0000000  0  9G10G12G30G17G05G04G09G02G25
 111308697.244 8  86734107.94846  21181311.547                    21181319.637
 109482199.528 8  85310869.383 7  20833773.859                    20833781.324
 116560272.625 7  90826251.45145  22180686.508                    22180695.422
 126069932.283 6  98236372.727 6  23990307.016                    23990316.469
 110094744.682 8  85788183.191 7  20950322.359                    20950330.438
 119721022.315 7  93289244.91044  22782139.133                    22782147.820
 130511301.423 6 101697172.86043  24835487.820                    24835499.590
 108885351.705 8  84845784.90646  20720169.375                    20720175.035
 120046492.249 7  93542568.421 6  22844041.281                    22844052.305
 11  8 15  1 18  0.0000000  0  9G10G12G30G17G05G04G09G02G25
 111352042.799 8  86767883.69546  21189559.719                    21189567.715
 109460271.408 8  85293782.533 7  20829601.039                    20829608.309
 116495982.029 7  90776154.89545  22168452.688                    22168460.934
 126136104.320 6  98287935.321 6  24002899.516                    24002909.016
 110033029.928 8  85740093.811 7  20938577.938                    20938586.281
 119803397.988 7  93353433.74444  22797815.180                    22797823.824
 130593855.974 6 101761500.98743  24851197.508                    24851209.602
 108902867.287 8  84859433.41846  20723502.656                    20723508.547
 119967219.356 7  93480797.339 6  22828956.500                    22828967.172
 11  8 15  1 18 30.0000000  0  9G10G12G30G17G05G04G09G02G25
 111395966.350 8  86802109.82946  21197918.125                    21197926.070
 109438906.651 8  85277134.677 7  20825535.422                    20825542.727
 116432190.093 8  90726446.90645  22156313.359                    22156321.770
 126202461.071 6  98339641.858 6  24015526.625                    24015536.805
 109971800.642 8  85692382.712 7  20926926.656                    20926934.605
 119885797.411 7  93417641.04244  22813495.234                    22813504.098
 130676338.318 6 101825772.84643  24866893.641                    24866905.152
 108920592.098 8  84873244.96046  20726875.578                    20726880.938
 119888318.926 7  93419316.489 6  22813942.617                    22813952.855
 11  8 15  1 19  0.0000000  0  8G10G12G30G17G05G04G02G25
 111440465.240 7  86836784.28245  21206386.000                    21206394.535
 109418105.873 8  85260926.260 7  20821577.320                    20821585.102
 116368898.454 7  90677128.75745  22144269.109                    22144277.418
 126269001.919 6  98391491.885 6  24028189.438                    24028198.078
 109911058.259 8  85645051.022 7  20915367.820                    20915375.664
 119968218.651 7  93481865.37644  22829178.977                    22829188.070
 108938524.675 8  84887218.39446  20730287.992                    20730293.660
 119809792.867 7  93358127.351 6  22798998.906                    22799009.977
 11  8 15  1 19 30.0000000  0  8G10G12G30G17G05G04G02G25
 111485537.469 8  86871905.48546  21214962.781                    21214971.238
 109397869.865 8  85245157.940 7  20817726.555                    20817733.949
 116306108.582 7  90628201.59145  22132320.484                    22132329.031
 126335726.508 6  98443485.036 6  24040886.297                    24040895.746
 109850804.098 8  85598099.757 7  20903901.656                    20903909.449
 120050659.733 7  93546105.15544  22844867.586                    22844876.270
 108956662.822 8  84901352.02046  20733739.695                    20733745.152
 119731643.058 7  93297231.386 7  22784127.781                    22784138.305
 11  8 15  1 20  0.0000000  0  8G10G12G30G17G05G04G02G25
 111531180.626 8  86907471.57346  21223648.633                    21223656.949
 109378198.625 8  85229829.693 7  20813983.148                    20813990.125
 116243822.632 7  90579667.09345  22120467.844                    22120476.758
 126402634.587 6  98495621.209 6  24053618.422                    24053627.930
 109791039.908 8  85551530.296 7  20892528.844                    20892536.738
 120133119.264 7  93610359.31644  22860558.852                    22860567.586
 108975004.964 8  84915644.60146  20737229.977                    20737235.688
 119653871.844 7  93236630.443 6  22769328.875                    22769339.219
 11  8 15  1 20 30.0000000  0  8G10G12G30G17G05G04G02G25
 111577393.375 8  86943481.50845  21232442.734                    21232450.969
 109359093.885 8  85214942.873 7  20810347.875                    20810354.992
 116182043.228 7  90531527.31245  22108711.508                    22108720.180
 126469726.736 6  98547900.769 6  24066385.820                    24066395.215
 109731768.251 8  85505344.623 7  20881249.781                    20881257.703
 120215596.577 7  93674627.32144  22876254.016                    22876262.938
 108993551.173 8  84930096.18746  20740759.406                    20740764.809
 119576482.348 7  93176326.949 7  22754601.930                    22754612.203
 11  8 15  1 21  0.0000000  0  8G10G12G30G17G05G04G02G25
 111624174.103 7  86979934.01445  21241344.977                    21241352.703
 109340556.610 8  85200498.228 7  20806820.586                    20806827.645
 116120772.236 7  90483783.69845  22097052.289                    22097060.840
 126537003.016 6  98600323.833 5  24079188.156                    24079197.551
 109672990.701 8  85459543.965 7  20870065.086                    20870072.973
 120298090.105 7  93738907.97244  22891951.578                    22891959.945
 109012299.641 8  84944705.38046  20744327.117                    20744332.617
 119499476.752 7  93116322.598 7  22739948.195                    22739958.672
 11  8 15  1 21 30.0000000  0  8G10G12G30G17G05G04G02G25
 111671521.016 8  87016827.70645  21250354.914                    21250362.836
 109322587.691 8  85186496.463 7  20803400.500                    20803408.422
 116060011.799 7  90436437.90245  22085489.695                    22085498.164
 126604463.511 6  98652890.427 6  24092025.773                    24092034.172
 109614709.242 8  85414129.882 7  20858974.492                    20858982.449
 120380598.559 7  93803200.23944  22907652.367                    22907661.508
 109031249.152 8  84959471.23146  20747932.930                    20747938.418
 119422857.613 8  93056619.393 7  22725368.289                    22725378.797
 11  8 15  1 22  0.0000000  0  8G10G12G30G17G05G04G02G25
 111719431.697 8  87054160.70246  21259471.789                    21259479.434
 109305187.693 8  85172938.008 7  20800089.375                    20800096.719
 115999763.972 7  90389491.55145  22074025.336                    22074033.141
 126672108.308 6  98705600.611 6  24104898.664                    24104906.746
 109556925.480 8  85369103.604 7  20847978.570                    20847986.125
 120463120.573 7  93867503.07844  22923355.313                    22923364.961
 109050398.571 8  84974392.85246  20751576.750                    20751582.465
 119346627.242 7  92997219.124 7  22710861.875                    22710872.637
 11  8 15  1 22 30.0000000  0  8G10G12G30G17G05G04G02G25
 111767904.561 8  87091931.75945  21268695.984                    21268704.059
 109288357.862 8  85159823.838 7  20796887.070                    20796894.313
 115940031.056 7  90342946.43045  22062658.219                    22062666.488
 126739937.549 6  98758454.562 6  24117804.875                    24117814.781
 109499641.602 8  85324466.856 7  20837077.359                    20837085.605
 120545655.422 7  93931815.92344  22939062.047                    22939070.715
 109069747.071 8  84989469.60046  20755258.813                    20755264.637
 119270788.337 7  92938123.897 7  22696430.125                    22696441.000
 11  8 15  1 23  0.0000000  0  8G10G12G30G17G05G04G02G25
 111816938.194 8  87130139.77945  21278026.633                    21278034.566
 109272098.908 8  85147154.512 7  20793793.109                    20793800.094
 115880815.129 7  90296804.14445  22051389.922                    22051398.371
 126807951.360 6  98811452.323 6  24130748.531                    24130756.934
 109442859.572 8  85280221.152 7  20826272.250                    20826280.082
 120628201.799 7  93996137.72744  22954770.422                    22954779.172
 109089293.437 8  85004700.53046  20758978.320                    20758983.977
 119195343.505 7  92879335.729 7  22682073.805                    22682084.090
 11  8 15  1 23 30.0000000  0  8G10G12G30G17G05G04G02G25
 111866530.322 8  87168782.98845  21287464.000                    21287471.789
 109256411.795 8  85134930.778 7  20790807.922                    20790815.254
 115822118.228 7  90251066.29445  22040220.445                    22040228.703
 126876149.787 6  98864593.947 6  24143725.578                    24143735.164
 109386581.062 8  85236367.799 7  20815562.563                    20815570.414
 120710758.354 7  94060467.49244  22970479.977                    22970489.164
 109109036.431 8  85020084.67646  20762735.141                    20762740.625
 119120295.033 8  92820856.436 7  22667791.977                    22667802.926
 11  8 15  1 24  0.0000000  0  8G10G12G30G17G05G04G02G25
 111916678.907 8  87207859.79945  21297006.797                    21297014.684
 109241297.686 8  85123153.535 7  20787931.867                    20787939.395
 115763942.162 7  90205734.30545  22029149.352                    22029158.047
 126944532.932 6  98917879.480 6  24156738.758                    24156747.629
 109330807.785 8  85192908.142 7  20804949.469                    20804957.316
 120793323.836 7  94124804.16744  22986191.945                    22986200.730
 109128974.967 8  85035621.20046  20766529.617                    20766534.699
 119045645.320 8  92762687.850 7  22653587.250                    22653597.867
 11  8 15  1 24 30.0000000  0  8G10G12G30G17G05G04G02G25
 111967382.471 8  87247369.05945  21306655.477                    21306663.324
 109226756.634 8  85111822.838 7  20785164.820                    20785172.195
 115706289.559 7  90160810.18545  22018178.523                    22018187.086
 127013100.921 6  98971309.045 6  24169786.555                    24169795.379
 109275541.956 8  85149843.891 7  20794432.469                    20794440.336
 120875897.410 7  94189147.20144  23001904.602                    23001914.254
 109149108.345 8  85051309.54246  20770360.938                    20770366.145
 118971397.302 8  92704832.275 7  22639457.938                    22639468.605
 11  8 15  1 25  0.0000000  0  8G10G12G30G17G05G04G02G25
 112018639.117 8  87287309.30945  21316409.133                    21316417.156
 109212789.875 8  85100939.643 7  20782506.930                    20782514.227
 115649162.376 7  90116295.49745  22007307.531                    22007315.883
 127081853.900 6  99024882.758 6  24182870.234                    24182879.914
 109220785.608 8  85107176.641 7  20784012.781                    20784021.059
 120958478.188 7  94253495.82244  23017619.813                    23017628.578
 109169435.412 8  85067148.81446  20774228.906                    20774234.207
 118897553.339 8  92647291.536 7  22625405.836                    22625416.195
 11  8 15  1 25 30.0000000  0  8G10G12G30G17G05G04G02G25
 112070446.314 7  87327678.54245  21326267.211                    21326275.438
 109199397.882 8  85090504.319 7  20779958.555                    20779965.887
 115592562.215 7  90072191.46545  21996537.125                    21996545.480
 127150791.643 6  99078600.433 6  24195988.484                    24195997.523
 109166539.891 7  85064907.292 7  20773690.195                    20773697.910
 121041064.490 7  94317848.74444  23033334.797                    23033344.168
 109189954.507 8  85083137.72446  20778133.406                    20778139.344
 118824115.562 7  92590067.305 7  22611431.094                    22611441.965
 11  8 15  1 26  0.0000000  0  8G10G12G30G17G05G04G02G25
 112122801.991 8  87368475.17045  21336230.625                    21336238.406
 109186581.632 8  85080517.624 7  20777519.625                    20777526.855
 115536491.007 7  90028499.61245  21985867.258                    21985875.555
 127219914.258 6  99132462.225 6  24209142.000                    24209151.453
 109112806.365 8  85023037.048 8  20763465.000                    20763473.184
 121123655.107 7  94382205.02044  23049051.797                    23049061.117
 109210664.694 8  85099275.51946  20782074.734                    20782080.262
 118751086.443 8  92533161.514 7  22597534.102                    22597544.602
 11  8 15  1 26 30.0000000  0  8G10G12G30G17G05G04G02G25
 112175704.589 7  87409697.96645  21346297.711                    21346305.891
 109174341.645 8  85070979.964 7  20775190.484                    20775198.016
 115480950.963 7  89985221.64945  21975298.383                    21975306.961
 127289221.806 6  99186468.047 6  24222330.961                    24222340.621
 109059587.038 8  84981567.471 8  20753337.695                    20753345.305
 121206249.146 7  94446564.00044  23064768.570                    23064777.387
 109231564.883 8  85115561.37546  20786051.750                    20786057.406
 118678468.452 7  92476576.071 7  22583715.672                    22583725.824
 11  8 15  1 27  0.0000000  0  8G10G12G30G17G05G04G02G25
 112229151.800 7  87451345.13945  21356468.086                    21356476.238
 109162678.083 8  85061891.467 7  20772971.063                    20772978.277
 115425943.902 8  89942359.00345  21964830.898                    21964839.352
 127358714.190 6  99240617.929 6  24235554.859                    24235564.563
 109006883.817 8  84940500.059 7  20743308.406                    20743316.367
 121288845.617 7  94510924.83944  23080486.578                    23080495.559
 109252653.776 8  85131994.27446  20790064.883                    20790070.500
 118606263.990 8  92420312.852 7  22569975.055                    22569985.688
 11  8 15  1 27 30.0000000  0  8G10G12G30G17G05G04G02G25
 112283141.781 7  87493415.24045  21366742.391                    21366749.859
 109151592.458 8  85053253.318 7  20770861.688                    20770868.613
 115371472.107 7  89899913.43745  21954465.266                    21954473.836
 127428391.789 6  99294912.131 6  24248814.047                    24248823.684
 108954698.401 8  84899836.130 8  20733378.211                    20733385.730
 121371443.341 7  94575286.65544  23096204.398                    23096213.645
 109273931.105 8  85148573.99846  20794113.734                    20794119.629
 118534475.722 8  92364373.941 7  22556314.539                    22556324.711
 11  8 15  1 28  0.0000000  0  8G10G12G30G17G05G04G02G25
 112337672.105 8  87535906.40245  21377119.148                    21377127.289
 109141084.915 8  85045065.625 7  20768861.914                    20768869.316
 115317537.008 8  89857886.09545  21944201.977                    21944210.227
 127498254.362 6  99349350.470 6  24262108.531                    24262118.133
 108903032.356 8  84859576.911 8  20723546.133                    20723554.145
 121454041.096 7  94639648.50744  23111922.023                    23111931.188
 109295394.987 8  85165299.10546  20798198.219                    20798203.969
 118463105.664 7  92308760.905 7  22542733.320                    22542743.742
 11  8 15  1 28 30.0000000  0  9G10G12G30G17G05G29G04G02G25
 112392740.910 8  87578817.14345  21387598.414                    21387606.059
 109131156.579 8  85037329.247 7  20766972.563                    20766979.785
 115264140.838 7  89816278.68245  21934040.719                    21934049.297
 127568302.000 6  99403932.997 6  24275438.688                    24275447.332
 108851887.285 8  84819723.635 7  20713813.727                    20713821.652
 129547689.38916 100946279.03115  24652107.391                    24652116.516
 121536637.960 7  94704009.66044  23127639.961                    23127648.930
 109317044.812 8  85182169.08646  20802318.039                    20802323.586
 118392156.516 7  92253475.839 7  22529231.844                    22529242.434
 11  8 15  1 29  0.0000000  0  9G10G12G30G17G05G29G04G02G25
 112448346.128 8  87622145.86645  21398179.203                    21398187.301
 109121807.148 8  85030043.971 7  20765193.828                    20765201.250
 115211285.345 7  89775092.57845  21923982.969                    21923991.461
 127638534.744 6  99458659.784 6  24288803.664                    24288812.379
 108801264.791 8  84780277.561 8  20704180.578                    20704188.477
 129467914.047 6 100884116.399 5  24636926.516                    24636935.941
 121619232.821 6  94768369.26144  23143357.227                    23143366.219
 109338879.211 8  85199182.90046  20806473.258                    20806478.918
 118321630.537 7  92198520.525 7  22515811.078                    22515821.582
 11  8 15  1 29 30.0000000  0  9G10G12G30G17G05G29G04G02G25
 112504485.543 8  87665890.85545  21408862.813                    21408870.609
 109113037.480 8  85023210.459 7  20763524.758                    20763531.723
 115158972.437 7  89734329.28145  21914028.172                    21914036.273
 127708952.685 6  99513530.875 6  24302202.773                    24302212.066
 108751166.332 7  84741239.836 8  20694647.055                    20694655.145
 129388064.277 6 100821895.788 6  24621731.000                    24621741.629
 121701824.554 7  94832726.40044  23159074.281                    23159083.449
 109360897.361 8  85216339.89646  20810663.094                    20810668.699
 118251530.144 7  92143896.837 7  22502471.797                    22502482.328
 11  8 15  1 30  0.0000000  0  9G10G12G30G17G05G29G04G02G25
 112561157.238 7  87710050.60145  21419646.773                    21419655.094
 109104848.352 8  85016829.311 7  20761966.320                    20761973.977
 115107203.934 8  89693990.19645  21904176.734                    21904185.711
 127779555.754 6  99568546.241 6  24315638.961                    24315647.523
 108701593.696 8  84702611.837 8  20685213.742                    20685221.355
 129308140.363 6 100759617.392 6  24606522.477                    24606531.684
 121784412.350 7  94897080.48844  23174789.641                    23174799.129
 109383098.129 8  85233639.18546  20814888.000                    20814893.316
 118181857.723 7  92089606.629 7  22489213.297                    22489223.852
 11  8 15  1 30 30.0000000  0  9G10G12G30G17G05G29G04G02G25
 112618359.028 7  87754623.41945  21430531.797                    21430540.219
 109097240.108 8  85010900.793 7  20760518.914                    20760526.352
 115055981.636 8  89654076.73545  21894429.469                    21894438.070
 127850343.674 6  99623705.636 6  24329108.984                    24329118.551
 108652548.538 8  84664394.865 8  20675880.430                    20675888.086
 129228143.231 6 100697281.931 6  24591299.484                    24591309.074
 121866995.027 7  94961430.59044  23190504.594                    23190514.199
 109405480.095 8  85251079.67546  20819146.570                    20819152.449
 118112615.532 7  92035651.673 7  22476036.805                    22476047.609
 11  8 15  1 31  0.0000000  0  9G10G12G30G17G05G29G04G02G25
 112676088.459 8  87799607.37445  21441517.625                    21441525.691
 109090212.966 8  85005425.083 7  20759181.359                    20759188.652
 115005307.105 7  89614590.11445  21884786.391                    21884794.973
 127921316.344 6  99679008.952 6  24342615.086                    24342624.047
 108604032.083 8  84626589.863 8  20666648.461                    20666655.770
 129148073.471 6 100634889.899 6  24576063.000                    24576072.168
 121949571.545 7  95025775.87444  23206218.703                    23206227.711
 109428042.313 8  85268660.61746  20823439.945                    20823445.586
 118043805.788 7  91982033.675 7  22462943.063                    22462954.148
 11  8 15  1 31 30.0000000  0  9G10G12G30G17G05G29G04G02G25
 112734343.164 8  87845000.64445  21452603.219                    21452611.418
 109083767.706 8  85000402.787 7  20757955.070                    20757962.258
 114955182.421 8  89575531.95345  21875247.727                    21875256.309
 127992473.950 6  99734456.357 6  24356155.891                    24356165.402
 108556046.019 8  84589198.154 8  20657516.977                    20657524.379
 129067931.362 6 100572441.469 6  24560812.891                    24560822.090
 122032140.751 7  95090115.49144  23221930.836                    23221940.434
 109450784.045 8  85286381.44446  20827767.828                    20827773.164
 117975431.105 7  91928754.695 7  22449931.594                    22449942.465
 11  8 15  1 32  0.0000000  0  9G10G12G30G17G05G29G04G02G25
 112793121.011 8  87890801.54745  21463787.930                    21463796.512
 109077904.337 8  84995833.910 7  20756839.250                    20756846.355
 114905609.129 8  89536903.43745  21865814.539                    21865823.051
 128063816.474 6  99790047.890 6  24369731.258                    24369740.711
 108508591.646 8  84552220.757 7  20648486.734                    20648494.051
 128987717.582 6 100509937.226 6  24545547.789                    24545557.797
 122114701.695 7  95154448.63744  23237642.094                    23237650.973
 109473703.898 8  85304241.06746  20832129.508                    20832134.926
 117907493.483 7  91875816.272 7  22437003.703                    22437014.383
 11  8 15  1 32 30.0000000  0  9G10G12G30G17G05G29G04G02G25
 112852419.583 8  87937008.21245  21475072.094                    21475080.531
 109072623.349 8  84991718.828 7  20755834.367                    20755841.879
 114856588.698 7  89498705.72545  21856485.977                    21856494.598
 128135343.598 6  99845783.263 5  24383342.211                    24383351.879
 108461670.381 8  84515658.763 8  20639557.586                    20639565.254
 128907432.521 6 100447377.431 6  24530270.648                    24530279.844
 122197253.205 7  95218774.47844  23253351.055                    23253359.773
 109496800.513 8  85322238.42446  20836524.383                    20836530.297
 117839995.110 7  91823220.129 7  22424159.039                    22424169.840
 11  8 15  1 33  0.0000000  0  9G10G12G30G17G05G29G04G02G25
 112912237.167 7  87983619.30345  21486455.375                    21486463.422
 109067925.073 8  84988057.808 7  20754940.203                    20754947.602
 114808123.300 7  89460940.51145  21847263.773                    21847272.160
 128207055.423 6  99901662.580 5  24396988.227                    24396998.305
 108415283.917 8  84479513.496 7  20630730.539                    20630738.516
 128827076.952 6 100384762.711 6  24514979.273                    24514988.996
 122279794.679 7  95283092.47844  23269058.695                    23269067.504
 109520073.623 8  85340373.30446  20840952.875                    20840958.863
 117772938.722 7  91770968.409 7  22411398.672                    22411409.773
 11  8 15  1 33 30.0000000  0  9G10G12G30G17G05G29G04G02G25
 112972571.081 8  88030632.73545  21497936.000                    21497944.445
 109063809.820 8  84984851.093 7  20754157.305                    20754164.289
 114760214.371 8  89423608.91345  21838146.820                    21838155.258
 128278951.866 6  99957685.733 5  24410670.633                    24410679.840
 108369433.492 8  84443785.922 7  20622005.555                    20622013.566
 128746651.378 6 100322093.428 6  24499675.063                    24499684.922
 122362324.792 7  95347401.65844  23284763.039                    23284772.250
 109543521.595 8  85358644.44646  20845415.188                    20845420.762
 117706326.248 7  91719062.589 7  22398722.789                    22398733.836
 11  8 15  1 34  0.0000000  0  9G10G12G30G17G05G29G04G02G25
 113033419.322 7  88078046.92945  21509515.781                    21509523.469
 109060278.423 8  84982099.334 7  20753485.156                    20753492.582
 114712863.877 7  89386712.46645  21829136.367                    21829144.766
 128351032.799 6 100013852.718 5  24424386.844                    24424396.047
 108324121.109 8  84408477.593 7  20613382.805                    20613390.574
 128666156.421 6 100259370.109 6  24484357.531                    24484366.824
 122444842.948 7  95411701.50044  23300466.359                    23300475.051
 109567143.814 8  85377051.36246  20849910.422                    20849916.023
 117640160.277 7  91667504.704 7  22386131.797                    22386142.949
 11  8 15  1 34 30.0000000  0  9G10G12G30G17G05G29G04G02G25
 113094779.052 8  88125859.68745  21521191.813                    21521199.949
 109057330.621 8  84979802.322 7  20752924.547                    20752931.789
 114666072.993 8  89350252.07345  21820231.992                    21820240.434
 128423298.311 6 100070163.465 5  24438139.469                    24438147.613
 108279347.157 8  84373588.832 7  20604862.641                    20604870.410
 128585592.463 6 100196593.011 6  24469026.016                    24469036.254
 122527347.799 6  95475991.01244  23316166.070                    23316174.676
 109590938.824 8  85395592.91846  20854438.453                    20854444.102
 117574442.710 7  91616296.230 7  22373626.422                    22373636.547
 11  8 15  1 35  0.0000000  0  9G10G12G30G17G05G29G04G02G25
 113156648.590 7  88174069.70345  21532965.109                    21532973.055
 109054966.830 8  84977960.388 7  20752474.570                    20752481.555
 114619843.570 8  89314229.17745  21811434.875                    21811443.328
 128495748.177 6 100126617.838 6  24451926.031                    24451934.688
 108235113.860 8  84339121.352 8  20596445.125                    20596453.043
 128504960.472 7 100133762.914 6  24453682.461                    24453691.953
 122609838.856 7  95540269.73144  23331863.828                    23331872.922
 109614906.029 8  85414268.65446  20858999.305                    20859004.781
 117509175.990 7  91565439.062 7  22361206.148                    22361217.078
 11  8 15  1 35 30.0000000  0  9G10G12G30G17G05G29G04G02G25
 113219025.169 8  88222674.81645  21544834.820                    21544843.609
 109053187.103 8  84976573.573 7  20752136.164                    20752143.234
 114574177.215 7  89278645.02945  21802744.773                    21802753.727
 128568382.125 6 100183215.754 5  24465747.250                    24465756.652
 108191422.064 8  84305075.821 7  20588130.945                    20588138.922
 128424261.079 7 100070880.297 6  24438325.953                    24438335.945
 122692314.730 7  95604536.65344  23347558.156                    23347567.152
 109639044.133 8  85433077.56946  20863592.477                    20863598.297
 117444362.304 8  91514934.920 7  22348872.656                    22348883.305
 11  8 15  1 36  0.0000000  0  9G10G12G30G17G05G29G04G02G25
 113281906.426 7  88271673.18145  21556800.953                    21556809.090
 109051991.792 8  84975642.146 7  20751908.500                    20751915.941
 114529075.323 8  89243500.72945  21794162.188                    21794170.684
 128641200.056 6 100239956.974 5  24479604.453                    24479613.070
 108148273.102 8  84271453.284 8  20579920.141                    20579927.855
 128343494.529 7 100007945.329 6  24422956.539                    24422966.070
 122774774.641 7  95668791.13444  23363249.992                    23363258.723
 109663351.677 8  85452018.51146  20868218.344                    20868223.605
 117380003.718 7  91464785.398 7  22336625.500                    22336636.723
 11  8 15  1 36 30.0000000  0  9G10G12G30G17G05G29G04G02G25
 113345290.306 7  88321063.20745  21568862.555                    21568870.914
 109051380.895 8  84975166.115 7  20751792.219                    20751799.391
 114484539.632 8  89208797.61845  21785687.492                    21785695.742
 128714202.027 6 100296841.584 6  24493495.828                    24493506.207
 108105668.382 8  84238254.828 8  20571812.641                    20571820.371
 128262661.758 7  99944958.778 6  24407574.633                    24407584.672
 122857217.629 7  95733032.42844  23378937.633                    23378946.828
 109687828.177 8  85471091.10446  20872875.930                    20872881.418
 117316102.695 7  91414992.435 7  22324465.570                    22324476.203
 11  8 15  1 37  0.0000000  0  9G10G12G30G17G05G29G04G02G25
 113409174.284 8  88370842.91145  21581019.383                    21581027.551
 109051355.033 8  84975145.959 7  20751787.195                    20751794.426
 114440571.739 8  89174536.93145  21777320.414                    21777328.727
 128787388.037 6 100353869.698 5  24507423.133                    24507432.082
 108063609.224 8  84205481.485 8  20563808.789                    20563816.738
 128181763.598 7  99881921.265 6  24392180.016                    24392190.059
 122939643.110 7  95797260.08843  23394622.875                    23394631.883
 109712472.845 8  85490294.73746  20877565.484                    20877571.254
 117252661.394 7  91365557.689 7  22312392.945                    22312403.633
 11  8 15  1 37 30.0000000  0  8G10G12G30G05G29G04G02G25
 113473556.039 8  88421010.50345  21593270.422                    21593279.102
 109051914.138 8  84975581.620 7  20751893.711                    20751900.695
 114397173.139 8  89140719.85345  21769061.914                    21769070.465
 108022096.959 8  84173134.291 8  20555909.367                    20555917.102
 128100800.536 7  99818833.169 6  24376773.305                    24376782.770
 123022049.958 6  95861473.22044  23410304.484                    23410313.551
 109737284.433 8  85509628.44546  20882287.148                    20882292.992
 117189681.955 7  91316482.840 7  22300408.289                    22300418.953
 11  8 15  1 38  0.0000000  0  8G10G12G30G05G29G04G02G25
 113538433.099 7  88471564.03545  21605616.523                    21605624.621
 109053058.558 8  84976473.376 7  20752111.531                    20752118.727
 114354345.274 8  89107347.50645  21760912.078                    21760920.695
 107981132.654 8  84141214.081 8  20548114.141                    20548121.750
 128019773.367 7  99755695.146 6  24361354.242                    24361364.434
 123104437.284 6  95925671.12444  23425982.516                    23425991.652
 109762261.959 8  85529091.44446  20887040.016                    20887045.801
 117127166.570 7  91267769.587 7  22288512.406                    22288522.773
 11  8 15  1 38 30.0000000  0  8G10G12G30G05G29G04G02G25
 113603802.678 7  88522501.35345  21618055.922                    21618064.055
 109054787.472 8  84977820.576 7  20752440.195                    20752447.477
 114312089.251 8  89074420.73145  21752871.094                    21752879.391
 107940717.469 8  84109721.750 8  20540423.289                    20540431.176
 127938682.248 6  99692507.280 6  24345923.273                    24345933.211
 123186804.006 7  95989852.97644  23441656.547                    23441665.449
 109787404.035 8  85548682.67146  20891824.586                    20891830.313
 117065116.992 8  91219419.302 7  22276704.477                    22276715.094
 11  8 15  1 39  0.0000000  0  8G10G12G30G05G29G04G02G25
 113669662.895 8  88573821.00245  21630588.492                    21630596.457
 109057101.305 8  84979623.555 7  20752880.711                    20752888.105
 114270406.989 7  89041941.05045  21744939.180                    21744947.434
 107900852.646 8  84078658.280 8  20532837.469                    20532845.027
 127857528.221 6  99629270.379 6  24330480.250                    24330490.547
 123269149.596 6  96054018.37544  23457326.750                    23457335.469
 109812710.160 8  85568401.72646  20896640.289                    20896645.719
 117003535.811 8  91171433.996 7  22264986.211                    22264996.805
 11  8 15  1 39 30.0000000  0  8G10G12G30G05G29G04G02G25
 113736011.082 8  88625520.87245  21643214.078                    21643222.871
 109060000.230 8  84981882.461 7  20753432.141                    20753439.633
 114229299.890 8  89009909.53745  21737116.859                    21737124.879
 107861539.374 8  84048024.593 8  20525356.305                    20525364.141
 127776312.153 6  99565985.127 5  24315025.344                    24315035.926
 123351473.305 6  96118166.71844  23472992.188                    23473001.230
 109838179.442 8  85588247.91446  20901487.109                    20901492.305
 116942425.106 8  91123815.308 7  22253357.266                    22253367.711
 11  8 15  1 40  0.0000000  0  8G10G12G30G05G29G04G02G25
 113802844.763 7  88677599.06245  21655932.250                    21655939.992
 109063484.417 8  84984597.407 7  20754095.313                    20754102.738
 114188769.065 8  88978327.06545  21729404.227                    21729412.176
 107822778.679 8  84017821.480 8  20517980.336                    20517988.211
 127695034.529 6  99502651.913 6  24299558.836                    24299568.625
 123433773.919 6  96182297.04143  23488653.453                    23488662.387
 109863810.535 8  85608220.18546  20906364.523                    20906369.906
 116881786.851 7  91076564.733 7  22241817.992                    22241827.980
 11  8 15  1 40 30.0000000  0  8G10G12G30G05G29G04G02G25
 113870161.484 7  88730053.64145  21668742.063                    21668750.602
 109067553.623 8  84987768.222 7  20754869.734                    20754877.203
 114148815.994 7  88947194.79045  21721801.227                    21721809.441
 107784571.576 8  83988049.745 8  20510709.719                    20510717.504
 127613696.075 6  99439271.307 5  24284080.281                    24284090.578
 123516050.663 7  96246408.76444  23504310.047                    23504319.418
 109889602.363 8  85628317.71346  20911272.211                    20911278.250
 116821623.083 8  91029683.909 7  22230369.070                    22230379.754
 11  8 15  1 41  0.0000000  0  8G10G12G30G05G29G04G02G25
 113937958.565 8  88782882.52845  21681643.469                    21681651.883
 109072207.905 8  84991394.932 7  20755755.195                    20755762.379
 114109441.822 8  88916513.61045  21714308.383                    21714316.605
 107746919.188 8  83958710.244 8  20503544.711                    20503552.105
 127532297.616 6  99375843.925 6  24268591.086                    24268601.223
 123598302.646 6  96310501.19844  23519962.094                    23519970.922
 109915554.049 8  85648539.79946  20916210.648                    20916216.605
 116761935.760 8  90983174.322 7  22219010.969                    22219021.461
 11  8 15  1 41 30.0000000  0  8G10G12G30G05G29G04G02G25
 114006233.512 7  88836083.77245  21694636.102                    21694643.848
 109077446.792 8  84995477.177 7  20756752.297                    20756759.781
 114070648.069 8  88886284.69745  21706926.406                    21706934.902
 107709822.707 8  83929803.934 8  20496485.539                    20496493.078
 127450839.748 6  99312370.292 5  24253090.477                    24253100.242
 123680529.266 6  96374573.83244  23535609.398                    23535617.941
 109941664.830 8  85668885.85746  20921179.500                    20921185.059
 116702727.125 8  90937037.738 7  22207744.102                    22207754.598
 11  8 15  1 42  0.0000000  0  8G10G12G30G05G29G04G02G25
 114074983.728 7  88889655.36645  21707719.125                    21707726.980
 109083270.464 8  85000015.095 7  20757860.344                    20757868.137
 114032435.929 8  88856508.97745  21699655.367                    21699663.313
 107673282.953 8  83901331.429 8  20489532.016                    20489539.844
 127369323.232 6  99248850.949 6  24237577.203                    24237587.355
 123762729.559 6  96438625.98043  23551252.055                    23551260.316
 109967933.492 8  85689354.93446  20926178.039                    20926183.801
 116643999.076 8  90891275.632 7  22196568.266                    22196578.793
 11  8 15  1 42 30.0000000  0  8G10G12G30G05G29G04G02G25
 114144207.078 7  88943595.62245  21720891.891                    21720899.844
 109089678.736 8  85005008.557 7  20759080.156                    20759087.379
 113994806.853 8  88827187.60745  21692494.094                    21692502.457
 107637301.364 8  83873293.860 8  20482684.906                    20482692.836
 127287749.048 6  99185286.651 6  24222054.453                    24222064.613
 123844902.741 6  96502657.01343  23566888.063                    23566897.965
 109994359.411 8  85709946.55046  20931206.773                    20931212.957
 116585753.917 8  90845889.807 7  22185484.758                    22185494.887
 11  8 15  1 43  0.0000000  0  8G10G12G30G05G29G04G02G25
 114213901.217 7  88997902.72945  21734154.234                    21734161.914
 109096671.627 8  85010457.551 7  20760410.930                    20760417.965
 113957762.362 8  88798321.75745  21685445.086                    21685453.125
 107601878.793 8  83845691.885 8  20475944.531                    20475951.984
 127206117.786 6  99121677.869 6  24206520.570                    24206531.133
 123927048.483 6  96566666.63144  23582520.539                    23582529.770
 110020941.869 8  85730660.14246  20936265.102                    20936271.094
 116527993.826 8  90800881.945 7  22174493.086                    22174503.766
 11  8 15  1 43 30.0000000  0  8G10G12G30G05G29G04G02G25
 114284062.910 7  89052574.15945  21747505.820                    21747513.723
 109104248.900 8  85016361.919 7  20761853.094                    20761859.973
 113921303.008 8  88769911.85245  21678507.219                    21678514.828
 107567015.774 8  83818525.922 8  20469309.898                    20469317.434
 127124430.255 7  99058025.269 6  24190976.148                    24190986.367
 124009165.323 6  96630653.74244  23598147.047                    23598156.043
 110047679.055 8  85751494.30346  20941353.508                    20941359.047
 116470720.203 8  90756253.149 7  22163594.352                    22163605.324
 11  8 15  1 44  0.0000000  0  8G10G12G30G05G29G04G02G25
 114354689.434 7  89107607.80945  21760944.961                    21760953.207
 109112409.642 8  85022720.930 7  20763405.883                    20763413.176
 113885429.919 7  88741958.78345  21671680.781                    21671689.102
 107532713.209 8  83791796.684 8  20462782.531                    20462790.059
 127042687.221 6  98994329.400 6  24175421.031                    24175430.918
 124091252.524 7  96694617.77844  23613767.773                    23613776.902
 110074570.228 8  85772448.45646  20946470.531                    20946476.379
 116413934.930 8  90712004.891 7  22152788.602                    22152799.086
 11  8 15  1 44 30.0000000  0  8G10G12G30G05G29G04G02G25
 114425778.477 7  89163001.85745  21774472.891                    21774480.715
 109121154.068 8  85029534.762 7  20765069.609                    20765077.047
 113850144.546 7  88714463.67845  21664965.977                    21664974.207
 107498972.268 8  83765505.064 8  20456361.859                    20456369.527
 126960889.409 7  98930590.862 6  24159855.938                    24159865.516
 124173309.501 6  96758558.22344  23629382.938                    23629391.953
 110101614.600 8  85793521.97646  20951617.086                    20951622.117
 116357640.285 8  90668138.925 7  22142076.180                    22142086.441
 11  8 15  1 45  0.0000000  0  8G10G12G30G05G29G04G02G25
 114497327.201 7  89218754.09245  21788088.086                    21788095.926
 109130481.619 8  85036802.976 7  20766844.594                    20766852.164
 113815447.693 7  88687427.16445  21658363.359                    21658371.695
 107465793.486 8  83739651.501 8  20450047.711                    20450055.789
 126879037.328 6  98866810.042 6  24144279.273                    24144289.516
 124255335.018 7  96822474.16244  23644991.563                    23645000.574
 110128810.684 8  85814713.71346  20956792.141                    20956798.098
 116301837.876 8  90624656.527 7  22131457.133                    22131467.641
 11  8 15  1 45 30.0000000  0  8G10G12G30G05G29G04G02G25
 114569333.825 7  89274863.13645  21801790.398                    21801798.645
 109140392.739 8  85044525.920 7  20768730.664                    20768738.230
 113781341.122 8  88660850.60145  21651873.195                    21651881.473
 107433178.327 8  83714237.112 8  20443841.391                    20443849.168
 126797132.379 6  98802988.032 6  24128693.016                    24128703.539
 124337329.138 7  96886365.66544  23660594.086                    23660604.191
 110156158.732 8  85836023.87846  20961996.336                    20962001.910
 116246530.279 8  90581559.694 7  22120932.523                    22120943.340
 11  8 15  1 46  0.0000000  0  8G10G12G30G05G29G04G02G25
 114641795.238 7  89331326.56745  21815579.523                    21815587.734
 109150886.797 8  85052703.105 7  20770727.523                    20770734.820
 113747825.724 8  88634734.69045  21645495.484                    21645503.992
 107401127.250 8  83689262.271 8  20437742.406                    20437749.820
 126715175.298 7  98739125.401 6  24113097.828                    24113107.430
 124419291.125 7  96950232.11344  23676191.750                    23676200.859
 110183657.446 8  85857451.44146  20967229.250                    20967234.621
 116191719.169 8  90538849.750 7  22110502.414                    22110513.324
 11  8 15  1 46 30.0000000  0  8G10G12G30G05G29G04G02G25
 114714709.097 8  89388142.54945  21829454.336                    21829462.766
 109161963.515 8  85061334.316 7  20772834.984                    20772842.730
 113714902.759 8  88609080.42045  21639230.477                    21639238.855
 107369641.346 8  83664727.831 8  20431750.930                    20431758.375
 126633166.827 7  98675222.730 6  24097491.844                    24097501.953
 124501220.122 7  97014072.85844  23691781.570                    23691791.027
 110211305.871 8  85878995.65446  20972490.688                    20972496.539
 116137406.646 8  90496528.307 7  22100167.195                    22100177.680
 11  8 15  1 47  0.0000000  0  8G10G12G30G05G29G04G02G25
 114788071.946 7  89445308.37445  21843414.945                    21843423.129
 109173622.142 8  85070418.949 7  20775053.742                    20775061.441
 113682572.777 8  88583888.22545  21633078.039                    21633086.430
 107338721.075 8  83640634.133 8  20425866.867                    20425874.555
 126551107.617 7  98611280.509 6  24081876.781                    24081886.055
 124583114.997 7  97077887.01043  23707365.883                    23707375.480
 110239102.626 8  85900655.45046  20977780.070                    20977785.816
 116083594.107 8  90454596.464 7  22089926.844                    22089937.316
 11  8 15  1 47 30.0000000  0  8G10G12G30G05G29G04G02G25
 114861881.830 7  89502822.56145  21857460.391                    21857468.773
 109185862.403 8  85079956.808 7  20777383.117                    20777390.734
 113650836.899 7  88559158.96046  21627038.914                    21627047.484
 107308367.424 8  83616981.961 8  20420090.945                    20420098.402
 126468998.735 7  98547299.611 6  24066251.258                    24066261.387
 124664975.520 7  97141674.42343  23722942.984                    23722952.461
 110267047.339 8  85922430.54946  20983097.773                    20983103.695
 116030283.614 8  90413055.827 7  22079782.078                    22079792.684
 11  8 15  1 48  0.0000000  0  8G10G12G30G05G29G04G02G25
 114936136.032 7  89560682.96545  21871590.758                    21871598.648
 109198683.926 8  85089947.601 7  20779823.195                    20779830.430
 113619696.411 7  88534893.63645  21621113.219                    21621122.004
 107278581.147 8  83593771.909 8  20414422.508                    20414430.316
 126386841.127 6  98483280.755 6  24050617.719                    24050626.992
 124746800.759 7  97205434.36043  23738514.641                    23738523.906
 110295138.961 8  85944320.11346  20988443.109                    20988449.184
 115977477.105 8  90371907.897 7  22069733.203                    22069743.957
 11  8 15  1 48 30.0000000  0  8G10G12G30G05G29G04G02G25
 115010831.538 7  89618887.23645  21885804.750                    21885812.660
 109212086.024 8  85100390.790 7  20782373.570                    20782381.074
 113589151.795 7  88511092.62345  21615300.734                    21615308.969
 107249362.593 7  83571004.229 8  20408862.570                    20408870.059
 126304635.357 7  98419224.348 6  24034973.883                    24034983.973
 124828589.713 7  97269165.99443  23754078.414                    23754087.227
 110323376.014 8  85966323.00246  20993817.016                    20993822.840
 115925176.080 8  90331153.860 7  22059780.625                    22059791.605
 11  8 15  1 49  0.0000000  0  8G10G12G30G05G29G04G02G25
 115085966.066 7  89677433.61945  21900102.594                    21900110.547
 109226069.029 8  85111286.628 7  20785034.328                    20785041.703
 113559204.620 7  88487757.15645  21609601.930                    21609610.734
 107220713.042 8  83548679.924 8  20403410.469                    20403417.680
 126222382.713 6  98355131.408 6  24019321.953                    24019331.672
 124910342.365 7  97332869.35043  23769635.273                    23769644.383
 110351758.734 8  85988439.40546  20999217.938                    20999224.070
 115873382.940 8  90290795.573 7  22049924.688                    22049936.102
 11  8 15  1 49 30.0000000  0  8G10G12G30G05G29G04G02G25
 115161536.728 7  89736319.84445  21914482.922                    21914491.168
 109240631.793 8  85122634.235 7  20787805.531                    20787812.563
 113529855.191 8  88464887.45945  21604016.922                    21604025.207
 107192632.624 8  83526799.103 8  20398067.195                    20398074.551
 126140083.600 6  98291002.275 6  24003660.680                    24003670.875
 124992057.550 7  97396543.49943  23785185.258                    23785194.508
 110380285.361 8  86010667.94246  21004646.109                    21004652.055
 115822098.889 8  90250833.979 7  22040165.961                    22040176.453
 11  8 15  1 50  0.0000000  0  8G10G12G30G05G29G04G02G25
 115237540.863 7  89795543.82945  21928946.375                    21928954.348
 109255773.539 8  85134432.992 7  20790686.969                    20790694.527
 113501104.795 7  88442484.55845  21598546.359                    21598555.027
 107165122.271 8  83505362.488 8  20392832.320                    20392839.227
 126057739.254 6  98226837.889 6  23987991.078                    23988001.000
 125073734.814 7  97460188.12443  23800728.094                    23800737.078
 110408955.245 8  86033008.10646  21010101.938                    21010107.777
 115771325.956 8  90211270.653 7  22030504.063                    22030514.832
 11  8 15  1 50 30.0000000  0  8G10G12G30G05G29G04G02G25
 115313975.976 7  89855103.65745  21943491.313                    21943499.293
 109271493.913 8  85146682.622 7  20793678.313                    20793685.816
 113472954.392 7  88420549.17345  21593189.117                    21593197.980
 107138182.681 8  83484370.616 8  20387705.813                    20387713.137
 125975350.721 6  98162639.067 6  23972313.313                    23972323.363
 125155373.821 7  97523802.91544  23816262.984                    23816272.480
 110437767.898 8  86055459.52446  21015584.867                    21015590.559
 115721066.129 8  90172107.150 7  22020940.117                    22020950.563
 11  8 15  1 51  0.0000000  0  8G10G12G30G05G29G04G02G25
 115390839.490 7  89914997.30545  21958117.852                    21958125.984
 109287792.723 8  85159382.975 7  20796779.977                    20796787.508
 113445404.950 7  88399082.05945  21587946.602                    21587955.449
 107111814.468 8  83463823.974 8  20382688.055                    20382695.594
 125892918.859 6  98098406.471 6  23956627.102                    23956636.680
 125236973.970 7  97587387.44743  23831791.234                    23831800.648
 110466722.628 8  86078021.65646  21021094.664                    21021100.195
 115671321.236 8  90133344.888 7  22011473.750                    22011484.410
 11  8 15  1 51 30.0000000  0  8G10G12G30G05G29G04G02G25
 115468128.171 7  89975222.25045  21972825.375                    21972833.418
 109304669.143 8  85172533.430 7  20799991.344                    20799998.863
 113418456.662 7  88378083.39045  21582818.852                    21582826.824
 107086017.736 8  83443722.645 8  20377778.820                    20377786.414
 125810444.479 6  98034140.744 6  23940932.945                    23940942.152
 125318534.006 6  97650940.73843  23847311.219                    23847320.914
 110495817.836 8  86100693.24346  21026631.234                    21026636.535
 115622092.383 8  90094984.726 7  22002105.961                    22002116.727
 11  8 15  1 52  0.0000000  0  8G10G12G30G05G29G04G02G25
 115545838.526 7  90035775.77345  21987613.430                    21987621.355
 109322122.123 7  85186133.142 7  20803312.719                    20803320.316
 113392109.707 7  88357553.29245  21577804.883                    21577813.465
 107060792.587 8  83424066.707 8  20372978.781                    20372986.141
 125727927.690 6  97969841.979 6  23925230.102                    23925239.859
 125400052.792 6  97714461.87243  23862823.430                    23862833.168
 110525051.726 7  86123472.90346  21032194.367                    21032200.234
 115573380.720 7  90057027.580 7  21992836.211                    21992846.813
 11  8 15  1 52 30.0000000  0  8G10G12G30G05G29G04G02G25
 115623968.735 7  90096656.45745  22002481.156                    22002488.922
 109340150.923 8  85200181.543 7  20806743.297                    20806750.926
 113366365.752 8  88337493.07045  21572905.898                    21572914.328
 107036140.228 8  83404857.097 8  20368287.500                    20368294.973
 125645370.736 6  97905511.904 6  23909520.258                    23909529.352
 125481530.630 6  97777951.09343  23878328.992                    23878338.168
 110554424.876 8  86146361.07346  21037783.711                    21037789.688
 115525188.787 8  90019475.421 7  21983665.797                    21983676.570
 11  8 15  1 53  0.0000000  0  8G10G12G30G05G29G04G02G25
 115702517.064 7  90157862.93945  22017428.117                    22017436.402
 109358756.384 8  85214679.299 7  20810283.914                    20810291.621
 113341226.504 8  88317904.04145  21568122.258                    21568131.105
 107012062.197 8  83386095.016 8  20363705.398                    20363712.930
 125562774.955 7  97841151.592 6  23893802.453                    23893811.805
 125562967.714 6  97841408.56743  23893825.383                    23893834.957
 110583937.913 8  86169358.24846  21043399.953                    21043405.941
 115477519.258 8  89982330.326 7  21974594.625                    21974605.258
 11  8 15  1 53 30.0000000  0  8G10G12G30G05G29G04G02G25
 115781479.838 8  90219392.35645  22032454.383                    22032462.637
 109377936.435 8  85229624.778 7  20813933.484                    20813941.008
 113316691.492 8  88298785.84345  21563452.969                    21563461.734
 106988557.697 8  83367779.839 8  20359232.570                    20359240.102
 125480140.010 7  97776760.759 6  23878077.734                    23878086.719
 125644362.452 6  97904833.07043  23909314.516                    23909324.473
 110613587.988 8  86192462.20846  21049042.195                    21049047.738
 115430372.571 8  89945592.644 7  21965623.148                    21965633.652
 11  8 15  1 54  0.0000000  0  8G10G12G30G05G29G04G02G25
 115860853.599 7  90281242.04245  22047558.859                    22047567.512
 109397690.195 8  85245017.309 7  20817692.641                    20817700.074
 113292760.962 8  88280138.68045  21558899.539                    21558908.012
 106965626.871 8  83349911.677 8  20354869.219                    20354877.207
 125397467.187 7  97712340.391 6  23862345.953                    23862355.246
 125725713.937 6  97968223.86243  23924795.313                    23924805.027
 110643374.044 8  86215672.12546  21054709.883                    21054716.090
 115383749.977 8  89909263.349 7  21956751.164                    21956761.531
 11  8 15  1 54 30.0000000  0  8G10G12G30G05G29G04G02G25
 115940636.668 7  90343410.65245  22062741.063                    22062749.125
 109418017.432 8  85260856.706 7  20821560.844                    20821568.504
 113269436.414 8  88261963.70545  21554460.852                    21554469.488
 106943270.751 8  83332491.350 8  20350615.219                    20350622.832
 125314757.973 7  97647891.682 6  23846606.570                    23846615.492
 125807022.183 6  98031580.98443  23940267.820                    23940276.805
 110673296.175 8  86238988.06646  21060404.570                    21060410.289
 115337653.870 8  89873344.309 7  21947979.023                    21947989.648
 11  8 15  1 55  0.0000000  0  8G10G12G30G05G29G04G02G25
 116020825.699 7  90405895.61045  22078000.766                    22078008.758
 109438917.058 8  85277142.120 7  20825537.977                    20825545.457
 113246718.223 8  88244261.22045  21550137.672                    21550146.293
 106921489.577 8  83315519.023 8  20346470.281                    20346477.957
 125232013.110 7  97583415.185 6  23830860.844                    23830870.457
 125888286.448 7  98094903.79943  23955732.430                    23955741.215
 110703353.273 8  86262409.17446  21066123.914                    21066129.543
 115292085.599 8  89837836.561 7  21939307.922                    21939318.770
 11  8 15  1 55 30.0000000  0  8G10G12G30G05G29G04G02G25
 116101417.889 7  90468694.71845  22093336.547                    22093344.387
 109460388.574 8  85293873.164 7  20829623.867                    20829631.391
 113224607.035 8  88227031.72645  21545930.273                    21545938.449
 106900283.914 8  83298995.151 8  20342434.414                    20342441.941
 125149233.491 6  97518911.617 6  23815108.617                    23815117.766
 125969506.393 7  98158192.07843  23971186.648                    23971196.730
 110733544.693 8  86285934.95246  21071869.039                    21071875.184
 115247046.838 8  89802741.421 7  21930737.320                    21930747.574
 11  8 15  1 56  0.0000000  0  8G10G12G30G05G29G04G02G25
 116182410.457 7  90531805.79845  22108748.813                    22108756.781
 109482430.849 8  85311048.940 7  20833818.391                    20833825.980
 113203103.215 8  88210275.50845  21541837.969                    21541846.422
 106879653.810 8  83282919.765 8  20338508.945                    20338516.641
 125066420.099 7  97454381.740 6  23799349.594                    23799358.727
 126050681.201 6  98221445.19743  23986634.102                    23986643.938
 110763869.428 8  86309564.61246  21077639.734                    21077645.738
 115202538.911 8  89768059.929 7  21922267.758                    21922277.875
 11  8 15  1 56 30.0000000  0  8G10G12G30G05G29G04G02G25
 116263801.019 7  90595227.00445  22124237.047                    22124245.207
 109505043.200 8  85328668.954 7  20838121.477                    20838129.328
 113182207.437 8  88193993.08945  21537862.031                    21537870.547
 106859599.704 8  83267293.215 8  20334692.844                    20334700.465
 124983574.191 6  97389826.520 6  23783583.891                    23783593.938
 126131810.264 6  98284662.66643  24002072.664                    24002082.137
 110794326.719 8  86333297.55846  21083435.938                    21083441.207
 115158563.373 8  89733793.284 7  21913899.586                    21913909.879
 11  8 15  1 57  0.0000000  0  8G10G12G30G05G29G04G02G25
 116345587.053 7  90658956.36045  22139800.305                    22139808.926
 109528225.031 8  85346732.712 7  20842532.750                    20842540.492
 113161920.696 8  88178185.24645  21534001.375                    21534009.742
 106840122.313 8  83252116.048 8  20330986.195                    20330994.125
 124900696.893 6  97325246.861 6  23767813.352                    23767822.648
 126212893.912 6  98347844.74943  24017502.453                    24017511.668
 110824916.572 8  86357133.80746  21089256.766                    21089262.559
 115115122.374 8  89699943.156 7  21905632.672                    21905643.512
 11  8 15  1 57 30.0000000  0  8G10G12G30G05G29G04G02G25
 116427764.572 7  90722990.78245  22155437.938                    22155446.570
 109551974.524 8  85365238.805 7  20847052.281                    20847059.688
 113142242.438 8  88162851.54745  21530256.844                    21530265.184
 106821220.969 8  83237387.747 8  20327389.742                    20327397.168
 124817788.786 7  97260643.180 6  23752035.953                    23752045.484
 126293930.190 6  98410989.94543  24032922.875                    24032932.105
 110855636.568 8  86381071.45546  21095102.813                    21095108.406
 115072216.195 8  89666509.782 7  21897468.031                    21897478.512
 11  8 15  1 58  0.0000000  0  8G10G12G30G05G29G04G02G25
 116510331.271 7  90787328.45545  22171150.180                    22171158.422
 109576291.529 8  85384187.113 7  20851679.531                    20851686.926
 113123173.675 8  88147992.77445  21526627.891                    21526636.785
 106802896.388 8  83223108.884 8  20323902.664                    20323910.063
 124734851.424 7  97196016.696 6  23736253.875                    23736263.434
 126374919.373 6  98474098.49443  24048334.578                    24048343.973
 110886487.008 8  86405110.74946  21100973.477                    21100979.012
 115029846.965 8  89633494.809 7  21889405.445                    21889416.168
 11  8 15  1 58 30.0000000  0  8G10G12G30G05G29G04G02G25
 116593284.390 7  90851967.23745  22186935.625                    22186944.168
 109601174.582 8  85403576.507 7  20856414.484                    20856422.230
 113104714.752 8  88133609.20845  21523115.680                    21523123.809
 106785148.587 8  83209279.447 8  20320525.000                    20320532.426
 124651885.760 7  97131368.160 6  23720466.211                    23720475.445
 126455860.884 6  98537169.82143  24063737.844                    24063746.422
 110917466.902 8  86429250.91546  21106868.594                    21106874.012
 114988016.054 8  89600899.308 7  21881445.203                    21881455.906
 11  8 15  1 59  0.0000000  0  8G10G12G30G05G29G04G02G25
 116676621.642 7  90916905.33445  22202794.719                    22202802.660
 109626623.101 8  85423406.514 7  20861257.438                    20861264.824
 113086866.531 8  88119701.51745  21519719.086                    21519728.172
 106767978.468 8  83195900.161 8  20317257.969                    20317265.387
 124568893.358 7  97066698.788 6  23704673.289                    23704682.152
 126536754.603 6  98600203.93443  24079131.273                    24079139.785
 110948576.200 8  86453491.91746  21112788.484                    21112794.137
 114946725.285 8  89568724.693 7  21873588.023                    21873598.535
 11  8 15  1 59 30.0000000  0  8G10G12G30G05G29G04G02G25
 116760339.351 7  90982139.90545  22218725.203                    22218733.059
 109652636.156 8  85443676.420 7  20866207.648                    20866215.059
 113069628.911 7  88106269.60245  21516438.922                    21516447.375
 106751385.683 8  83182970.742 8  20314100.234                    20314108.016
 124485874.585 7  97002008.859 6  23688875.367                    23688884.246
 126617599.707 6  98663200.16143  24094515.695                    24094524.578
 110979813.566 8  86477832.71546  21118732.469                    21118738.258
 114905975.620 8  89536971.716 7  21865833.891                    21865844.617
 11  8 15  2  0  0.0000000  0  8G10G12G30G05G29G04G02G25
 116844434.881 7  91047668.88045  22234727.977                    22234736.645
 109679212.264 8  85464385.070 7  20871264.680                    20871272.168
 113053002.002 8  88093313.57945  21513275.211                    21513283.508
 106735369.842 8  83170490.884 8  20311052.547                    20311059.961
 124402830.410 7  96937299.138 6  23673072.414                    23673081.848
 126698395.497 6  98726158.00143  24109889.672                    24109899.336
 111011177.833 8  86502272.39846  21124701.039                    21124706.719
 114865768.168 8  89505641.254 7  21858182.281                    21858192.836
 11  8 15  2  0 30.0000000  0  8G10G12G30G05G29G04G02G25
 116928905.024 7  91113489.75345  22250802.008                    22250810.328
 109706349.846 8  85485531.242 7  20876428.703                    20876436.660
 113036986.056 8  88080833.62645  21510227.164                    21510235.422
 106719931.110 8  83158460.732 8  20308114.594                    20308122.168
 124319761.952 7  96872570.476 6  23657264.781                    23657273.766
 126779141.413 7  98789076.94343  24125254.883                    24125264.352
 111042667.867 8  86526810.07346  21130693.695                    21130699.176
 114826104.221 8  89474734.286 7  21850634.625                    21850645.160
 11  8 15  2  1  0.0000000  0  8G10G12G30G05G29G04G02G25
 117013747.501 7  91179600.77145  22266947.141                    22266955.012
 109734048.755 7  85507114.814 7  20881699.594                    20881707.543
 113021581.741 8  88068830.27245  21507295.758                    21507304.004
 106705070.252 8  83146880.861 8  20305286.547                    20305294.098
 124236670.855 7  96807824.196 6  23641453.195                    23641462.172
 126859837.219 6  98851956.84443  24140610.680                    24140620.332
 111074283.896 8  86551445.94446  21136710.070                    21136715.785
 114786985.539 8  89444252.218 7  21843190.641                    21843200.953
 11  8 15  2  1 30.0000000  0  8G10G12G30G05G29G04G02G25
 117098959.873 7  91246000.00745  22283162.383                    22283170.660
 109762307.789 8  85529134.835 7  20887077.070                    20887084.898
 113006789.545 8  88057303.89145  21504480.789                    21504489.266
 106690787.410 8  83135751.404 8  20302568.859                    20302576.344
 124153558.281 7  96743061.168 6  23625637.305                    23625646.461
 126940482.886 6  98914797.68343  24155957.930                    24155966.859
 111106025.407 8  86576179.57746  21142750.055                    21142755.520
 114748413.680 8  89414196.246 7  21835850.289                    21835861.066
 11  8 15  2  2  0.0000000  0  8G10G12G30G05G29G04G02G25
 117184539.028 7  91312685.07045  22299447.906                    22299455.559
 109791125.537 8  85551590.217 7  20892561.047                    20892568.789
 112992609.566 7  88046254.56645  21501782.633                    21501791.043
 106677082.175 8  83125072.031 8  20299960.688                    20299968.051
 124070425.380 7  96678282.311 6  23609818.008                    23609826.531
 127021077.706 6  98977598.87643  24171293.977                    24171303.250
 111137891.449 7  86601010.26346  21148813.781                    21148819.441
 114710389.788 8  89384567.274 7  21828614.359                    21828625.367
 11  8 15  2  2 30.0000000  0  8G10G12G30G05G29G04G02G25
 117270481.509 7  91379653.23044  22315801.883                    22315810.215
 109820500.728 8  85574479.975 7  20898151.016                    20898158.855
 112979041.491 8  88035682.04846  21499200.430                    21499209.180
 106663954.269 8  83114842.514 8  20297462.477                    20297470.035
 123987272.679 7  96613488.041 6  23593994.031                    23594003.492
 127101620.881 6  99040359.82042  24186621.398                    24186630.074
 111169880.662 8  86625936.92846  21154901.305                    21154906.969
 114672914.561 8  89355365.822 7  21821483.617                    21821494.109
 11  8 15  2  3  0.0000000  0  8G10G12G30G05G29G04G02G25
 117356785.072 7  91446902.74344  22332225.180                    22332233.438
 109850432.617 8  85597803.527 7  20903847.000                    20903854.449
 112966086.160 8  88025586.97745  21496735.172                    21496743.773
 106651404.378 8  83105063.406 8  20295074.141                    20295081.703
 123904102.163 7  96548679.895 6  23578167.109                    23578176.586
 127182112.550 6  99103080.63742  24201938.711                    24201947.359
 111201993.389 8  86650959.82946  21161012.000                    21161018.012
 114635989.985 8  89326593.446 7  21814456.750                    21814467.285
 11  8 15  2  3 30.0000000  0  8G10G12G30G05G29G04G02G25
 117443446.763 7  91514431.32844  22348716.188                    22348724.281
 109880920.006 8  85621559.935 7  20909648.188                    20909655.973
 112953743.685 8  88015969.46646  21494386.398                    21494395.230
 106639432.436 8  83095734.644 8  20292796.250                    20292803.973
 123820914.947 7  96483858.735 6  23562336.680                    23562346.688
 127262552.201 6  99165760.91643  24217245.555                    24217254.285
 111234228.730 8  86676078.27746  21167146.289                    21167152.496
 114599617.147 8  89298250.996 7  21807534.992                    21807545.500
 11  8 15  2  4  0.0000000  0  8G10G12G30G05G29G04G02G25
 117530463.716 7  91582236.73944  22365275.359                    22365282.824
 109911961.594 8  85645748.179 7  20915555.625                    20915563.750
 112942014.088 8  88006829.50845  21492154.477                    21492162.961
 106628038.036 8  83086855.918 8  20290627.828                    20290635.551
 123737712.079 7  96419025.388 6  23546504.328                    23546513.805
 127342939.390 6  99228400.28043  24232542.125                    24232551.832
 111266585.919 8  86701291.67446  21173303.680                    21173309.215
 114563797.237 8  89270339.401 7  21800718.922                    21800729.527
 11  8 15  2  4 30.0000000  0  8G10G12G30G05G29G04G02G25
 117617832.607 7  91650316.38244  22381900.445                    22381909.145
 109943555.404 8  85670366.737 7  20921567.523                    20921575.336
 112930897.058 8  87998166.87945  21490038.930                    21490047.348
 106617220.737 8  83078426.871 8  20288569.336                    20288576.863
 123654494.344 7  96354180.441 6  23530668.195                    23530678.012
 127423273.386 6  99290998.24043  24247829.430                    24247839.008
 111299063.466 8  86726598.86846  21179484.102                    21179489.949
 114528531.009 8  89242859.249 7  21794008.055                    21794018.602
 11  8 15  2  5  0.0000000  0  8G10G12G30G05G29G04G02G25
 117705550.732 7  91718668.15444  22398593.109                    22398601.422
 109975700.262 8  85695414.677 7  20927684.461                    20927692.363
 112920392.603 8  87989981.58846  21488040.227                    21488048.359
 106606980.563 8  83070447.546 8  20286620.727                    20286628.133
 123571263.059 7  96289324.923 6  23514829.344                    23514839.246
 127503553.732 6  99353554.33743  24263106.594                    24263115.246
 111331660.696 8  86751999.30946  21185686.883                    21185692.477
 114493819.544 8  89215811.377 7  21787402.516                    21787413.082
 11  8 15  2  5 30.0000000  0  8G10G12G30G05G29G04G02G25
 117793615.693 7  91787290.20144  22415351.367                    22415359.598
 110008395.591 8  85720891.558 7  20933906.344                    20933913.590
 112910501.419 8  87982274.17046  21486157.898                    21486166.313
 106597317.906 8  83062918.233 8  20284781.883                    20284789.418
 123488019.782 7  96224460.058 6  23498989.055                    23498998.629
 127583780.540 6  99416068.74843  24278373.227                    24278381.770
 111364378.147 8  86777493.43846  21191912.742                    21191918.926
 114459664.653 8  89189197.201 7  21780903.055                    21780913.520
 11  8 15  2  6  0.0000000  0  8G10G12G30G05G29G04G02G25
 117882024.542 7  91856180.19544  22432174.867                    22432183.051
 110041640.279 8  85746796.499 7  20940232.445                    20940240.355
 112901223.441 8  87975044.56746  21484392.617                    21484400.824
 106588232.570 8  83055838.780 8  20283053.188                    20283060.367
 123404765.695 7  96159586.787 6  23483146.008                    23483155.867
 127663953.469 6  99478541.15743  24293629.063                    24293638.156
 111397215.039 8  86803080.63446  21198161.719                    21198167.461
 114426067.340 8  89163017.490 7  21774509.469                    21774520.281
 11  8 15  2  6 30.0000000  0  9G10G12G30G26G05G29G04G02G25
 117970773.670 7  91925335.33945  22449063.234                    22449071.750
 110075432.117 8  85773127.794 7  20946662.719                    20946670.594
 112892557.796 8  87968292.12445  21482743.141                    21482751.691
 130419886.88616 101625956.01352  24818088.156                    24818097.574
 106579723.522 8  83049208.377 8  20281433.734                    20281441.020
 123321501.383 7  96094705.534 6  23467301.703                    23467311.051
 127744071.506 6  99540970.73743  24308875.609                    24308885.164
 111430169.537 8  86828759.46746  21204432.352                    21204438.426
 114393027.899 8  89137272.489 7  21768222.516                    21768233.266
 11  8 15  2  7  0.0000000  0  9G10G12G30G26G05G29G04G02G25
 118059861.680 7  91994754.55744  22466016.117                    22466024.801
 110109770.647 8  85799885.089 7  20953197.289                    20953204.574
 112884506.080 8  87962018.05746  21481211.391                    21481220.141
 130326670.232 6 101553319.76742  24800349.836                    24800359.633
 106571791.918 8  83043027.940 8  20279924.297                    20279931.891
 123238229.745 7  96029818.564 6  23451455.531                    23451465.031
 127824135.554 6  99603358.31843  24324111.031                    24324119.836
 111463242.774 8  86854530.82746  21210726.039                    21210732.195
 114360548.973 8  89111964.254 7  21762041.992                    21762052.453
 11  8 15  2  7 30.0000000  0  9G10G12G30G26G05G29G04G02G25
 118149284.879 7  92064434.95644  22483032.516                    22483041.117
 110144653.908 7  85827066.853 7  20959835.328                    20959842.996
 112877067.162 8  87956221.49546  21479795.891                    21479803.891
 130233325.860 6 101480583.97542  24782586.719                    24782596.574
 106564437.044 8  83037296.890 8  20278524.914                    20278532.156
 123154951.373 7  95964926.349 6  23435608.352                    23435617.477
 127904144.501 6  99665702.95443  24339336.297                    24339346.102
 111496433.096 7  86880393.42146  21217041.992                    21217048.043
 114328630.699 8  89087092.891 7  21755967.938                    21755978.480
 11  8 15  2  8  0.0000000  0  9G10G12G30G26G05G29G04G02G25
 118239040.023 7  92134374.00444  22500112.898                    22500120.840
 110180080.108 8  85854671.671 7  20966576.648                    20966584.164
 112870240.899 8  87950902.33746  21478496.578                    21478504.711
 130139856.682 6 101407750.84042  24764799.734                    24764810.063
 106557658.087 8  83032014.613 8  20277235.141                    20277242.555
 123071666.741 7  95900029.244 6  23419759.773                    23419769.301
 127984097.776 6  99728004.16343  24354551.320                    24354559.969
 111529739.659 8  86906346.58846  21223380.055                    21223385.746
 114297273.842 8  89062658.986 7  21750000.813                    21750011.668
 11  8 15  2  8 30.0000000  0  9G10G12G30G26G05G29G04G02G25
 118329124.236 7  92204569.48044  22517254.391                    22517263.324
 110216047.959 8  85882698.564 7  20973421.016                    20973428.707
 112864026.950 8  87946060.29945  21477314.234                    21477322.582
 130046265.375 5 101334822.69742  24746990.156                    24746999.324
 106551454.816 8  83027180.921 8  20276054.398                    20276061.684
 122988377.266 7  95835128.358 6  23403910.508                    23403919.262
 128063995.065 7  99790261.79743  24369755.555                    24369764.426
 111563162.008 8  86932389.98046  21229739.977                    21229746.047
 114266479.392 8  89038663.324 7  21744141.172                    21744151.828
 11  8 15  2  9  0.0000000  0  9G10G12G30G26G05G29G04G02G25
 118419534.565 7  92275019.07644  22534459.734                    22534467.586
 110252556.031 8  85911146.410 7  20980368.172                    20980376.055
 112858425.334 8  87941695.41745  21476248.008                    21476256.613
 129952554.646 5 101261801.50342  24729157.844                    24729167.566
 106545826.903 8  83022795.564 8  20274983.320                    20274990.887
 122905084.416 7  95770224.857 6  23388060.602                    23388069.082
 128143836.068 7  99852475.54443  24384947.391                    24384957.039
 111596699.236 8  86958522.88646  21236122.102                    21236127.805
 114236248.344 8  89015106.683 7  21738388.375                    21738399.211
 11  8 15  2  9 30.0000000  0  9G10G12G30G26G05G29G04G02G25
 118510268.308 7  92345720.69044  22551725.813                    22551734.531
 110289602.561 8  85940013.832 7  20987418.086                    20987425.750
 112853435.791 8  87937807.48045  21475298.578                    21475306.844
 129858727.548 6 101188689.57142  24711302.219                    24711312.355
 106540774.082 8  83018858.324 8  20274021.906                    20274029.375
 122821789.392 7  95705319.682 6  23372210.047                    23372218.805
 128223620.501 6  99914645.21743  24400130.469                    24400139.664
 111630350.950 8  86984745.00246  21242525.695                    21242531.430
 114206581.661 8  88991989.795 7  21732743.016                    21732753.363
 11  8 15  2 10  0.0000000  0  9G10G12G30G26G05G29G04G02G25
 118601322.588 7  92416672.06144  22569053.336                    22569061.215
 110327186.838 8  85969300.274 7  20994570.359                    20994577.816
 112849058.185 8  87934396.37045  21474465.492                    21474473.797
 129764787.080 6 101115489.28242  24693426.469                    24693436.281
 106536295.950 8  83015368.903 8  20273169.617                    20273177.438
 122738493.833 7  95640414.083 6  23356359.211                    23356368.078
 128303348.130 7  99976770.59743  24415302.500                    24415311.336
 111664116.539 8  87011055.85446  21248951.141                    21248956.746
 114177480.359 8  88969313.475 7  21727204.969                    21727215.566
 11  8 15  2 10 30.0000000  0  9G10G12G30G26G05G29G04G02G25
 118692694.287 7  92487870.79244  22586439.711                    22586448.242
 110365306.473 8  85999003.884 7  21001824.203                    21001831.652
 112845292.039 8  87931461.72846  21473748.875                    21473757.082
 129670735.963 6 101042202.82543  24675528.484                    24675539.121
 106532391.695 8  83012326.646 8  20272426.969                    20272434.070
 122655198.602 7  95575508.754 6  23340508.531                    23340517.590
 128383018.283 6 100038851.21143  24430462.984                    24430471.711
 111697995.286 7  87037454.88046  21255398.047                    21255403.582
 114148945.045 8  88947078.187 7  21721775.172                    21721785.570
 11  8 15  2 11  0.0000000  0  9G10G12G30G26G05G29G04G02G25
 118784380.583 7  92559314.65344  22603887.906                    22603895.434
 110403960.495 8  86029123.897 7  21009180.000                    21009187.410
 112842137.388 8  87929003.57246  21473148.539                    21473156.832
 129576577.347 6 100968832.58643  24657611.102                    24657621.500
 106529061.628 8  83009731.808 8  20271792.844                    20271800.375
 122571905.290 7  95510604.915 6  23324657.891                    23324667.320
 128462631.447 6 100100887.37643  24445613.461                    24445622.328
 111731986.909 8  87063941.86446  21261866.391                    21261872.133
 114120976.968 8  88925284.895 7  21716452.773                    21716463.434
 11  8 15  2 11 30.0000000  0  9G10G12G30G26G05G29G04G02G25
 118876378.744 7  92631001.52444  22621394.258                    22621402.367
 110443146.755 8  86059658.644 7  21016636.641                    21016644.098
 112839593.682 8  87927021.46846  21472664.852                    21472672.961
 129482314.061 6 100895380.73643  24639673.328                    24639683.250
 106526304.994 8  83007583.803 8  20271268.344                    20271275.699
 122488615.184 6  95445703.593 6  23308809.086                    23308817.586
 128542186.657 6 100162878.43043  24460751.867                    24460761.234
 111766090.663 8  87090516.21946  21268356.500                    21268362.020
 114093576.795 8  88903934.135 7  21711238.773                    21711249.090
 11  8 15  2 12  0.0000000  0  9G10G12G30G26G05G29G04G02G25
 118968685.495 7  92702928.86044  22638959.445                    22638967.707
 110482863.495 8  86090606.742 7  21024194.750                    21024202.438
 112837660.491 7  87925515.10146  21472296.742                    21472305.211
 129387949.027 6 100821849.61543  24621716.570                    24621726.750
 106524121.035 8  83005882.037 8  20270853.070                    20270860.148
 122405329.824 6  95380805.970 6  23292959.289                    23292969.309
 128621683.662 6 100224824.09543  24475879.578                    24475889.039
 111800305.690 8  87117177.29246  21274867.086                    21274872.859
 114066745.192 8  88883026.412 7  21706132.750                    21706143.305
 11  8 15  2 12 30.0000000  0  9G10G12G30G26G05G29G04G02G25
 119061298.426 7  92775094.76444  22656583.055                    22656591.188
 110523109.796 8  86121967.484 7  21031853.094                    21031860.945
 112836337.843 8  87924484.47745  21472045.305                    21472053.398
 129293485.332 6 100748241.55543  24603740.078                    24603750.637
 106522509.847 8  83004626.590 8  20270546.273                    20270553.277
 122322050.442 7  95315913.006 6  23277112.633                    23277121.691
 128701122.604 6 100286724.53442  24490996.375                    24491005.148
 111834632.039 8  87143925.09946  21281399.430                    21281405.020
 114040483.292 8  88862562.617 7  21701135.477                    21701145.969
 11  8 15  2 13  0.0000000  0  9G10G12G30G26G05G29G04G02G25
 119154214.641 7  92847496.99744  22674264.484                    22674272.777
 110563883.857 8  86153739.482 7  21039612.406                    21039619.922
 112835625.238 8  87923929.21945  21471909.141                    21471917.781
 129198925.890 6 100674558.89343  24585746.594                    24585756.492
 106521470.566 8  83003816.783 8  20270348.430                    20270355.621
 122238778.331 7  95251025.702 6  23261266.125                    23261275.238
 128780502.972 6 100348579.31542  24506102.031                    24506110.598
 111869068.767 8  87170758.91346  21287952.438                    21287958.176
 114014791.780 8  88842543.280 7  21696246.336                    21696256.590
 11  8 15  2 13 30.0000000  0  9G10G12G30G26G05G29G04G02G25
 119247431.093 7  92920133.17344  22692003.266                    22692011.637
 110605183.791 8  86185921.240 7  21047471.469                    21047479.090
 112835522.043 8  87923848.81945  21471889.805                    21471898.105
 129104273.670 7 100600803.92343  24567734.648                    24567744.516
 106521002.570 8  83003452.135 8  20270259.297                    20270266.754
 122155514.866 7  95186145.143 6  23245421.164                    23245431.082
 128859824.533 6 100410388.26342  24521196.828                    24521206.070
 111903615.314 8  87197678.30646  21294526.305                    21294531.801
 113989671.289 8  88822968.882 7  21691465.938                    21691476.621
 11  8 15  2 14  0.0000000  0  9G10G12G30G26G05G29G04G02G25
 119340944.832 6  92993001.00744  22709798.547                    22709806.574
 110647008.181 8  86218511.666 7  21055430.164                    21055437.883
 112836027.913 8  87924243.02446  21471985.984                    21471994.309
 129009531.694 6 100526979.06843  24549705.688                    24549715.715
 106521105.396 8  83003532.284 8  20270279.117                    20270286.293
 122072261.614 7  95121272.548 6  23229578.469                    23229588.055
 128939087.111 6 100472151.30243  24536280.188                    24536288.867
 111938271.243 8  87224682.92746  21301121.328                    21301127.352
 113965122.591 8  88803840.040 7  21686794.789                    21686804.996
 11  8 15  2 14 30.0000000  0  9G10G12G30G26G05G29G04G02G25
 119434753.005 6  93066098.25044  22727649.695                    22727658.059
 110689354.951 8  86251509.147 7  21063488.859                    21063495.930
 112837142.456 7  87925111.51246  21472198.203                    21472206.234
 128914703.152 7 100453086.83943  24531660.898                    24531670.504
 106521778.456 8  83004056.763 8  20270406.883                    20270414.141
 121989019.791 7  95056408.845 6  23213738.453                    23213747.898
 129018290.147 6 100533867.88242  24551350.844                    24551360.992
 111973035.943 7  87251772.29746  21307736.602                    21307741.988
 113941146.458 8  88785157.358 7  21682231.969                    21682242.328
 11  8 15  2 15  0.0000000  0  9G10G12G30G26G05G29G04G02G25
 119528852.547 7  93139422.55844  22745556.484                    22745564.457
 110732222.329 8  86284912.298 7  21071645.875                    21071653.406
 112838864.943 7  87926453.71646  21472525.898                    21472533.871
 128819790.766 7 100379129.22243  24513598.953                    24513608.773
 106523021.002 8  83005025.001 8  20270643.641                    20270650.762
 121905790.930 7  94991555.246 6  23197900.766                    23197909.891
 129097433.593 6 100595538.03742  24566412.031                    24566421.059
 112007908.652 8  87278945.84046  21314372.711                    21314378.426
 113917743.352 8  88766921.189 7  21677778.617                    21677788.645
 11  8 15  2 15 30.0000000  0  9G10G12G30G26G05G29G04G02G25
 119623240.515 7  93212971.59044  22763517.398                    22763525.801
 110775608.880 8  86318720.000 7  21079902.297                    21079910.008
 112841195.052 7  87928269.39845  21472969.141                    21472977.254
 128724797.768 7 100305108.78543  24495522.320                    24495532.156
 106524832.729 8  83006436.754 8  20270987.648                    20270995.316
 121822576.493 7  94926712.869 6  23182065.219                    23182074.461
 129176517.300 6 100657161.66143  24581461.563                    24581470.359
 112042889.195 7  87306203.40446  21321029.125                    21321034.578
 113894914.194 8  88749132.262 7  21673434.492                    21673445.117
 11  8 15  2 16  0.0000000  0  9G10G12G30G26G05G29G04G02G25
 119717914.302 7  93286743.37644  22781533.625                    22781541.645
 110819512.985 8  86352930.982 7  21088256.836                    21088264.504
 112844132.321 7  87930558.19145  21473528.281                    21473536.324
 128629727.290 6 100231028.02143  24477431.305                    24477440.559
 106527212.853 8  83008291.411 8  20271440.930                    20271448.598
 121739377.817 7  94861882.803 6  23166232.992                    23166242.348
 129255541.407 6 100718738.81343  24596498.750                    24596508.332
 112077977.585 7  87333545.00546  21327706.297                    21327711.977
 113872659.684 8  88731791.102 7  21669199.242                    21669209.875
 11  8 15  2 16 30.0000000  0  9G10G12G30G26G05G29G04G02G25
 119812870.781 7  93360735.41344  22799603.891                    22799611.867
 110863932.489 8  86387543.581 7  21096709.844                    21096717.246
 112847675.953 7  87933319.46745  21474202.516                    21474210.891
 128534582.310 6 100156889.16143  24459325.750                    24459334.855
 106530160.730 8  83010588.477 8  20272001.852                    20272009.379
 121656196.415 7  94797066.169 6  23150404.188                    23150413.238
 129334505.321 6 100780269.09242  24611525.602                    24611534.777
 112113172.494 7  87360969.60846  21334403.609                    21334409.430
 113850980.194 8  88714898.016 7  21665074.375                    21665084.555
 11  8 15  2 17  0.0000000  0  9G10G12G30G26G05G29G04G02G25
 119908107.084 7  93434945.50344  22817726.578                    22817734.430
 110908865.344 8  86422556.185 7  21105260.383                    21105267.492
 112851825.289 8  87936552.72945  21474991.953                    21474999.980
 128439365.567 6 100082694.42543  24441205.938                    24441216.109
 106533675.344 8  83013327.153 8  20272670.898                    20272678.137
 121573033.815 7  94732264.187 6  23134578.492                    23134587.918
 129413408.725 6 100841752.25143  24626540.367                    24626548.984
 112148473.441 8  87388476.83646  21341121.359                    21341126.758
 113829876.217 8  88698453.380 7  21661058.203                    21661068.449
 11  8 15  2 17 30.0000000  0  9G10G12G30G26G05G29G04G02G25
 120003620.680 7  93509371.66344  22835901.695                    22835909.949
 110954309.890 8  86457967.513 7  21113907.898                    21113915.520
 112856579.907 7  87940257.62945  21475896.742                    21475904.965
 128344080.406 6 100008446.34743  24423074.156                    24423084.262
 106537756.216 8  83016507.065 8  20273447.539                    20273454.855
 121489891.551 6  94667478.052 6  23118757.711                    23118766.465
 129492251.645 6 100903188.22343  24641543.320                    24641553.203
 112183880.449 8  87416066.71046  21347859.141                    21347864.461
 113809348.556 8  88682457.816 7  21657151.719                    21657162.008
 11  8 15  2 18  0.0000000  0  9G10G12G30G26G05G29G04G02G25
 120099408.628 7  93584011.62244  22854129.195                    22854137.777
 111000264.593 8  86493776.373 7  21122652.859                    21122660.598
 112861939.106 8  87944433.63445  21476916.453                    21476925.070
 128248730.112 6  99934147.48443  24404929.203                    24404939.035
 106542402.767 8  83020127.775 8  20274331.234                    20274338.793
 121406770.991 7  94602708.850 6  23102939.836                    23102949.000
 129571033.950 7 100964576.97243  24656535.625                    24656544.648
 112219392.873 8  87443738.72146  21354616.875                    21354622.215
 113789397.775 8  88666911.772 7  21653355.398                    21653365.457
 11  8 15  2 18 30.0000000  0  9G10G12G30G26G05G29G04G02G25
 120195467.670 7  93658862.82044  22872408.563                    22872416.980
 111046727.199 8  86529980.991 7  21131494.461                    21131502.023
 112867901.955 8  87949080.02046  21478051.586                    21478059.504
 128153317.344 6  99859799.96942  24386772.000                    24386782.750
 106547613.869 8  83024188.389 8  20275323.281                    20275330.742
 121323673.535 7  94537957.659 6  23087126.875                    23087135.559
 129649755.216 6 101025918.15343  24671515.852                    24671525.176
 112255009.751 8  87471492.12746  21361394.328                    21361400.199
 113770024.058 8  88651815.394 7  21649668.805                    21649678.906
 11  8 15  2 19  0.0000000  0  8G10G12G30G26G05G29G02G25
 120291795.538 7  93733923.47344  22890739.766                    22890747.578
 111093696.232 8  86566580.238 7  21140431.820                    21140439.594
 112874468.052 8  87954196.46645  21479300.859                    21479308.719
 128057845.739 6  99785406.59342  24368604.828                    24368614.598
 106553389.087 8  83028688.567 8  20276422.133                    20276429.523
 121240600.914 7  94473225.830 6  23071318.063                    23071327.688
 112290731.266 8  87499327.06646  21368191.977                    21368197.648
 113751228.301 8  88637169.371 7  21646091.992                    21646101.980
 11  8 15  2 19 30.0000000  0  8G10G12G30G26G05G29G02G25
 120388388.656 7  93809190.82644  22909120.430                    22909128.523
 111141169.194 8  86603572.160 7  21149465.969                    21149473.332
 112881636.270 8  87959782.09046  21480665.023                    21480673.152
 127962318.065 6  99710969.55843  24350426.977                    24350435.855
 106559726.790 8  83033627.062 8  20277628.234                    20277635.363
 121157554.110 7  94408514.099 6  23055515.219                    23055524.180
 112326556.633 8  87527242.92646  21375009.445                    21375015.316
 113733010.498 8  88622973.697 7  21642624.898                    21642635.141
 11  8 15  2 20  0.0000000  0  8G10G12G30G26G05G29G02G25
 120485244.304 7  93884662.75644  22927550.680                    22927559.914
 111189144.337 8  86640955.384 7  21158595.344                    21158603.086
 112889405.977 8  87965836.41145  21482143.609                    21482151.840
 127866737.506 7  99636491.32243  24332238.445                    24332247.836
 106566626.963 8  83039003.832 8  20278941.422                    20278948.625
 121074535.143 7  94343824.077 6  23039717.266                    23039726.520
 112362485.414 8  87555239.37546  21381846.555                    21381851.730
 113715371.258 8  88609228.855 7  21639268.398                    21639278.992
 11  8 15  2 20 30.0000000  0  8G10G12G30G26G05G29G02G25
 120582359.855 6  93960337.17244  22946031.688                    22946039.984
 111237619.847 8  86678728.505 7  21167819.992                    21167827.941
 112897776.300 8  87972358.75045  21483736.094                    21483744.535
 127771107.331 7  99561974.41643  24314040.750                    24314049.848
 106574088.397 8  83044817.949 8  20280361.008                    20280368.980
 120991545.274 7  94279156.733 7  23023924.680                    23023934.191
 112398517.160 7  87583316.04846  21388703.070                    21388708.703
 113698310.962 8  88595935.136 7  21636022.125                    21636032.117
 11  8 15  2 21  0.0000000  0  8G10G12G30G26G05G29G02G25
 120679732.002 6  94036211.56844  22964560.758                    22964569.051
 111286593.892 8  86716890.101 7  21177139.523                    21177147.348
 112906746.502 8  87979348.51945  21485443.516                    21485451.219
 127675430.449 6  99487421.08643  24295833.828                    24295842.066
 106582110.237 8  83051068.753 8  20281887.711                    20281894.875
 120908586.323 7  94214513.481 6  23008138.281                    23008147.574
 112434651.300 8  87611472.52646  21395579.344                    21395584.770
 113681830.026 8  88583092.872 7  21632885.383                    21632896.043
 11  8 15  2 21 30.0000000  0  8G10G12G30G26G05G29G02G25
 120777358.112 6  94112283.83844  22983138.680                    22983146.730
 111336064.430 8  86755438.570 7  21186553.461                    21186561.305
 112916315.857 8  87986805.15745  21487264.211                    21487272.500
 127579710.091 7  99412833.91643  24277618.602                    24277627.793
 106590691.318 8  83057755.327 8  20283520.570                    20283527.902
 120825659.711 7  94149895.436 6  22992357.688                    22992366.516
 112470887.864 8  87639708.80746  21402474.641                    21402480.531
 113665928.929 8  88570702.433 7  21629859.688                    21629870.367
 11  8 15  2 22  0.0000000  0  8G10G12G30G26G05G29G02G25
 120875235.485 6  94188551.91344  23001763.609                    23001772.496
 111386029.342 8  86794372.275 7  21196061.242                    21196069.191
 112926483.576 8  87994728.04845  21489199.133                    21489207.625
 127483949.574 7  99338215.44343  24259396.258                    24259405.383
 106599831.505 8  83064877.572 8  20285259.672                    20285267.195
 120742767.132 7  94085303.898 7  22976583.984                    22976592.941
 112507226.359 8  87668024.52446  21409390.031                    21409395.426
 113650608.106 8  88558764.150 7  21626944.539                    21626954.445
 11  8 15  2 22 30.0000000  0  8G10G12G30G26G05G29G02G25
 120973361.307 6  94265013.55644  23020437.148                    23020445.121
 111436486.661 8  86833689.667 7  21205662.930                    21205670.555
 112937248.568 8  88003116.36146  21491247.805                    21491256.012
 127388152.207 6  99263568.22943  24241166.156                    24241175.273
 106609529.783 8  83072434.687 8  20287105.266                    20287112.766
 120659910.124 7  94020740.078 6  22960816.398                    22960825.469
 112543666.411 8  87696419.37746  21416323.789                    21416329.535
 113635867.728 8  88547278.153 7  21624139.727                    21624149.746
 11  8 15  2 23  0.0000000  0  8G10G12G30G26G05G29G02G25
 121071732.455 6  94341666.39544  23039156.930                    23039165.008
 111487433.806 8  86873388.746 7  21215358.031                    21215365.426
 112948609.477 8  88011969.01746  21493409.523                    21493417.617
 127292320.661 6  99188894.40243  24222929.820                    24222939.855
 106619784.347 8  83080425.273 8  20289056.922                    20289064.027
 120577089.952 7  93956204.978 6  22945056.031                    22945065.688
 112580206.884 8  87724892.47846  21423277.367                    21423283.207
 113621707.694 8  88536244.372 7  21621444.867                    21621455.195
 11  8 15  2 23 30.0000000  0  8G10G12G30G26G05G29G02G25
 121170346.046 7  94418508.11744  23057922.242                    23057930.801
 111538868.947 8  86913468.071 7  21225145.828                    21225153.715
 112960565.616 8  88021285.48745  21495685.055                    21495692.785
 127196458.421 7  99114196.62543  24204687.859                    24204696.906
 106630594.385 8  83088848.698 8  20291113.555                    20291120.898
 120494308.308 7  93891699.890 6  22929302.703                    22929311.996
 112616847.817 8  87753443.86746  21430250.078                    21430255.645
 113608128.466 8  88525663.174 7  21618860.203                    21618871.082
 11  8 15  2 24  0.0000000  0  8G10G12G30G26G05G29G02G25
 121269199.338 7  94495536.64044  23076733.414                    23076741.578
 111590790.357 8  86953926.315 7  21235025.852                    21235033.559
 112973116.231 8  88031065.19846  21498072.875                    21498081.457
 127100568.956 7  99039477.63443  24186440.719                    24186450.336
 106641959.373 8  83097704.551 8  20293276.250                    20293283.527
 120411566.920 7  93827226.164 6  22913557.938                    22913567.211
 112653589.410 8  87782073.69546  21437241.609                    21437247.016
 113595130.453 8  88515534.859 7  21616387.398                    21616397.477
 11  8 15  2 24 30.0000000  0  8G10G12G30G26G05G29G02G25
 121368289.257 7  94572749.53544  23095589.508                    23095597.789
 111643195.474 8  86994761.482 7  21244998.305                    21245005.727
 112986259.712 8  88041306.87846  21500574.344                    21500582.551
 127004654.901 7  98964739.47843  24168189.086                    24168198.332
 106653877.418 8  83106991.354 8  20295544.391                    20295551.199
 120328867.188 7  93762784.888 6  22897821.023                    22897829.992
 112690430.224 8  87810780.83046  21444252.211                    21444258.035
 113582713.372 8  88505859.226 7  21614024.438                    21614034.832
 11  8 15  2 25  0.0000000  0  8G10G12G30G26G05G29G02G25
 121467613.397 7  94650144.93844  23114490.422                    23114499.191
 111696082.386 8  87035972.060 7  21255062.430                    21255070.223
 112999995.547 8  88052010.13246  21503187.844                    21503196.074
 126908719.876 7  98889984.99544  24149933.039                    24149942.609
 106666348.202 8  83116708.863 8  20297917.492                    20297924.254
 120246211.064 7  93698377.599 6  22882091.844                    22882100.387
 112727370.422 8  87839565.42546  21451281.672                    21451287.168
 113570877.884 8  88496636.786 7  21611772.133                    21611782.652
 11  8 15  2 25 30.0000000  0  8G10G12G30G26G05G29G02G25
 121567168.455 7  94727720.28944  23133434.906                    23133443.309
 111749448.625 8  87077556.142 7  21265217.781                    21265225.324
 113014322.243 7  88063173.79345  21505914.047                    21505922.340
 126812767.040 7  98815216.60043  24131674.117                    24131683.008
 106679370.108 8  83126855.824 8  20300395.313                    20300402.738
 120163599.921 7  93634005.358 6  22866371.133                    22866379.965
 112764409.558 8  87868427.10246  21458330.094                    21458335.813
 113559623.737 8  88487867.332 7  21609630.391                    21609640.570
 11  8 15  2 26  0.0000000  0  8G10G12G30G26G05G29G02G25
 121666951.908 7  94805473.57844  23152422.773                    23152430.902
 111803292.447 8  87119512.370 7  21275463.695                    21275471.441
 113029238.952 8  88074797.21445  21508752.555                    21508761.441
 126716799.625 6  98740436.87943  24113411.344                    24113420.934
 106692942.033 8  83137431.364 8  20302978.063                    20302985.242
 120081035.330 7  93569669.372 6  22850659.781                    22850668.645
 112801547.206 8  87897365.54846  21465397.063                    21465402.695
 113548951.286 8  88479551.156 7  21607599.477                    21607610.063
 11  8 15  2 26 30.0000000  0  8G10G12G30G26G05G29G02G25
 121766960.732 7  94883402.50444  23171454.547                    23171462.672
 111857611.464 8  87161838.877 7  21285800.359                    21285808.125
 113044744.548 8  88086879.49446  21511703.344                    21511711.641
 126620821.042 6  98665648.44343  24095147.930                    24095156.426
 106707063.480 8  83148435.103 8  20305664.984                    20305672.203
 119998519.265 7  93505371.208 6  22834957.797                    22834966.020
 112838783.365 8  87926380.75146  21472482.844                    21472488.434
 113538860.666 8  88471688.350 7  21605679.578                    21605689.660
 11  8 15  2 27  0.0000000  0  8G10G12G30G26G05G29G02G25
 121867192.303 7  94961504.98944  23190527.656                    23190536.203
 111912403.998 8  87204534.360 7  21296227.172                    21296234.629
 113060837.989 7  88099419.85345  21514765.555                    21514774.176
 126524834.657 6  98590853.92143  24076881.234                    24076890.918
 106721733.046 8  83159865.948 8  20308456.844                    20308464.055
 119916053.187 7  93441111.976 6  22819265.094                    22819272.941
 112876117.724 8  87955472.46446  21479587.086                    21479593.188
 113529352.021 8  88464279.028 7  21603870.219                    21603880.195
 11  8 15  2 27 30.0000000  0  8G10G12G30G26G05G29G02G25
 121967643.589 7  95039778.68144  23209643.063                    23209651.051
 111967667.402 8  87247596.749 7  21306743.359                    21306750.906
 113077517.820 7  88112417.12546  21517940.000                    21517948.469
 126428843.479 6  98516055.68343  24058614.328                    24058624.516
 106736949.403 8  83171722.876 8  20311352.266                    20311359.621
 119833638.677 7  93376892.937 6  22803581.938                    22803590.762
 112913549.477 8  87984640.07046  21486710.234                    21486716.086
 113520425.193 8  88457323.078 7  21602171.320                    21602181.727
 11  8 15  2 28  0.0000000  0  8G10G12G30G26G05G29G02G25
 122068311.819 7  95118221.41944  23228799.250                    23228807.672
 112023399.146 8  87291024.080 7  21317348.805                    21317356.156
 113094782.996 8  88125870.52146  21521225.266                    21521233.648
 126332850.769 6  98441256.21243  24040348.164                    24040357.465
 106752711.549 8  83184005.083 8  20314351.531                    20314358.742
 119751277.647 7  93312715.569 6  22787908.852                    22787917.770
 112951078.348 8  88013883.35146  21493851.914                    21493857.742
 113512080.216 8  88450820.510 7  21600583.336                    21600593.563
 11  8 15  2 28 30.0000000  0  8G10G12G30G26G05G29G02G25
 122169193.993 7  95196830.86843  23247996.266                    23248005.426
 112079597.048 8  87334814.662 7  21328043.055                    21328050.695
 113112631.959 8  88139778.81245  21524621.859                    21524630.121
 126236859.778 6  98366458.11043  24022081.492                    24022091.289
 106769017.577 8  83196711.093 8  20317454.727                    20317461.805
 119668971.462 7  93248580.930 6  22772246.141                    22772254.871
 112988703.983 8  88043202.03646  21501011.820                    21501017.391
 113504316.858 8  88444771.159 7  21599105.789                    21599115.871
 11  8 15  2 29  0.0000000  0  8G10G12G30G26G05G29G02G25
 122270287.014 7  95275604.62144  23267233.469                    23267242.781
 112136258.704 8  87378966.598 7  21338825.250                    21338833.164
 113131063.322 8  88154140.91745  21528129.414                    21528137.781
 126140873.860 6  98291663.91743  24003816.266                    24003825.391
 106785866.017 8  83209839.775 8  20320660.734                    20320668.047
 119586721.770 7  93184490.331 7  22756594.914                    22756603.586
 113026425.740 8  88072595.61146  21508189.930                    21508195.680
 113497134.945 8  88439174.871 7  21597739.438                    21597749.668
 11  8 15  2 29 30.0000000  0  8G10G12G30G26G05G29G02G25
 122371588.823 7  95354541.06844  23286511.406                    23286519.660
 112193382.453 8  87423478.605 7  21349695.773                    21349703.230
 113150076.209 8  88168956.15345  21531746.953                    21531755.469
 126044896.588 6  98216876.51643  23985552.555                    23985560.988
 106803256.711 8  83223390.978 8  20323970.211                    20323977.203
 119504530.523 7  93120445.275 7  22740954.414                    22740963.094
 113064243.838 8  88102064.26946  21515386.477                    21515392.188
 113490534.863 8  88434031.966 7  21596483.516                    21596493.828
 11  8 15  2 30  0.0000000  0  8G10G12G30G26G05G29G02G25
 122473096.174 7  95433637.67944  23305827.047                    23305835.672
 112250965.407 8  87468348.447 7  21360653.273                    21360660.758
 113169668.972 8  88184223.25045  21535475.609                    21535484.121
 125948930.912 6  98142098.13043  23967291.164                    23967299.676
 106821187.957 8  83237363.400 8  20327382.320                    20327389.574
 119422399.420 7  93056447.082 7  22725325.367                    22725334.258
 113102157.750 8  88131607.58846  21522601.328                    21522606.855
 113484516.228 8  88429342.129 7  21595338.000                    21595348.078
 11  8 15  2 30 30.0000000  0  8G10G12G30G26G05G29G02G25
 122574806.434 7  95512892.39044  23325182.602                    23325190.527
 112309005.568 8  87513574.550 7  21371698.086                    21371705.328
 113189840.468 8  88199941.31845  21539314.242                    21539322.840
 125852980.323 6  98067331.54743  23949031.813                    23949040.816
 106839658.319 8  83251755.904 8  20330897.141                    20330904.109
 119340330.087 7  92992497.034 7  22709707.633                    22709716.801
 113140167.366 8  88161225.47446  21529834.352                    21529839.891
 113479078.943 8  88425105.301 7  21594303.320                    21594313.793
 11  8 15  2 31  0.0000000  0  8G10G12G30G26G05G29G02G25
 122676716.767 7  95592302.99944  23344575.164                    23344584.059
 112367500.384 8  87559154.919 7  21382829.055                    21382835.898
 113210589.451 8  88216109.37846  21543262.453                    21543271.082
 125757048.327 6  97992579.43043  23930776.430                    23930785.461
 106858666.828 8  83266567.752 8  20334514.164                    20334521.453
 119258324.331 7  92928596.526 6  22694102.461                    22694111.195
 113178272.504 8  88190917.80046  21537085.508                    21537091.156
 113474223.055 8  88421321.509 7  21593379.570                    21593389.703
 11  8 15  2 31 30.0000000  0  8G10G12G30G26G05G29G02G25
 122778824.276 7  95671867.27944  23364005.930                    23364013.977
 112426447.647 8  87605087.854 7  21394046.453                    21394053.727
 113231914.460 8  88232726.28745  21547320.344                    21547328.926
 125661138.231 6  97917844.36143  23912525.164                    23912534.090
 106878211.995 8  83281797.771 8  20338233.641                    20338240.621
 119176383.927 7  92864746.939 6  22678509.641                    22678518.598
 113216472.691 8  88220684.18246  21544354.352                    21544360.008
 113469948.357 8  88417990.590 7  21592565.508                    21592575.969
 11  8 15  2 32  0.0000000  0  8G10G12G30G26G05G29G02G25
 122881126.432 7  95751583.21543  23383473.250                    23383481.758
 112485845.170 8  87651371.638 7  21405349.266                    21405356.969
 113253814.157 8  88249791.00346  21551487.953                    21551496.328
 125565253.415 6  97843129.02444  23894279.359                    23894288.070
 106898292.585 8  83297445.001 8  20342054.813                    20342061.637
 119094510.718 7  92800949.718 6  22662929.672                    22662938.234
 113254767.985 8  88250524.67845  21551641.977                    21551647.660
 113466254.711 8  88415112.440 7  21591862.789                    21591873.168
 11  8 15  2 32 30.0000000  0  8G10G12G30G26G05G29G02G25
 122983619.836 7  95831448.21144  23402977.688                    23402985.195
 112545690.117 8  87698004.072 7  21416737.383                    21416744.680
 113276286.449 8  88267301.89646  21555764.617                    21555772.914
 125469396.837 6  97768435.67043  23876038.031                    23876047.203
 106918906.319 8  83313507.662 8  20345977.383                    20345984.250
 119012706.110 7  92737205.951 6  22647362.648                    22647371.547
 113293157.225 8  88280438.37646  21558947.383                    21558953.039
 113463141.304 8  88412686.420 7  21591270.320                    21591280.723
 11  8 15  2 33  0.0000000  0  8G10G12G30G26G05G29G02G25
 123086301.989 7  95911460.26244  23422517.313                    23422525.223
 112605979.710 8  87744982.976 7  21428210.250                    21428217.609
 113299330.106 8  88285258.01745  21560149.625                    21560157.461
 125373572.088 6  97693767.07743  23857803.516                    23857811.977
 106940052.184 8  83329984.972 8  20350001.344                    20350008.594
 118930971.991 7  92673517.107 6  22631809.688                    22631817.777
 113331640.428 8  88310425.29145  21566270.266                    21566275.863
 113460608.083 8  88410712.498 7  21590787.914                    21590798.465
 11  8 15  2 33 30.0000000  0  8G10G12G30G26G05G29G02G25
 123189170.631 7  95991617.61844  23442091.828                    23442100.504
 112666712.391 8  87792307.140 7  21439767.359                    21439774.688
 113322944.079 8  88303658.53645  21564642.797                    21564651.199
 125277782.682 6  97619126.04843  23839575.352                    23839584.316
 106961729.292 8  83346876.246 8  20354126.516                    20354133.516
 118849310.335 7  92609884.730 6  22616269.625                    22616277.555
 113370217.945 8  88340485.69846  21573611.336                    21573617.121
 113458655.184 8  88409190.781 7  21590416.500                    21590426.684
 11  8 15  2 34  0.0000000  0  8G10G12G30G26G05G29G02G25
 123292222.306 7  96071917.65744  23461702.016                    23461709.902
 112727885.504 8  87839974.505 7  21451408.258                    21451415.875
 113347126.550 8  88322502.04145  21569244.602                    21569253.070
 125182032.096 7  97544515.29343  23821354.516                    23821363.410
 106983935.836 8  83364180.061 8  20358351.930                    20358359.184
 118767722.729 7  92546310.072 6  22600744.133                    22600752.598
 113408889.169 8  88370619.12145  21580970.070                    21580976.109
 113457282.064 8  88408120.829 7  21590155.352                    21590165.543
 11  8 15  2 34 30.0000000  0  8G10G12G30G26G05G29G02G25
 123395454.664 7  96152358.42443  23481346.711                    23481354.910
 112789496.730 7  87887983.247 7  21463132.109                    21463139.879
 113371876.126 7  88341787.44446  21573954.266                    21573962.406
 125086323.792 6  97469937.46343  23803141.406                    23803150.238
 107006670.578 8  83381895.460 8  20362678.305                    20362685.602
 118686211.150 7  92482794.639 6  22585232.461                    22585240.910
 113447654.195 8  88400825.62646  21588347.063                    21588353.148
 113456488.514 8  88407502.499 7  21590004.297                    21590014.246
 11  8 15  2 35  0.0000000  0  8G10G12G30G26G05G29G02G25
 123498865.080 7  96232937.97944  23501025.133                    23501033.918
 112851543.446 8  87936331.337 7  21474939.633                    21474947.164
 113397191.097 8  88361513.40446  21578771.750                    21578780.121
 124990660.895 6  97395395.01843  23784937.703                    23784946.074
 107029931.901 8  83400021.176 8  20367104.961                    20367111.781
 118604777.292 7  92419339.756 6  22569736.406                    22569744.363
 113486512.467 8  88431104.80146  21595741.344                    21595747.098
 113456274.050 8  88407335.412 7  21589963.891                    21589973.906
 11  8 15  2 35 30.0000000  0  8G10G12G30G26G05G29G02G25
 123602450.468 7  96313653.86843  23520736.438                    23520745.406
 112914023.031 7  87985016.723 7  21486829.109                    21486836.547
 113423069.792 7  88381678.64246  21583695.992                    21583704.016
 124895046.862 6  97320890.66743  23766741.961                    23766751.387
 107053718.311 8  83418556.055 8  20371631.125                    20371638.297
 118523423.045 7  92355946.911 7  22554255.086                    22554263.105
 113525463.598 8  88461456.33146  21603153.602                    21603159.402
 113456638.191 8  88407619.183 7  21590032.586                    21590043.395
 11  8 15  2 36  0.0000000  0  8G10G12G30G26G05G29G02G25
 123706207.963 7  96394503.86143  23540481.180                    23540489.109
 112976932.841 8  88034037.354 7  21498800.094                    21498807.605
 113449510.359 7  88402281.67745  21588727.672                    21588735.902
 124799485.141 6  97246427.06944  23748557.258                    23748566.754
 107078027.881 8  83437498.590 8  20376257.383                    20376263.938
 118442150.063 7  92292617.397 7  22538789.453                    22538797.531
 113564507.310 8  88491880.00746  21610583.234                    21610588.738
 113457580.373 8  88408353.373 7  21590212.023                    21590222.191
 11  8 15  2 36 30.0000000  0  8G10G12G30G26G05G29G02G25
 123810135.149 7  96475486.12044  23560257.391                    23560266.246
 113040270.848 8  88083391.643 7  21510853.164                    21510860.773
 113476511.591 7  88423321.60245  21593865.656                    21593873.953
 124703979.216 6  97172006.97143  23730382.742                    23730392.402
 107102859.676 8  83456848.046 8  20380982.156                    20380989.445
 118360960.408 7  92229352.800 7  22523339.250                    22523347.598
 113603643.668 8  88522375.86146  21618030.719                    21618036.652
 113459100.408 8  88409537.837 7  21590501.242                    21590511.258
 11  8 15  2 37  0.0000000  0  8G10G12G30G26G05G29G02G25
 123914229.024 7  96556598.23243  23580065.633                    23580074.180
 113104034.533 7  88133077.636 7  21522986.695                    21522994.594
 113504071.565 8  88444796.91245  21599110.164                    21599118.609
 124608532.609 6  97097633.10344  23712220.047                    23712229.676
 107128211.699 8  83476602.885 8  20385807.008                    20385813.684
 118279855.804 7  92166154.478 6  22507905.406                    22507913.902
 113642872.419 8  88552943.71245  21625495.656                    21625501.117
 113461197.731 8  88411172.138 7  21590900.406                    21590910.582
 11  8 15  2 37 30.0000000  0  9G10G12G30G26G05G29G15G02G25
 124018487.022 7  96637838.23343  23599904.813                    23599914.137
 113168220.893 8  88183092.988 7  21535201.063                    21535208.742
 113532188.891 8  88466706.51445  21604460.961                    21604469.121
 124513148.829 6  97023308.15743  23694069.281                    23694078.230
 107154082.819 8  83496762.215 8  20390730.008                    20390736.805
 118198838.244 7  92103023.989 7  22492487.883                    22492496.875
 129393789.31416 100826358.65715  24622822.000                    24622831.043
 113682193.569 8  88583583.56446  21632978.305                    21632983.703
 113463872.053 8  88413256.046 7  21591409.281                    21591419.133
 11  8 15  2 38  0.0000000  0  9G10G12G30G26G05G29G15G02G25
 124122906.933 7  96719204.40043  23619776.523                    23619784.539
 113232827.851 8  88233436.073 7  21547495.680                    21547503.277
 113560862.073 8  88489049.25145  21609917.602                    21609925.504
 124417831.636 6  96949035.11444  23675931.109                    23675940.570
 107180471.813 8  83517325.079 8  20395751.477                    20395758.242
 118117909.781 7  92039962.928 7  22477088.109                    22477096.883
 129299937.497 6 100753227.479 6  24604962.141                    24604971.531
 113721607.231 8  88614295.51246  21640478.547                    21640484.406
 113467123.176 8  88415789.409 7  21592027.859                    21592038.164
 11  8 15  2 38 30.0000000  0  9G10G12G30G26G05G29G15G02G25
 124227485.585 7  96800694.27843  23639677.102                    23639685.000
 113297852.733 8  88284104.816 7  21559869.266                    21559876.855
 113590089.014 7  88511823.47945  21615478.711                    21615486.781
 124322584.200 6  96874816.36444  23657806.031                    23657814.816
 107207376.550 8  83538289.814 8  20400871.344                    20400878.316
 118037071.989 7  91976972.511 7  22461704.844                    22461713.793
 129205960.213 6 100679998.535 5  24587079.258                    24587088.641
 113761112.781 8  88645079.05446  21647996.063                    21648002.125
 113470950.169 8  88418771.491 7  21592756.195                    21592766.063
 11  8 15  2 39  0.0000000  0  9G10G12G30G26G05G29G15G02G25
 124332220.062 7  96882305.57043  23659607.203                    23659615.059
 113363292.970 8  88335097.201 7  21572322.289                    21572329.203
 113619867.817 8  88535027.73845  21621145.852                    21621153.898
 124227409.890 7  96800654.61244  23639695.492                    23639703.859
 107234795.041 8  83559654.884 8  20406089.008                    20406095.922
 117956326.714 7  91914054.176 7  22446339.594                    22446348.215
 129111859.892 6 100606673.698 5  24569172.344                    24569181.836
 113800710.032 8  88675934.05746  21655531.211                    21655537.172
 113475352.258 8  88422201.711 7  21593593.656                    21593603.809
 11  8 15  2 39 30.0000000  0  9G10G12G30G26G05G29G15G02G25
 124437107.687 7  96964036.21443  23679566.727                    23679574.258
 113429145.856 8  88386411.139 7  21584853.484                    21584860.961
 113650196.672 8  88558660.60345  21626916.695                    21626924.797
 124132312.111 7  96726552.47344  23621598.719                    23621607.141
 107262725.907 8  83581419.205 8  20411404.203                    20411410.512
 117875675.931 7  91851209.463 7  22430992.656                    22431001.074
 129017639.102 6 100533254.995 5  24551242.539                    24551251.648
 113840398.699 8  88706860.29646  21663083.734                    21663089.328
 113480328.939 8  88426079.652 7  21594540.789                    21594550.965
 11  8 15  2 40  0.0000000  0  9G10G12G30G26G05G29G15G02G25
 124542145.883 7  97045884.20343  23699554.664                    23699562.695
 113495408.694 8  88438044.525 7  21597463.219                    21597470.152
 113681073.683 7  88582720.60045  21632792.539                    21632801.074
 124037294.305 7  96652512.68244  23603516.875                    23603525.941
 107291167.362 8  83603581.386 8  20416816.047                    20416823.012
 117795121.456 7  91788439.799 7  22415663.594                    22415672.203
 128923300.217 6 100459744.306 5  24533290.414                    24533299.793
 113880178.421 8  88737857.47946  21670653.648                    21670659.305
 113485879.393 8  88430404.696 7  21595596.813                    21595607.078
 11  8 15  2 40 30.0000000  0  9G10G12G30G26G05G29G15G02G25
 124647331.667 7  97127847.15943  23719570.859                    23719578.988
 113562078.800 8  88489995.256 7  21610149.500                    21610157.152
 113712496.920 7  88607206.23345  21638771.820                    21638780.629
 123942359.938 7  96578537.90444  23585451.539                    23585460.578
 107320117.583 7  83626140.011 8  20422325.352                    20422332.246
 117714664.930 7  91725746.456 7  22400353.094                    22400361.328
 128828845.870 6 100386143.635 5  24515316.375                    24515325.516
 113920049.119 8  88768925.56245  21678240.977                    21678246.477
 113492002.941 8  88435176.303 7  21596762.328                    21596772.578
 11  8 15  2 41  0.0000000  0  9G10G12G30G26G05G29G15G02G25
 124752662.639 7  97209923.25243  23739614.570                    23739623.063
 113629153.573 8  88542261.318 7  21622913.594                    21622921.473
 113744464.711 7  88632116.20345  21644856.016                    21644863.629
 123847512.721 7  96504631.02844  23567402.766                    23567411.594
 107349575.282 8  83649094.063 8  20427931.008                    20427937.914
 117634308.566 7  91663131.162 7  22385061.820                    22385069.918
 128734278.738 6 100312455.127 6  24497321.352                    24497329.699
 113960010.949 8  88800064.66645  21685845.227                    21685851.094
 113498699.210 8  88440394.181 7  21598036.430                    21598046.840
 11  8 15  2 41 30.0000000  0  9G10G12G30G26G05G29G15G02G25
 124858135.956 7  97292110.27343  23759685.984                    23759693.621
 113696630.388 8  88594840.650 7  21635754.094                    21635761.832
 113776975.247 8  88657449.08545  21651041.773                    21651050.516
 123752756.159 7  96430794.79144  23549371.672                    23549380.016
 107379538.639 8  83672442.141 8  20433632.852                    20433639.512
 117554054.253 7  91600595.387 7  22369790.023                    22369798.469
 128639601.300 7 100238680.658 6  24479303.945                    24479312.891
 114000063.689 7  88831274.59445  21693467.086                    21693472.695
 113505967.270 8  88446057.599 7  21599419.805                    21599429.813
 11  8 15  2 42  0.0000000  0  9G10G12G30G26G05G29G15G02G25
 124963749.165 7  97374406.27643  23779782.734                    23779791.449
 113764506.825 8  88647731.384 7  21648670.609                    21648678.051
 113810026.521 8  88683203.31845  21657331.445                    21657339.789
 123658093.714 7  96357031.91244  23531357.297                    23531366.141
 107410005.740 8  83696182.737 8  20439430.414                    20439437.656
 117473903.891 7  91538140.629 7  22354537.648                    22354545.336
 128544816.146 6 100164822.224 6  24461267.805                    24461275.996
 114040207.058 8  88862555.15146  21701106.016                    21701111.574
 113513806.470 8  88452166.068 7  21600911.328                    21600921.742
 11  8 15  2 42 30.0000000  0  9G10G12G30G26G05G29G15G02G25
 125069499.560 7  97456809.19843  23799905.531                    23799914.574
 113832780.203 8  88700931.411 7  21661662.859                    21661670.227
 113843616.802 7  88709377.56645  21663723.438                    21663731.668
 123563529.147 7  96283345.29543  23513362.945                    23513370.797
 107440975.288 8  83720314.857 8  20445323.563                    20445331.188
 117393859.543 7  91475768.460 7  22339306.063                    22339313.535
 128449925.736 6 100090881.770 6  24443209.906                    24443218.863
 114080441.405 7  88893906.60745  21708762.563                    21708768.066
 113522216.219 8  88458719.117 7  21602511.664                    21602522.086
 11  8 15  2 43  0.0000000  0  9G10G12G30G26G05G29G15G02G25
 125175384.388 6  97539316.79843  23820055.648                    23820064.496
 113901447.588 8  88754438.461 7  21674729.688                    21674736.996
 113877743.948 8  88735970.14145  21670217.523                    21670225.945
 123469065.660 7  96209737.42444  23495386.547                    23495395.449
 107472445.066 8  83744836.759 8  20451312.234                    20451319.297
 117313923.084 7  91413480.374 7  22324094.508                    22324102.668
 128354932.572 7 100016861.234 6  24425133.195                    24425142.371
 114120766.159 8  88925328.49946  21716436.219                    21716441.148
 113531195.495 8  88465715.944 7  21604220.406                    21604230.535
 11  8 15  2 43 30.0000000  0  9G10G12G30G26G05G29G15G02G25
 125281401.301 6  97621927.36843  23840230.578                    23840238.492
 113970506.454 8  88808250.564 7  21687870.969                    21687878.520
 113912405.941 7  88762979.48445  21676813.617                    21676821.895
 123374706.711 7  96136210.99743  23477430.680                    23477438.715
 107504413.412 7  83769747.161 8  20457395.398                    20457402.520
 117234096.301 7  91351277.738 7  22308903.664                    22308911.172
 128259839.297 6  99942762.733 6  24407037.281                    24407046.727
 114161180.899 8  88956820.51745  21724126.625                    21724132.430
 113540743.532 8  88473155.960 7  21606037.133                    21606047.477
 11  8 15  2 44  0.0000000  0  9G10G12G30G26G05G29G15G02G25
 125387547.458 6  97704638.63143  23860429.313                    23860437.938
 114039953.931 8  88862365.477 7  21701086.406                    21701093.945
 113947600.583 7  88790403.87945  21683511.117                    21683519.672
 123280455.834 7  96062768.80344  23459495.125                    23459503.781
 107536878.208 8  83795044.402 8  20463573.484                    20463580.316
 117154381.195 8  91289162.129 7  22293734.117                    22293742.641
 128164648.473 7  99868588.143 6  24388923.977                    24388931.992
 114201685.731 8  88988382.73545  21731834.609                    21731839.438
 113550859.225 8  88481038.304 7  21607962.172                    21607972.340
 11  8 15  2 44 30.0000000  0  9G10G12G30G26G05G29G15G02G25
 125493820.206 6  97787448.56743  23880652.227                    23880660.055
 114109787.543 8  88916781.272 7  21714375.305                    21714382.652
 113983326.196 7  88818242.03345  21690309.523                    21690317.578
 123186316.783 6  95989413.76044  23441580.516                    23441589.941
 107569838.201 8  83820727.520 8  20469845.617                    20469852.570
 117074779.957 7  91227135.254 7  22278586.211                    22278594.543
 128069362.863 7  99794339.709 6  24370790.969                    24370799.754
 114242280.767 8  89020015.24145  21739559.281                    21739565.055
 113561542.073 8  88489362.600 7  21609995.344                    21610005.465
 11  8 15  2 45  0.0000000  0  9G10G12G30G26G05G29G15G02G25
 125600216.911 6  97870355.06443  23900898.813                    23900907.402
 114180004.328 8  88971495.642 7  21727737.289                    21727744.699
 114019580.735 7  88846492.33345  21697208.258                    21697216.340
 123092293.286 7  95916148.73944  23423689.086                    23423697.102
 107603291.332 8  83846794.888 8  20476211.477                    20476218.578
 116995294.563 8  91165198.662 7  22263461.039                    22263469.145
 127973984.921 7  99720019.370 6  24352640.750                    24352650.230
 114282966.068 8  89051718.07445  21747301.594                    21747307.328
 113572791.185 8  88498128.129 7  21612135.836                    21612146.211
 11  8 15  2 45 30.0000000  0  9G10G12G30G26G05G29G15G02G25
 125706734.869 6  97953356.04743  23921168.375                    23921177.109
 114250601.586 8  89026506.494 7  21741171.578                    21741179.219
 114056361.982 8  88875153.05445  21704207.531                    21704215.742
 122998388.899 7  95842976.55844  23405819.445                    23405828.297
 107637235.778 8  83873245.106 8  20482670.953                    20482677.840
 116915926.736 7  91103353.666 7  22248358.086                    22248366.090
 127878517.457 7  99645629.276 6  24334474.570                    24334482.246
 114323741.286 8  89083490.99645  21755060.336                    21755065.945
 113584605.561 8  88507334.136 7  21614384.000                    21614394.707
 11  8 15  2 46  0.0000000  0  9G10G12G30G26G05G29G15G02G25
 125813371.779 7  98036449.72443  23941460.609                    23941469.316
 114321577.175 8  89081812.138 7  21754677.555                    21754685.160
 114093668.084 8  88904222.75545  21711306.695                    21711314.719
 122904606.783 7  95769899.61944  23387973.242                    23387982.000
 107671669.624 8  83900076.672 8  20489223.367                    20489230.313
 116836678.649 7  91041601.977 7  22233276.984                    22233285.379
 127782962.881 7  99571171.271 6  24316290.883                    24316299.727
 114364606.496 8  89115334.03245  21762837.117                    21762842.828
 113596984.336 8  88516979.928 7  21616739.516                    21616749.965
 11  8 15  2 46 30.0000000  0  9G10G12G30G26G05G29G15G02G25
 125920124.806 7  98119633.87443  23961775.211                    23961784.340
 114392927.477 8  89137409.775 7  21768255.180                    21768262.770
 114131496.537 7  88933699.48745  21718505.234                    21718513.383
 122810950.521 7  95696920.75544  23370151.516                    23370160.230
 107706590.867 8  83927288.031 8  20495868.383                    20495875.691
 116757552.357 7  90979945.203 7  22218220.117                    22218228.215
 127687323.783 6  99496647.447 6  24298091.633                    24298100.043
 114405561.246 7  89147246.82945  21770630.664                    21770636.047
 113609926.338 8  88527064.598 7  21619202.445                    21619212.961
 11  8 15  2 47  0.0000000  0  9G10G12G30G26G05G29G15G02G25
 126026991.439 6  98202906.56143  23982111.172                    23982119.766
 114464649.917 7  89193297.389 7  21781902.969                    21781910.746
 114169845.454 7  88963581.77545  21725802.688                    21725811.004
 122717423.904 7  95624042.90944  23352353.516                    23352362.324
 107741997.938 8  83954877.956 8  20502606.625                    20502613.469
 116678549.760 7  90918384.803 7  22203186.109                    22203194.766
 127591603.106 6  99422060.028 6  24279876.070                    24279884.746
 114446605.933 8  89179229.72345  21778440.883                    21778446.793
 113623430.672 8  88537587.459 7  21621772.258                    21621782.348
 11  8 15  2 47 30.0000000  0  9G10G12G30G26G05G29G15G02G25
 126133969.286 6  98286265.86843  24002468.469                    24002477.301
 114536742.311 7  89249473.267 7  21795622.031                    21795629.551
 114208712.783 7  88993868.02445  21733198.844                    21733207.082
 122624030.640 7  95551268.99544  23334581.414                    23334590.141
 107777888.733 8  83982844.806 8  20509436.297                    20509442.805
 116599672.859 7  90856922.358 7  22188176.430                    22188184.723
 127495803.158 7  99347410.826 6  24261645.305                    24261654.609
 114487740.328 7  89211282.51245  21786268.945                    21786274.203
 113637496.427 8  88548547.783 7  21624449.031                    21624458.953
 11  8 15  2 48  0.0000000  0  9G10G12G30G26G05G29G15G02G25
 126241055.401 6  98369709.53043  24022846.516                    24022854.723
 114609201.295 7  89305934.811 7  21809410.406                    21809418.156
 114248096.229 7  89024556.44845  21740693.336                    21740701.789
 122530774.416 7  95478601.84744  23316835.141                    23316843.797
 107814261.311 8  84011187.079 8  20516357.867                    20516364.816
 116520923.908 7  90795559.602 7  22173191.242                    22173198.781
 127399926.862 7  99272702.083 6  24243401.359                    24243409.672
 114528964.341 8  89243405.12945  21794113.281                    21794118.473
 113652122.535 8  88559944.756 7  21627231.867                    21627242.414
 11  8 15  2 48 30.0000000  0  9G10G12G30G26G05G29G15G02G25
 126348247.693 6  98453235.98243  24043244.531                    24043252.195
 114682024.296 7  89362680.005 7  21823268.188                    21823275.840
 114287993.740 7  89055645.42845  21748285.547                    21748293.695
 122437658.371 7  95406043.95444  23299116.078                    23299125.008
 107851114.000 8  84039903.459 8  20523370.227                    20523377.594
 116442304.721 7  90734297.969 7  22158230.156                    22158238.227
 127303976.841 6  99197935.981 6  24225141.617                    24225150.816
 114570277.773 8  89275597.43145  21801974.797                    21801980.699
 113667307.934 8  88571777.551 7  21630121.695                    21630131.930
 11  8 15  2 49  0.0000000  0  9G10G12G30G26G05G29G15G02G25
 126455543.405 6  98536843.00743  24063662.398                    24063670.102
 114755208.548 7  89419706.690 7  21837194.570                    21837202.289
 114328403.103 7  89087133.25645  21755975.063                    21755983.371
 122344686.753 7  95333598.57244  23281424.141                    23281432.137
 107888444.990 8  84068992.549 8  20530474.438                    20530481.387
 116363817.659 7  90673139.274 7  22143294.750                    22143302.441
 127207955.774 6  99123114.509 6  24206869.836                    24206878.563
 114611681.094 8  89307859.78645  21809853.500                    21809859.121
 113683051.630 8  88584045.381 7  21633117.688                    21633127.633
 11  8 15  2 49 30.0000000  0  9G10G12G30G26G05G29G15G02G25
 126562939.735 6  98620528.41443  24084099.422                    24084107.313
 114828751.191 7  89477012.648 7  21851189.695                    21851196.969
 114369321.991 7  89119018.12745  21763761.469                    21763769.820
 122251862.651 7  95261268.13944  23263760.336                    23263768.406
 107926251.933 8  84098452.516 8  20537668.695                    20537675.797
 116285464.359 7  90612084.823 7  22128384.305                    22128392.691
 127111866.540 6  99048239.926 6  24188584.055                    24188593.188
 114653173.801 8  89340191.78245  21817749.789                    21817755.605
 113699352.342 8  88596747.253 7  21636219.477                    21636229.914
 11  8 15  2 50  0.0000000  0  9G10G12G30G26G05G29G15G02G25
 126670434.114 6  98704290.24243  24104554.406                    24104562.473
 114902649.001 7  89534595.358 7  21865251.508                    21865259.027
 114410747.835 7  89151298.01145  21771645.039                    21771653.363
 122159189.606 7  95189055.41944  23246125.164                    23246133.723
 107964532.282 8  84128281.358 8  20544953.352                    20544960.402
 116207246.801 7  90551136.137 7  22113499.953                    22113507.754
 127015711.253 7  98973313.829 6  24170286.602                    24170295.063
 114694755.771 8  89372593.33945  21825662.375                    21825667.875
 113716208.619 8  88609882.023 7  21639427.398                    21639437.316
 11  8 15  2 50 30.0000000  0  9G10G12G30G26G05G29G15G02G25
 126778024.423 6  98788126.77443  24125028.313                    24125036.289
 114976900.202 7  89592453.443 7  21879381.586                    21879389.082
 114452678.906 8  89183971.58645  21779623.727                    21779632.316
 122066671.615 7  95116963.50144  23228519.328                    23228527.898
 108003285.064 8  84158478.342 8  20552327.617                    20552334.531
 116129167.572 7  90490295.233 7  22098641.586                    22098650.250
 126919493.154 6  98898338.802 6  24151976.672                    24151985.355
 114736427.577 8  89405064.90445  21833592.438                    21833597.805
 113733619.836 8  88623449.221 7  21642740.500                    21642750.633
 11  8 15  2 51  0.0000000  0  9G10G12G30G26G05G29G15G02G25
 126885708.098 6  98872036.10143  24145519.508                    24145528.332
 115051500.956 7  89650583.903 7  21893577.281                    21893584.992
 114495112.758 8  89217036.93145  21787698.852                    21787707.148
 121974312.207 7  95044995.16444  23210943.898                    23210952.012
 108042508.014 8  84189041.684 8  20559791.469                    20559798.313
 116051228.264 7  90429563.369 7  22083810.773                    22083818.570
 126823214.994 7  98823317.008 6  24133656.141                    24133664.844
 114778188.717 8  89437606.07345  21841539.211                    21841544.965
 113751584.683 8  88637447.834 7  21646158.836                    21646169.199
 11  8 15  2 51 30.0000000  0  9G10G12G30G26G05G29G15G02G25
 126993482.107 6  98956015.77043  24166029.336                    24166037.086
 115126448.269 7  89708984.405 7  21907839.523                    21907846.727
 114538046.682 7  89250491.94045  21795869.367                    21795877.426
 121882114.543 7  94973152.85944  23193398.883                    23193408.219
 108082198.914 8  84219969.670 8  20567344.266                    20567351.480
 115973431.096 7  90368942.258 7  22069006.031                    22069014.438
 126726879.293 7  98748250.375 6  24115323.297                    24115331.801
 114820039.001 8  89470216.70745  21849503.156                    21849508.676
 113770101.492 8  88651876.537 7  21649682.742                    21649692.941
 11  8 15  2 52  0.0000000  0  9G10G12G30G26G05G29G15G02G25
 127101344.566 6  99040064.36243  24186554.313                    24186562.539
 115201740.072 7  89767653.346 7  21922167.055                    21922174.305
 114581478.990 8  89284335.31045  21804133.688                    21804141.930
 121790082.958 7  94901439.94844  23175886.344                    23175895.008
 108122356.019 8  84251260.933 8  20574985.977                    20574993.203
 115895778.399 7  90308433.707 7  22054229.172                    22054237.402
 126630488.661 7  98673140.933 6  24096980.297                    24096988.672
 114861978.883 8  89502897.14945  21857484.148                    21857489.535
 113789169.644 8  88666734.857 7  21653311.016                    21653321.676
 11  8 15  2 52 30.0000000  0  9G10G12G30G26G05G29G15G02G25
 127209292.743 6  99124179.79743  24207096.328                    24207104.641
 115277372.957 7  89826588.058 7  21936559.344                    21936567.020
 114625406.986 7  89318564.92245  21812493.063                    21812501.566
 121698220.631 7  94829858.94744  23158405.383                    23158413.824
 108162977.086 8  84282913.729 8  20582716.039                    20582723.223
 115818272.117 7  90248039.254 7  22039480.227                    22039488.258
 126534045.665 7  98597990.673 6  24078628.359                    24078636.387
 114904008.283 7  89535647.36145  21865481.789                    21865487.688
 113808787.532 8  88682021.544 7  21657044.414                    21657054.820
 11  8 15  2 53  0.0000000  0  9G10G12G30G26G05G29G15G02G25
 127317323.945 6  99208359.91243  24227654.195                    24227662.676
 115353344.381 7  89885786.570 7  21951016.391                    21951024.125
 114669828.359 7  89353178.98945  21820945.977                    21820954.543
 121606531.364 7  94758412.78544  23140957.547                    23140965.910
 108204059.776 8  84314926.227 7  20590533.727                    20590540.621
 115740914.205 7  90187760.415 7  22024759.305                    22024767.730
 126437553.389 6  98522802.008 6  24060266.633                    24060274.738
 114946127.150 8  89568467.28445  21873496.523                    21873502.184
 113828953.893 8  88697735.599 7  21660881.633                    21660891.914
 11  8 15  2 53 30.0000000  0  9G10G12G30G26G05G29G15G02G25
 127425435.872 6  99292602.90243  24248226.961                    24248235.801
 115429651.118 7  89945246.371 7  21965537.023                    21965544.473
 114714740.628 7  89388175.57245  21829492.945                    21829500.805
 121515018.561 7  94687104.12744  23123543.188                    23123551.473
 108245602.336 8  84347297.068 7  20598438.641                    20598446.133
 115663706.963 7  90127598.977 7  22010067.227                    22010075.211
 126341014.446 7  98447576.964 6  24041895.617                    24041903.668
 114988335.593 8  89601356.98945  21881528.672                    21881534.430
 113849667.365 8  88713875.990 7  21664823.781                    21664833.398
 11  8 15  2 54  0.0000000  0  9G10G12G30G26G05G29G15G02G25
 127533626.318 6  99376907.08343  24268814.734                    24268823.234
 115506290.640 8  90004965.473 7  21980121.180                    21980128.328
 114760141.591 8  89423552.94445  21838131.898                    21838140.359
 121423686.252 7  94615936.09544  23106163.578                    23106170.992
 108287603.028 8  84380024.899 7  20606431.578                    20606438.527
 115586652.650 7  90067556.703 7  21995404.516                    21995412.590
 126244431.673 7  98372317.718 6  24023516.195                    24023523.855
 115030633.483 8  89634316.39345  21889577.508                    21889583.277
 113870926.728 8  88730441.729 7  21668868.930                    21668879.129
 11  8 15  2 54 30.0000000  0  9G10G12G30G26G05G29G15G02G25
 127641892.351 6  99461270.14543  24289417.703                    24289425.730
 115583259.698 8  90064941.364 7  21994767.977                    21994775.293
 114806028.563 7  89459309.03645  21846864.453                    21846872.578
 121332537.679 7  94544911.25644  23088818.141                    23088826.215
 108330058.982 8  84413107.481 7  20614510.469                    20614517.418
 115509752.852 7  90007634.842 7  21980770.984                    21980778.418
 126147807.772 6  98297026.443 6  24005129.406                    24005137.492
 115073020.749 8  89667345.44845  21897643.781                    21897648.984
 113892730.381 8  88747431.589 7  21673017.953                    21673028.262
 11  8 15  2 55  0.0000000  0  9G10G12G30G26G05G29G15G02G25
 127750231.814 6  99545690.43143  24310034.023                    24310042.277
 115660555.909 7  90125172.177 7  22009476.555                    22009484.297
 114852399.430 8  89495442.17845  21855688.156                    21855696.672
 121241576.882 7  94474032.71244  23071508.953                    23071517.277
 108372968.774 8  84446543.695 8  20622676.055                    20622682.957
 115433010.229 7  89947835.446 7  21966166.953                    21966175.141
 126051145.549 6  98221705.343 6  23986734.820                    23986743.695
 115115497.622 8  89700444.32245  21905726.500                    21905732.285
 113915077.339 8  88764844.814 7  21677270.570                    21677280.609
 11  8 15  2 55 30.0000000  0  9G10G12G30G26G05G29G15G02G25
 127858642.304 6  99630166.06343  24330664.547                    24330672.473
 115738176.121 8  90185655.453 7  22024247.125                    22024255.035
 114899251.650 7  89531950.41145  21864603.813                    21864612.539
 121150807.377 7  94403303.22244  23054236.172                    23054244.301
 108416330.332 8  84480331.933 7  20630927.195                    20630934.328
 115356426.797 7  89888160.094 7  21951594.219                    21951601.887
 125954447.880 7  98146356.592 6  23968334.211                    23968342.207
 115158064.025 8  89733612.96545  21913826.945                    21913831.961
 113937966.014 8  88782680.146 7  21681625.953                    21681636.367
 11  8 15  2 56  0.0000000  0  9G10G12G30G26G05G29G15G02G25
 127967121.306 6  99714695.11443  24351306.867                    24351315.625
 115816117.488 8  90246388.984 7  22039079.086                    22039086.633
 114946582.835 8  89568831.86345  21873610.828                    21873619.527
 121060232.763 7  94332725.59744  23037000.922                    23037008.539
 108460141.419 8  84514470.465 7  20639264.492                    20639271.367
 115280004.815 8  89828610.551 7  21937051.023                    21937058.895
 125857717.743 7  98070982.504 6  23949927.109                    23949934.973
 115200720.289 8  89766851.63045  21921944.102                    21921949.598
 113961395.069 8  88800936.551 7  21686084.398                    21686094.531
 11  8 15  2 56 30.0000000  0  9G10G12G30G26G05G29G15G02G25
 128075666.123 6  99799275.43643  24371961.828                    24371971.145
 115894376.654 8  90307370.150 7  22053971.453                    22053978.660
 114994390.211 8  89606084.37145  21882708.305                    21882716.352
 120969856.632 7  94262302.64244  23019802.273                    23019810.742
 108504399.450 8  84548957.261 7  20647686.555                    20647693.539
 115203745.926 8  89769188.087 7  21922539.867                    21922547.418
 125760957.629 6  97995585.061 6  23931513.414                    23931521.719
 115243465.931 8  89800159.94345  21930078.172                    21930083.840
 113985362.743 8  88819612.665 7  21690645.188                    21690655.816
 11  8 15  2 57  0.0000000  0  9G10G12G30G26G05G29G15G02G25
 128184274.686 6  99883905.38043  24392629.375                    24392638.637
 115972950.704 8  90368596.686 7  22068923.344                    22068931.031
 115042671.404 8  89643706.08545  21891896.078                    21891904.566
 120879682.996 7  94192037.47744  23002642.469                    23002650.738
 108549102.653 8  84583790.934 8  20656193.063                    20656200.270
 115127652.692 8  89709894.711 7  21908059.406                    21908066.789
 125664170.371 6  97920166.480 6  23913095.289                    23913104.043
 115286301.626 8  89833538.41945  21938229.719                    21938234.828
 114009867.760 8  88838707.489 7  21695308.492                    21695318.746
 11  8 15  2 57 30.0000000  0 10G10G12G30G26G05G29G15G21G02G25
 128292944.646 6  99968583.21942  24413308.820                    24413318.141
 116051837.252 8  90430066.722 7  22083935.219                    22083942.840
 115091424.154 8  89681695.24445  21901173.281                    21901181.551
 120789715.408 7  94121932.86844  22985522.203                    22985530.660
 108594249.151 8  84618970.032 7  20664784.094                    20664791.152
 115051727.379 7  89650732.184 7  21893611.180                    21893618.887
 125567358.948 6  97844729.051 6  23894673.078                    23894681.672
 132306529.06016 103096050.67852  25177099.320                    25177108.500
 115329227.387 8  89866987.08245  21946398.344                    21946403.816
 114034908.861 8  88858220.037 7  21700073.734                    21700084.215
 11  8 15  2 58  0.0000000  0 10G10G12G30G26G05G29G15G21G02G25
 128401673.536 6 100053307.00543  24433999.125                    24434007.891
 116131032.967 8  90491777.662 7  22099005.297                    22099012.840
 115140645.485 8  89720049.53545  21910539.594                    21910547.559
 120699957.177 7  94051991.39144  22968442.227                    22968450.395
 108639836.221 8  84654492.441 8  20673459.375                    20673466.133
 114975971.925 7  89591702.004 7  21879194.984                    21879203.441
 125470526.032 6  97769274.879 6  23876246.820                    23876255.121
 132249164.153 6 103051350.86142  25166182.719                    25166192.230
 115372242.817 8  89900505.61845  21954583.711                    21954589.070
 114060484.070 8  88878148.777 7  21704940.477                    21704950.742
 11  8 15  2 58 30.0000000  0 10G10G12G30G26G05G29G15G21G02G25
 128510459.031 6 100138074.86542  24454699.188                    24454709.836
 116210535.315 8  90553727.544 7  22114134.211                    22114141.883
 115190333.145 8  89758767.19045  21919995.016                    21920003.039
 120610412.344 7  93982216.18544  22951401.930                    22951410.223
 108685862.040 8  84690356.726 7  20682217.859                    20682224.750
 114900388.595 8  89532805.960 7  21864812.742                    21864820.211
 125373674.394 6  97693806.047 6  23857816.211                    23857824.766
 132191811.096 6 103006660.31342  25155269.008                    25155278.199
 115415348.232 8  89934094.27245  21962786.359                    21962791.691
 114086592.129 8  88898492.723 7  21709908.828                    21709919.102
 11  8 15  2 59  0.0000000  0 10G10G12G30G26G05G29G15G21G02G25
 128619298.48716 100222884.76752  24475412.203                    24475420.566
 116290340.490 7  90615913.407 7  22129321.000                    22129327.973
 115240484.366 8  89797846.06345  21929538.148                    21929546.738
 120521084.367 7  93912609.97144  22934404.047                    22934412.184
 108732324.189 8  84726561.010 7  20691059.250                    20691066.160
 114824979.367 8  89474045.571 7  21850462.594                    21850470.461
 125276806.904 6  97618324.915 6  23839383.219                    23839391.121
 132134469.212 6 102961978.34942  25144356.914                    25144366.266
 115458543.885 8  89967753.24345  21971006.359                    21971011.523
 114113231.259 8  88919250.475 7  21714978.109                    21714988.602
 11  8 15  2 59 30.0000000  0 10G10G12G30G26G05G29G15G21G02G25
 128728189.773 6 100307735.09842  24496134.039                    24496142.078
 116370446.220 8  90678333.447 7  22144564.563                    22144572.105
 115291096.673 7  89837284.23245  21939169.305                    21939177.590
 120431976.974 7  93843175.63844  22917447.344                    22917455.344
 108779220.526 8  84763103.619 8  20699983.086                    20699990.063
 114749746.801 7  89415422.848 7  21836146.086                    21836154.309
 125179926.567 6  97542833.766 6  23820947.008                    23820955.539
 132077137.926 6 102917304.78542  25133447.063                    25133456.676
 115501829.703 7  90001482.48245  21979243.070                    21979248.836
 114140399.918 8  88940420.871 7  21720147.898                    21720157.957
 11  8 15  3  0  0.0000000  0 10G10G12G30G26G05G29G15G21G02G25
 128837130.288 6 100392623.79343  24516864.047                    24516872.992
 116450849.009 8  90740984.966 7  22159864.555                    22159872.211
 115342167.283 7  89877079.51945  21948887.500                    21948896.172
 120343093.795 7  93773916.01744  22900533.133                    22900541.348
 108826548.538 8  84799982.600 8  20708989.328                    20708996.531
 114674692.760 7  89356939.224 7  21821863.797                    21821871.539
 125083035.958 7  97467334.643 6  23802509.555                    23802517.887
 132019816.665 6 102872638.98542  25122538.922                    25122548.855
 115545205.576 8  90035281.88545  21987497.563                    21987502.535
 114168096.377 8  88962002.526 7  21725418.375                    21725428.750
 11  8 15  3  0 30.0000000  0 10G10G12G30G26G05G29G15G21G02G25
 128946117.905 6 100477549.16243  24537603.594                    24537613.352
 116531546.265 7  90803865.949 7  22175220.656                    22175228.121
 115393693.837 7  89917230.07945  21958692.727                    21958701.277
 120254438.585 7  93704834.04144  22883663.055                    22883671.547
 108874306.396 8  84837196.517 8  20718077.289                    20718084.359
 114599819.673 7  89298596.616 7  21807615.797                    21807623.688
 124986138.130 7  97391829.889 6  23784070.789                    23784078.543
 131962504.956 6 102827980.62242  25111633.063                    25111642.387
 115588672.097 8  90069151.92845  21995768.516                    21995774.063
 114196319.285 8  88983994.408 7  21730789.156                    21730799.180
 11  8 15  3  1  0.0000000  0 10G10G12G30G26G05G29G15G21G02G25
 129055150.180 6 100562509.38643  24558352.367                    24558360.391
 116612535.017 7  90866974.071 7  22190632.156                    22190639.402
 115445673.599 7  89957733.79545  21968584.469                    21968593.461
 120166015.033 7  93635932.58044  22866836.492                    22866844.594
 108922492.210 8  84874743.911 8  20727246.641                    20727253.684
 114525129.839 7  89240396.804 7  21793402.766                    21793410.527
 124889236.135 7  97316321.873 6  23765630.594                    23765638.047
 131905202.253 6 102783329.32242  25100728.906                    25100738.230
 115632228.952 8  90103092.36945  22004057.445                    22004062.461
 114225066.820 8  89006395.088 7  21736259.055                    21736269.480
 11  8 15  3  1 30.0000000  0 10G10G12G30G26G05G29G15G21G02G25
 129164224.934 6 100647502.62343  24579108.672                    24579117.098
 116693812.439 7  90930307.121 7  22206099.297                    22206106.285
 115498104.060 8  89998588.71145  21978562.039                    21978569.906
 120077826.920 7  93567214.58344  22850054.734                    22850062.543
 108971103.525 8  84912622.858 8  20736496.984                    20736504.063
 114450625.027 8  89182341.156 7  21779225.289                    21779232.992
 124792332.683 6  97240812.742 6  23747190.625                    23747198.719
 131847907.992 6 102738684.57942  25089826.328                    25089835.285
 115675876.545 8  90137103.51645  22012363.281                    22012368.344
 114254337.416 8  89029203.353 7  21741829.414                    21741839.695
 11  8 15  3  2  0.0000000  0 10G10G12G30G26G05G29G15G21G02G25
 129273340.750 6 100732527.93943  24599872.078                    24599880.715
 116775376.223 7  90993863.325 7  22221619.758                    22221628.039
 115550983.312 7  90039793.32945  21988624.219                    21988632.551
 119989878.864 7  93498683.65744  22833318.992                    22833327.172
 109020138.744 7  84950832.119 8  20745828.188                    20745835.680
 114376308.667 8  89124432.354 7  21765082.836                    21765090.703
 124695431.623 6  97165305.481 6  23728749.484                    23728758.516
 131790622.509 5 102694046.67643  25078924.344                    25078934.344
 115719615.734 7  90171186.03045  22020686.477                    22020691.531
 114284130.200 8  89052418.520 7  21747499.000                    21747508.969
 11  8 15  3  2 30.0000000  0  9G12G30G26G05G29G15G21G02G25
 116857222.413 7  91057639.565 7  22237194.633                    22237202.379
 115604307.708 8  90081344.81945  21998771.422                    21998779.738
 119902173.479 7  93430341.84944  22816628.867                    22816637.504
 109069594.687 8  84989369.217 7  20755239.617                    20755246.641
 114302181.995 8  89066671.366 7  21750977.406                    21750984.855
 124598534.942 6  97089801.630 6  23710312.234                    23710320.293
 131733344.209 5 102649414.39842  25068024.352                    25068034.414
 115763445.756 7  90205339.33245  22029026.719                    22029032.172
 114314442.423 8  89076038.436 7  21753267.281                    21753277.504
 11  8 15  3  3  0.0000000  0  9G12G30G26G05G29G15G21G02G25
 116939347.813 7  91121633.380 7  22252822.508                    22252830.254
 115658074.632 8  90123241.12545  22009003.070                    22009011.363
 119814714.274 7  93362191.84144  22799985.891                    22799994.414
 109119469.129 8  85028232.416 8  20764730.133                    20764737.414
 114228247.465 8  89009060.093 7  21736907.617                    21736915.754
 124501645.174 6  97014303.201 6  23691873.430                    23691882.902
 131676072.855 5 102604787.49643  25057125.367                    25057136.031
 115807366.724 8  90239563.51545  22037384.750                    22037390.148
 114345272.434 8  89100061.831 7  21759133.961                    21759144.297
 11  8 15  3  3 30.0000000  0  9G12G30G26G05G29G15G21G02G25
 117021749.677 7  91185842.630 7  22268503.563                    22268510.563
 115712281.435 7  90165480.19745  22019318.383                    22019326.844
 119727505.244 7  93294236.81344  22783390.641                    22783398.789
 109169760.226 8  85067420.284 8  20774300.680                    20774307.469
 114154507.216 8  88951600.203 7  21722875.578                    21722882.977
 124404765.566 6  96938812.658 6  23673439.102                    23673446.910
 131618807.450 5 102560165.22143  25046229.352                    25046238.547
 115851378.972 7  90273858.80245  22045760.477                    22045765.867
 114376618.464 8  89124487.319 7  21765098.867                    21765109.156
 11  8 15  3  4  0.0000000  0  9G12G30G26G05G29G15G21G02G25
 117104424.860 7  91250264.853 7  22284236.227                    22284243.375
 115766925.085 7  90208059.65845  22029716.867                    22029724.926
 119640549.849 7  93226479.43944  22766843.891                    22766851.570
 109220465.213 8  85106930.654 7  20783949.078                    20783955.711
 114080962.934 8  88894293.014 7  21708880.602                    21708888.012
 124307898.609 6  96863331.996 6  23655005.234                    23655013.336
 131561547.692 6 102515547.33943  25035332.031                    25035342.039
 115895482.369 7  90308225.12945  22054152.672                    22054157.867
 114408478.479 8  89149313.321 7  21771161.711                    21771171.742
 11  8 15  3  4 30.0000000  0  9G12G30G26G05G29G15G21G02G25
 117187370.444 7  91314897.768 7  22300019.992                    22300027.324
 115822003.161 7  90250977.65045  22040198.047                    22040205.980
 119553852.036 7  93158922.76944  22750345.344                    22750353.402
 109271582.095 8  85146761.988 7  20793676.359                    20793683.336
 114007617.519 8  88837140.794 7  21694923.266                    21694930.551
 124211047.764 6  96787863.881 6  23636575.648                    23636583.477
 131504292.925 6 102470933.38843  25024437.586                    25024446.773
 115939676.999 8  90342662.54145  22062562.664                    22062568.043
 114440850.960 8  89174538.634 7  21777322.070                    21777331.844
 11  8 15  3  5  0.0000000  0  9G12G30G26G05G29G15G21G02G25
 117270583.261 7  91379738.917 7  22315854.742                    22315862.160
 115877512.625 7  90294231.77445  22050760.922                    22050769.059
 119467415.216 7  93091569.48744  22733896.891                    22733904.938
 109323108.175 8  85186912.183 7  20803481.492                    20803488.410
 113934472.757 8  88780144.919 7  21681004.141                    21681011.754
 124114215.551 7  96712410.327 6  23618149.414                    23618157.184
 131447042.500 6 102426322.77043  25013542.828                    25013552.453
 115983963.022 7  90377171.18145  22070990.008                    22070995.156
 114473733.750 8  89200161.603 7  21783579.359                    21783589.727
 11  8 15  3  5 30.0000000  0  9G12G30G26G05G29G15G21G02G25
 117354060.301 7  91444785.962 7  22331739.930                    22331747.613
 115933450.984 7  90337820.10845  22061405.484                    22061413.363
 119381243.279 7  93024422.59444  22717498.617                    22717507.477
 109375041.522 8  85227379.720 7  20813364.102                    20813370.895
 113861531.219 8  88723307.397 7  21667123.836                    21667131.242
 124017405.205 7  96636973.775 6  23599726.078                    23599734.117
 131389795.842 6 102381715.14943  25002649.016                    25002658.566
 116028340.749 8  90411751.25545  22079434.703                    22079439.992
 114507125.262 8  89226180.971 7  21789933.453                    21789943.578
 11  8 15  3  6  0.0000000  0  9G12G30G26G05G29G15G21G02G25
 117437799.483 7  91510037.265 7  22347674.984                    22347682.711
 115989815.654 7  90381740.64245  22072130.930                    22072139.672
 119295339.987 7  92957485.05244  22701151.375                    22701160.074
 109427380.045 8  85268162.987 7  20823323.805                    20823330.816
 113788795.531 8  88666630.283 7  21653282.625                    21653290.023
 123920619.832 7  96561556.637 6  23581308.500                    23581316.820
 131332552.894 6 102337110.38043  24991756.148                    24991765.234
 116072810.647 8  90446403.15845  22087896.734                    22087902.457
 114541023.813 8  89252595.425 7  21796384.430                    21796394.301
 11  8 15  3  6 30.0000000  0  9G12G30G26G05G29G15G21G02G25
 117521796.380 7  91575489.376 7  22363659.375                    22363667.039
 116046603.475 7  90425990.90145  22082937.617                    22082945.934
 119209708.770 7  92890759.51644  22684856.523                    22684865.195
 109480120.869 8  85309259.740 7  20833359.992                    20833366.938
 113716267.544 8  88610115.014 7  21639481.078                    21639488.211
 123823861.689 7  96486160.781 6  23562896.039                    23562904.051
 131275312.520 6 102292507.59043  24980863.070                    24980872.352
 116117372.298 8  90481126.56045  22096376.633                    22096381.996
 114575427.137 8  89279403.218 7  21802930.727                    21802941.012
 11  8 15  3  7  0.0000000  0  9G12G30G26G05G29G15G21G02G25
 117606047.985 7  91641139.977 7  22379691.555                    22379699.555
 116103811.338 7  90470568.45245  22093824.133                    22093832.035
 119124352.889 7  92824248.49244  22668614.180                    22668622.387
 109533261.366 8  85350667.924 7  20843472.266                    20843479.285
 113643949.122 8  88553763.036 7  21625719.539                    21625726.832
 123727133.840 7  96410788.460 6  23544489.672                    23544496.699
 131218074.288 6 102247906.47843  24969971.383                    24969980.352
 116162025.878 7  90515921.57445  22104874.094                    22104879.473
 114610333.070 8  89306602.667 7  21809573.297                    21809583.410
 11  8 15  3  7 30.0000000  0  9G12G30G26G05G29G15G21G02G25
 117690552.394 7  91706987.559 7  22395772.594                    22395779.684
 116161437.142 7  90515471.67345  22104789.742                    22104797.969
 119039277.002 7  92757955.64544  22652424.453                    22652433.070
 109586800.402 8  85392386.658 7  20853660.148                    20853667.582
 113571843.181 8  88497576.634 7  21611998.063                    21612005.770
 123630439.724 7  96335442.463 6  23526089.500                    23526096.930
 131160838.095 6 102203306.98143  24959078.938                    24959088.598
 116206772.090 7  90550788.77245  22113388.727                    22113393.805
 114645740.367 8  89334192.776 7  21816310.883                    21816321.445
 11  8 15  3  8  0.0000000  0  9G12G30G26G05G29G15G21G02G25
 117775305.807 7  91773029.160 7  22411900.453                    22411908.023
 116219477.756 7  90560698.12245  22115834.578                    22115842.949
 118954484.252 7  92691883.38845  22636288.688                    22636297.129
 109640734.882 8  85434413.534 7  20863924.094                    20863930.793
 113499951.809 8  88441557.426 7  21598317.523                    21598324.770
 123533781.729 7  96260124.573 6  23507695.531                    23507703.250
 131103603.138 6 102158708.39043  24948187.789                    24948197.340
 116251611.005 7  90585728.19645  22121921.477                    22121926.941
 114681646.657 8  89362171.717 7  21823143.570                    21823153.797
 11  8 15  3  8 30.0000000  0  9G12G30G26G05G29G15G21G02G25
 117860305.003 7  91839262.296 7  22428075.336                    22428082.840
 116277930.202 7  90606245.48845  22126957.711                    22126965.910
 118869978.123 7  92626034.48445  22620207.742                    22620216.027
 109695062.250 8  85476746.556 7  20874261.898                    20874268.781
 113428276.842 8  88385706.846 7  21584677.906                    21584685.633
 123437163.380 7  96184837.589 6  23489309.664                    23489317.543
 131046368.691 6 102114110.22143  24937296.688                    24937306.141
 116296542.350 7  90620739.64445  22130471.828                    22130476.766
 114718049.881 8  89390537.877 7  21830071.180                    21830081.164
 11  8 15  3  9  0.0000000  0  9G12G30G26G05G29G15G21G02G25
 117945547.334 7  91905684.880 7  22444296.344                    22444303.395
 116336791.700 7  90652111.58245  22138158.859                    22138166.988
 118785762.520 7  92560411.94944  22604182.391                    22604190.809
 109749780.673 8  85519384.299 7  20884674.242                    20884681.180
 113356821.026 8  88330027.031 7  21571080.258                    21571087.746
 123340587.455 7  96109583.645 6  23470932.070                    23470939.570
 130989134.358 6 102069512.11743  24926405.625                    24926414.473
 116341566.647 7  90655823.51945  22139039.133                    22139044.938
 114754948.149 8  89419289.776 7  21837092.719                    21837102.816
 11  8 15  3  9 30.0000000  0  9G12G30G26G05G29G15G21G02G25
 118031029.469 7  91972294.338 7  22460562.734                    22460570.668
 116396059.341 7  90698294.15545  22149436.984                    22149445.383
 118701840.932 7  92495018.50244  22588212.875                    22588220.551
 109804887.390 8  85562324.608 7  20895161.031                    20895167.828
 113285586.542 8  88274519.679 7  21557525.078                    21557532.504
 123244056.465 7  96034364.781 6  23452562.172                    23452570.738
 130931899.763 6 102024913.80343  24915513.781                    24915523.066
 116386683.948 7  90690979.87445  22147624.680                    22147630.242
 114792339.290 8  89448425.738 7  21844207.711                    21844218.195
 11  8 15  3 10  0.0000000  0  9G12G30G26G05G29G15G21G02G25
 118116748.620 7  92039088.465 7  22476874.602                    22476882.199
 116455730.325 7  90744791.02545  22160792.148                    22160800.332
 118618217.321 7  92429857.22945  22572299.609                    22572307.395
 109860380.117 8  85605565.703 7  20905720.742                    20905727.813
 113214575.714 8  88219186.607 7  21544011.875                    21544019.461
 123147574.076 7  95959183.729 6  23434202.836                    23434210.266
 130874664.163 6 101980314.71743  24904621.906                    24904631.852
 116431894.654 7  90726209.01245  22156227.977                    22156233.414
 114830221.463 8  89477944.325 7  21851416.641                    21851427.035
 11  8 15  3 10 30.0000000  0  9G12G30G26G05G29G15G21G02G25
 118202701.716 7  92106064.902 7  22493231.000                    22493238.121
 116515801.765 7  90791599.93645  22172222.898                    22172231.215
 118534895.444 7  92364931.07244  22556444.047                    22556452.105
 109916256.961 8  85649106.122 7  20916353.711                    20916361.113
 113143790.872 8  88164029.637 7  21530541.852                    21530549.340
 123051143.011 7  95884042.704 6  23415852.297                    23415860.438
 130817427.089 6 101935714.47543  24893730.234                    24893739.371
 116477198.954 8  90761511.07445  22164849.633                    22164854.770
 114868592.620 8  89507843.931 7  21858718.336                    21858728.645
 11  8 15  3 11  0.0000000  0  9G12G30G26G05G29G15G21G02G25
 118288886.112 7  92173221.567 7  22509631.336                    22509638.590
 116576271.311 7  90838719.05945  22183729.914                    22183738.293
 118451879.141 7  92300243.01045  22540646.367                    22540654.770
 109972515.604 8  85692944.024 7  20927059.430                    20927066.313
 113073234.734 8  88109050.871 7  21517115.563                    21517122.965
 122954766.801 6  95808944.421 6  23397512.398                    23397520.258
 130760188.271 6 101891112.86943  24882837.219                    24882846.805
 116522597.234 8  90796886.37645  22173487.961                    22173493.047
 114907451.090 8  89538123.272 7  21866113.094                    21866123.289
 11  8 15  3 11 30.0000000  0  9G12G30G26G05G29G15G21G02G25
 118375298.448 7  92240555.838 7  22526075.094                    22526082.691
 116637135.432 7  90886145.63845  22195311.719                    22195320.461
 118369171.426 7  92235795.41245  22524908.352                    22524916.160
 110029153.233 8  85737077.252 7  20937837.352                    20937844.461
 113002909.226 8  88054251.829 7  21503733.461                    21503740.512
 122858447.768 7  95733890.680 6  23379183.898                    23379191.297
 130702946.919 6 101846509.30143  24871945.266                    24871954.055
 116568089.609 7  90832334.98745  22182145.234                    22182150.078
 114946794.273 8  89568780.295 7  21873599.609                    21873610.023
 11  8 15  3 12  0.0000000  0  9G12G30G26G05G29G15G21G02G25
 118461934.858 7  92308064.728 7  22542561.727                    22542569.289
 116698391.001 7  90933877.25545  22206968.828                    22206976.797
 118286776.174 7  92171591.30545  22509228.383                    22509236.746
 110086167.060 8  85781503.624 7  20948686.688                    20948693.582
 112932816.070 8  87999633.824 7  21490394.813                    21490402.234
 122762188.706 7  95658883.649 6  23360866.164                    23360873.977
 130645702.318 6 101801903.24043  24861051.070                    24861060.520
 116613675.917 8  90867856.80145  22190820.016                    22190825.117
 114986619.724 8  89599813.110 7  21881178.031                    21881188.570
 11  8 15  3 12 30.0000000  0  9G12G30G26G05G29G15G21G02G25
 118548792.620 7  92375746.088 6  22559090.375                    22559097.516
 116760035.144 7  90981911.65145  22218699.320                    22218707.371
 118204696.961 7  92107633.44945  22493609.273                    22493617.633
 110143555.281 8  85826221.725 7  20959607.609                    20959614.344
 112862958.123 8  87945199.119 7  21477101.031                    21477108.926
 122665992.844 7  95583925.894 6  23342560.359                    23342568.754
 130588454.274 6 101757294.42043  24850157.867                    24850167.129
 116659356.471 8  90903452.06645  22199512.539                    22199517.988
 115026925.461 8  89631220.184 7  21888847.883                    21888858.043
 11  8 15  3 13  0.0000000  0  9G12G30G26G05G29G15G21G02G25
 118635869.236 7  92443597.989 7  22575660.234                    22575667.750
 116822065.530 7  91030247.01245  22230503.328                    22230511.500
 118122937.896 7  92043925.05545  22478050.945                    22478059.473
 110201315.492 8  85871229.682 7  20970598.820                    20970605.672
 112793338.272 8  87890949.926 7  21463853.023                    21463859.984
 122569863.304 7  95509019.792 6  23324267.539                    23324275.590
 130531202.215 6 101712682.54643  24839262.750                    24839272.105
 116705132.024 8  90939121.34345  22208223.469                    22208228.648
 115067709.909 8  89663000.272 7  21896609.000                    21896619.168
 11  8 15  3 13 30.0000000  0  9G12G30G26G05G29G15G21G02G25
 118723161.341 7  92511617.790 7  22592271.781                    22592278.918
 116884478.769 7  91078880.69345  22242380.523                    22242388.145
 118041502.376 7  91980468.76945  22462554.453                    22462562.773
 110259445.128 8  85916525.518 7  20981660.430                    20981667.371
 112723958.156 8  87836887.545 7  21450650.336                    21450657.723
 122473803.408 7  95434167.958 6  23305988.102                    23305995.910
 130473945.416 6 101668066.94642  24828367.414                    24828376.141
 116751002.634 8  90974864.69845  22216952.188                    22216957.301
 115108970.557 8  89695151.417 7  21904461.031                    21904471.086
 11  8 15  3 14  0.0000000  0  9G12G30G26G05G29G15G21G02G25
 118810666.088 7  92579803.283 7  22608922.695                    22608930.508
 116947272.113 7  91127810.57945  22254329.484                    22254337.590
 117960394.093 7  91917267.47545  22447119.688                    22447128.523
 110317941.952 8  85962107.467 7  20992791.797                    20992799.191
 112654820.281 8  87783013.919 7  21437493.969                    21437501.211
 122377815.681 7  95359372.365 6  23287722.398                    23287730.465
 130416683.576 6 101623447.41742  24817470.031                    24817479.500
 116796968.567 8  91010682.32045  22225699.328                    22225704.766
 115150705.271 8  89727671.976 7  21912402.375                    21912412.938
 11  8 15  3 14 30.0000000  0  9G12G30G26G05G29G15G21G02G25
 118898380.370 7  92648152.058 7  22625614.703                    22625622.047
 117010442.534 7  91177034.27745  22266349.805                    22266358.031
 117879616.953 7  91854324.24245  22431748.938                    22431756.898
 110376803.712 8  86007973.775 7  21003993.063                    21004000.012
 112585926.836 8  87729330.755 7  21424383.984                    21424391.219
 122281903.612 7  95284635.720 6  23269470.906                    23269478.594
 130359416.149 6 101578823.54742  24806573.336                    24806581.188
 116843029.868 8  91046574.25145  22234464.664                    22234469.758
 115192911.853 8  89760560.227 7  21920434.219                    21920444.387
